[[{"header":{"parameterUnit":"m.s-1","parameterCategory":1,"la1":30.6,"la2":29.2853,"lo1":-89.7004,"lo2":-87.6739,"dy":0.0162,"dx":0.0183,"nx":112,"ny":82,"refTime":"2024-08-26T06:00:00:Z","depth":0,"parameterNumber":2,"parameterNumberName":"U-component_of_WINDS"},"data":[0.0,0.0,0.0,0.0,0.0,0.0,0.0,0.0,0.0,0.0,0.0,0.0,0.0,0.0,0.0,0.0,0.0,0.0,0.0,0.0,0.0,0.0,0.0,0.0,0.0,0.0,0.0,0.0,0.0,0.0,0.0,0.0,0.0,0.0,0.0,0.0,0.0,0.0,0.0,0.0,0.0,0.0,0.0,0.0,0.0,0.0,0.0,0.0,0.0,0.0,0.0,0.0,0.0,0.0,0.0,0.0,0.0,0.0,0.0,0.0,0.0,0.0,0.0,0.0,0.0,0.0,0.0,0.0,0.0,0.0,0.0,0.0,0.0,0.0,0.0,0.0,0.0,0.0,0.0,0.0,0.0,0.0,0.0,0.0,0.0,0.0,0.0,0.0,0.0,0.0,-2.885,-2.7297,-2.8428,-2.9639,-3.0426,-3.007,-2.9381,-2.8359,0.0,0.0,0.0,0.0,0.0,0.0,0.0,0.0,0.0,0.0,0.0,0.0,0.0,0.0,0.0,0.0,0.0,0.0,0.0,0.0,0.0,0.0,0.0,0.0,0.0,0.0,0.0,0.0,0.0,0.0,0.0,0.0,0.0,0.0,0.0,0.0,0.0,0.0,0.0,0.0,0.0,0.0,0.0,0.0,0.0,0.0,0.0,0.0,0.0,0.0,0.0,0.0,0.0,0.0,0.0,0.0,0.0,0.0,0.0,0.0,0.0,0.0,0.0,0.0,0.0,0.0,0.0,0.0,0.0,0.0,0.0,0.0,0.0,0.0,0.0,0.0,0.0,0.0,0.0,0.0,0.0,0.0,0.0,0.0,0.0,0.0,0.0,0.0,0.0,0.0,0.0,0.0,0.0,0.0,0.0,0.0,0.0,0.0,0.0,0.0,0.0,0.0,0.0,0.0,-2.8929,-2.9427,-2.9958,-3.0342,-3.0506,-3.007,-2.9237,-2.7875,0.0,0.0,0.0,0.0,0.0,0.0,0.0,0.0,0.0,0.0,0.0,0.0,0.0,0.0,0.0,0.0,0.0,0.0,0.0,0.0,0.0,0.0,0.0,0.0,0.0,0.0,0.0,0.0,0.0,0.0,0.0,0.0,0.0,0.0,0.0,0.0,0.0,0.0,0.0,0.0,0.0,0.0,0.0,0.0,0.0,0.0,0.0,0.0,0.0,0.0,0.0,0.0,0.0,0.0,0.0,0.0,0.0,0.0,0.0,0.0,0.0,0.0,0.0,0.0,0.0,0.0,0.0,0.0,0.0,0.0,0.0,0.0,0.0,0.0,0.0,0.0,0.0,0.0,0.0,0.0,0.0,0.0,0.0,0.0,0.0,0.0,0.0,0.0,0.0,0.0,0.0,0.0,0.0,0.0,0.0,0.0,0.0,0.0,0.0,0.0,0.0,0.0,0.0,-2.8188,-2.8293,-3.0333,-3.0062,-2.9837,-3.0092,-2.9683,-2.8808,-2.7422,-2.6642,0.0,0.0,0.0,0.0,0.0,0.0,0.0,0.0,0.0,0.0,0.0,0.0,0.0,0.0,0.0,0.0,0.0,0.0,0.0,0.0,0.0,0.0,0.0,0.0,0.0,0.0,0.0,0.0,0.0,0.0,0.0,0.0,0.0,0.0,0.0,0.0,0.0,0.0,0.0,0.0,0.0,0.0,0.0,0.0,0.0,0.0,0.0,0.0,0.0,0.0,0.0,0.0,0.0,0.0,0.0,0.0,0.0,0.0,0.0,0.0,0.0,0.0,0.0,0.0,0.0,0.0,0.0,0.0,0.0,0.0,0.0,0.0,0.0,0.0,0.0,0.0,0.0,0.0,0.0,0.0,0.0,0.0,0.0,0.0,0.0,0.0,0.0,0.0,0.0,0.0,0.0,0.0,0.0,0.0,0.0,0.0,0.0,0.0,0.0,0.0,0.0,0.0,-2.8271,-2.8347,-3.0598,-2.9777,-2.9234,-2.9595,-2.9053,-2.8158,-2.6932,-2.5917,0.0,0.0,0.0,0.0,0.0,0.0,0.0,0.0,0.0,0.0,0.0,0.0,0.0,0.0,0.0,0.0,0.0,0.0,0.0,0.0,0.0,0.0,0.0,0.0,0.0,0.0,0.0,0.0,0.0,0.0,0.0,0.0,0.0,0.0,0.0,0.0,0.0,0.0,0.0,0.0,0.0,0.0,0.0,0.0,0.0,0.0,0.0,0.0,0.0,0.0,0.0,0.0,0.0,0.0,0.0,0.0,0.0,0.0,0.0,0.0,0.0,0.0,0.0,0.0,0.0,0.0,0.0,0.0,0.0,0.0,0.0,0.0,0.0,0.0,0.0,0.0,0.0,0.0,0.0,0.0,0.0,0.0,0.0,0.0,0.0,0.0,0.0,0.0,0.0,0.0,0.0,0.0,0.0,0.0,0.0,0.0,0.0,0.0,0.0,0.0,0.0,0.0,-2.9462,-3.0119,-3.0325,-2.96,-2.9097,-2.9143,-2.8108,-2.7126,-2.6492,-2.5326,0.0,0.0,0.0,0.0,0.0,0.0,0.0,0.0,0.0,0.0,0.0,0.0,0.0,0.0,0.0,0.0,0.0,0.0,0.0,0.0,0.0,0.0,0.0,0.0,0.0,0.0,0.0,0.0,0.0,0.0,0.0,0.0,0.0,0.0,0.0,0.0,0.0,0.0,0.0,0.0,0.0,0.0,0.0,0.0,0.0,0.0,0.0,0.0,0.0,0.0,0.0,0.0,0.0,0.0,0.0,0.0,0.0,0.0,0.0,0.0,0.0,0.0,0.0,0.0,0.0,0.0,0.0,0.0,0.0,0.0,0.0,0.0,0.0,0.0,0.0,0.0,0.0,0.0,0.0,0.0,0.0,0.0,0.0,0.0,0.0,0.0,0.0,0.0,0.0,0.0,0.0,0.0,0.0,0.0,0.0,0.0,0.0,0.0,0.0,0.0,0.0,0.0,-2.8464,-2.8908,-3.0055,-2.9234,-2.8614,-2.8614,-2.779,-2.6895,-2.597,0.0,0.0,0.0,0.0,0.0,0.0,0.0,0.0,0.0,0.0,0.0,0.0,0.0,0.0,0.0,0.0,0.0,0.0,0.0,0.0,0.0,0.0,0.0,0.0,0.0,0.0,0.0,0.0,0.0,0.0,0.0,0.0,0.0,0.0,0.0,0.0,0.0,0.0,0.0,0.0,0.0,0.0,0.0,0.0,0.0,0.0,0.0,0.0,0.0,0.0,0.0,0.0,0.0,0.0,0.0,0.0,0.0,0.0,0.0,0.0,0.0,0.0,0.0,0.0,0.0,0.0,0.0,0.0,0.0,0.0,0.0,0.0,0.0,0.0,0.0,0.0,0.0,0.0,0.0,0.0,0.0,0.0,0.0,0.0,0.0,0.0,0.0,0.0,0.0,0.0,0.0,0.0,0.0,0.0,0.0,0.0,0.0,0.0,0.0,0.0,0.0,0.0,-2.8187,-2.805,-2.8416,-2.9659,-2.8682,-2.7953,-2.7953,-2.7181,-2.6356,-2.5583,0.0,0.0,0.0,0.0,0.0,0.0,0.0,0.0,0.0,0.0,0.0,0.0,0.0,0.0,0.0,0.0,0.0,0.0,0.0,0.0,0.0,0.0,0.0,0.0,0.0,0.0,0.0,0.0,0.0,0.0,0.0,0.0,0.0,0.0,0.0,0.0,0.0,0.0,0.0,0.0,0.0,0.0,0.0,0.0,0.0,0.0,0.0,0.0,0.0,0.0,0.0,0.0,0.0,0.0,0.0,0.0,0.0,0.0,0.0,0.0,0.0,0.0,0.0,0.0,0.0,0.0,0.0,0.0,0.0,0.0,0.0,0.0,0.0,0.0,0.0,0.0,0.0,0.0,0.0,0.0,0.0,0.0,0.0,0.0,0.0,0.0,0.0,0.0,0.0,0.0,0.0,0.0,0.0,0.0,0.0,0.0,0.0,0.0,0.0,0.0,0.0,0.0,-2.8121,-2.8672,-2.9098,-2.9098,-2.7948,-2.7207,-2.7207,-2.6095,-2.5396,0.0,0.0,0.0,0.0,0.0,0.0,0.0,0.0,0.0,0.0,0.0,0.0,0.0,0.0,0.0,0.0,0.0,0.0,0.0,0.0,0.0,0.0,0.0,0.0,0.0,0.0,0.0,0.0,0.0,0.0,0.0,0.0,0.0,0.0,0.0,0.0,0.0,0.0,0.0,0.0,0.0,0.0,0.0,0.0,0.0,0.0,0.0,0.0,0.0,0.0,0.0,0.0,0.0,0.0,0.0,0.0,0.0,0.0,0.0,0.0,0.0,0.0,0.0,0.0,0.0,0.0,0.0,0.0,0.0,0.0,0.0,0.0,0.0,0.0,0.0,0.0,0.0,0.0,0.0,0.0,0.0,0.0,0.0,0.0,0.0,0.0,0.0,0.0,0.0,0.0,0.0,0.0,0.0,0.0,0.0,0.0,0.0,0.0,0.0,0.0,0.0,0.0,0.0,-2.8109,-2.8182,-2.8411,-2.9042,-2.7948,-2.7233,-2.7335,-2.6144,-2.5435,-2.5529,0.0,0.0,0.0,0.0,0.0,0.0,0.0,0.0,0.0,0.0,0.0,0.0,0.0,0.0,0.0,0.0,0.0,0.0,0.0,0.0,0.0,0.0,0.0,0.0,0.0,0.0,0.0,0.0,0.0,0.0,0.0,0.0,0.0,0.0,0.0,0.0,0.0,0.0,0.0,0.0,0.0,0.0,0.0,0.0,0.0,0.0,0.0,0.0,0.0,0.0,0.0,0.0,0.0,0.0,0.0,0.0,0.0,0.0,0.0,0.0,0.0,0.0,0.0,0.0,0.0,0.0,0.0,0.0,0.0,0.0,0.0,0.0,0.0,0.0,0.0,0.0,0.0,0.0,0.0,0.0,0.0,0.0,0.0,0.0,0.0,0.0,0.0,0.0,0.0,0.0,0.0,0.0,0.0,0.0,0.0,0.0,0.0,0.0,0.0,0.0,0.0,0.0,-2.794,-2.7729,-2.7761,-2.854,-2.7335,-2.6484,-2.651,-2.5445,-2.4805,-2.4878,0.0,0.0,0.0,0.0,0.0,0.0,0.0,0.0,0.0,0.0,0.0,0.0,0.0,0.0,0.0,0.0,0.0,0.0,0.0,0.0,0.0,0.0,0.0,0.0,0.0,0.0,0.0,0.0,0.0,0.0,0.0,0.0,0.0,0.0,0.0,0.0,0.0,0.0,0.0,0.0,0.0,0.0,0.0,0.0,0.0,0.0,0.0,0.0,0.0,0.0,0.0,0.0,0.0,0.0,0.0,0.0,0.0,0.0,0.0,0.0,0.0,0.0,0.0,0.0,0.0,0.0,0.0,0.0,0.0,0.0,0.0,0.0,0.0,0.0,0.0,0.0,0.0,0.0,0.0,0.0,0.0,0.0,0.0,0.0,0.0,0.0,0.0,0.0,0.0,0.0,0.0,0.0,0.0,0.0,0.0,0.0,0.0,0.0,0.0,0.0,0.0,0.0,-2.7608,-2.7271,-2.7179,-2.7763,-2.6345,-2.5342,-2.5259,-2.4401,-2.3863,-2.3807,0.0,0.0,0.0,0.0,0.0,0.0,0.0,0.0,0.0,0.0,0.0,0.0,0.0,0.0,0.0,0.0,0.0,0.0,0.0,0.0,0.0,0.0,0.0,0.0,0.0,0.0,0.0,0.0,0.0,0.0,0.0,0.0,0.0,0.0,0.0,0.0,0.0,0.0,0.0,0.0,0.0,0.0,0.0,0.0,0.0,0.0,0.0,0.0,0.0,0.0,0.0,0.0,0.0,0.0,0.0,0.0,0.0,0.0,0.0,0.0,-2.2849,-2.3457,0.0,0.0,0.0,0.0,0.0,0.0,0.0,0.0,0.0,0.0,0.0,0.0,0.0,0.0,0.0,0.0,0.0,0.0,0.0,0.0,0.0,0.0,0.0,0.0,0.0,0.0,0.0,0.0,0.0,0.0,0.0,0.0,0.0,0.0,0.0,0.0,0.0,0.0,0.0,0.0,-2.6432,-2.6559,-2.6814,-2.7292,-2.6084,-2.5315,-2.5508,-2.4843,-2.4283,-2.3988,-2.3329,0.0,0.0,0.0,0.0,0.0,0.0,0.0,0.0,0.0,0.0,0.0,0.0,0.0,0.0,0.0,0.0,0.0,0.0,0.0,0.0,0.0,0.0,0.0,0.0,0.0,0.0,0.0,0.0,0.0,0.0,0.0,0.0,0.0,0.0,0.0,0.0,0.0,0.0,0.0,0.0,0.0,0.0,0.0,0.0,0.0,0.0,0.0,0.0,0.0,0.0,0.0,0.0,0.0,0.0,0.0,0.0,0.0,0.0,0.0,-2.3366,-2.3224,0.0,0.0,0.0,0.0,0.0,0.0,0.0,0.0,0.0,0.0,0.0,0.0,0.0,0.0,0.0,0.0,0.0,0.0,0.0,0.0,0.0,0.0,0.0,0.0,0.0,0.0,0.0,0.0,0.0,0.0,0.0,0.0,0.0,0.0,0.0,0.0,0.0,0.0,0.0,0.0,-2.6375,-2.631,-2.6304,-2.655,-2.5286,-2.4452,-2.4538,-2.4032,-2.3647,-2.3447,-2.3116,0.0,0.0,0.0,0.0,0.0,0.0,0.0,0.0,0.0,0.0,0.0,0.0,0.0,0.0,0.0,0.0,0.0,0.0,0.0,0.0,0.0,0.0,0.0,0.0,0.0,0.0,0.0,0.0,0.0,0.0,0.0,0.0,0.0,0.0,0.0,0.0,0.0,0.0,0.0,0.0,0.0,0.0,0.0,0.0,0.0,0.0,0.0,0.0,0.0,0.0,0.0,0.0,0.0,-2.5973,-2.6005,-2.6475,-2.6475,-2.6055,-2.5202,-2.3884,-2.2988,-2.252,-2.3153,0.0,0.0,0.0,0.0,0.0,0.0,0.0,0.0,0.0,0.0,0.0,0.0,0.0,0.0,0.0,0.0,0.0,0.0,0.0,0.0,0.0,0.0,-2.1476,0.0,-2.0959,-2.1408,-2.2206,0.0,0.0,0.0,0.0,0.0,0.0,0.0,0.0,0.0,0.0,0.0,-2.6483,-2.6274,-2.6033,-2.5775,-2.4511,-2.3654,-2.3492,-2.3176,-2.2955,-2.2868,-2.2931,-2.2511,0.0,0.0,0.0,0.0,0.0,0.0,0.0,0.0,0.0,0.0,0.0,0.0,0.0,0.0,0.0,0.0,0.0,0.0,0.0,0.0,0.0,0.0,0.0,0.0,0.0,0.0,0.0,0.0,0.0,0.0,0.0,0.0,-2.023,-2.0327,0.0,0.0,0.0,0.0,0.0,0.0,0.0,0.0,0.0,0.0,0.0,0.0,0.0,-2.369,-2.3346,-2.4148,-2.4638,-2.4839,-2.5537,-2.5505,-2.4828,-2.4828,-2.4357,-2.3523,-2.3749,0.0,-2.4026,-2.4093,0.0,0.0,0.0,0.0,0.0,0.0,0.0,0.0,0.0,0.0,0.0,0.0,0.0,0.0,0.0,0.0,0.0,0.0,0.0,0.0,0.0,0.0,-2.1742,-2.1642,-2.1662,-2.1731,0.0,-2.1754,-2.1948,-2.305,-2.2857,-2.2899,0.0,0.0,0.0,0.0,0.0,0.0,-2.5489,-2.6359,-2.6618,-2.5266,-2.4513,-2.4045,-2.3841,-2.3796,-2.3583,-2.3165,-2.3145,-2.2885,-2.2295,-2.2833,0.0,0.0,0.0,0.0,0.0,0.0,0.0,0.0,0.0,0.0,0.0,0.0,0.0,0.0,0.0,0.0,0.0,0.0,0.0,0.0,0.0,0.0,0.0,0.0,0.0,0.0,0.0,0.0,0.0,-2.0245,-2.0777,-2.0777,-2.1217,-2.1321,0.0,0.0,0.0,0.0,0.0,0.0,0.0,0.0,0.0,-2.2594,-2.3422,-2.3898,-2.395,-2.484,-2.5295,-2.5295,-2.5958,-2.5927,-2.5295,-2.5295,-2.5078,-2.4705,-2.4912,-2.4806,-2.4407,-2.4407,-2.4102,-2.3658,0.0,0.0,0.0,0.0,-2.3513,-2.3278,-2.3133,-2.3075,-2.2913,-2.2311,0.0,0.0,0.0,0.0,0.0,0.0,0.0,-2.2653,0.0,0.0,-2.219,-2.219,-2.1994,-2.188,-2.2139,-2.2098,-2.228,-2.2966,-2.285,-2.2887,-2.3619,-2.3805,0.0,0.0,0.0,-2.5779,-2.502,-2.5265,-2.5167,-2.432,-2.3727,-2.348,-2.3603,-2.3611,-2.3555,-2.3431,-2.3803,-2.3809,-2.3255,-2.3295,-2.3191,0.0,0.0,0.0,0.0,0.0,0.0,0.0,0.0,0.0,0.0,0.0,0.0,0.0,0.0,0.0,0.0,0.0,0.0,0.0,0.0,0.0,0.0,0.0,0.0,0.0,0.0,0.0,0.0,-2.0651,-2.1322,-2.1284,-2.1759,-2.1836,0.0,0.0,0.0,0.0,0.0,0.0,-2.3515,-2.3753,-2.3826,-2.3712,-2.4271,-2.4664,-2.4881,-2.5544,-2.5875,-2.5885,-2.6227,-2.62,-2.5709,-2.5709,-2.5647,-2.5533,-2.5533,-2.5161,-2.4497,-2.4497,-2.4209,-2.3732,-2.4064,-2.4228,-2.4352,-2.458,-2.46,-2.4518,-2.4631,-2.4545,-2.4196,-2.3343,-2.2924,-2.2652,-2.2075,0.0,0.0,0.0,0.0,-2.2653,-2.2666,-2.2403,-2.219,-2.2349,-2.2123,-2.2009,-2.2555,-2.2677,-2.2801,-2.3152,-2.303,-2.3086,-2.3629,-2.3971,0.0,-2.4236,-2.48,-2.5073,-2.4721,-2.4477,-2.4175,-2.3698,-2.3194,-2.3003,-2.3323,-2.3238,-2.321,-2.3335,-2.3976,-2.4202,-2.3798,-2.3547,-2.348,-2.37,0.0,0.0,0.0,0.0,0.0,0.0,0.0,0.0,0.0,0.0,0.0,0.0,0.0,0.0,0.0,0.0,0.0,0.0,0.0,0.0,0.0,0.0,0.0,0.0,0.0,0.0,0.0,0.0,0.0,-2.1793,-2.2396,0.0,0.0,0.0,0.0,-2.277,-2.3786,-2.4404,-2.4425,-2.5285,-2.5554,-2.5096,-2.5978,-2.6283,-2.5813,-2.5899,-2.5875,-2.5875,-2.5906,-2.5689,-2.522,-2.522,-2.4983,-2.4569,-2.4569,-2.4538,-2.4497,-2.4497,-2.4022,-2.3225,-2.3246,-2.3525,-2.3857,-2.3443,-2.3826,-2.4373,-2.3577,-2.3587,-2.3836,-2.3349,-2.2717,-2.2024,-2.1355,-2.1455,0.0,0.0,-2.1461,-2.167,-2.1286,-2.1182,-2.1329,-2.1991,-2.2094,-2.2289,-2.3021,-2.3153,-2.3318,-2.3774,-2.3504,-2.3549,-2.4689,0.0,-2.4425,-2.4883,-2.5301,-2.5281,-2.4423,-2.4698,-2.4696,-2.3979,-2.3404,-2.3131,-2.3179,-2.2743,-2.25,-2.2634,-2.3164,-2.3452,-2.342,-2.3427,-2.315,-2.2598,-2.2549,0.0,0.0,0.0,0.0,0.0,0.0,0.0,0.0,0.0,0.0,0.0,0.0,0.0,0.0,0.0,0.0,0.0,0.0,0.0,0.0,0.0,0.0,0.0,0.0,0.0,0.0,0.0,0.0,-2.1634,-2.195,0.0,-2.1568,-2.1964,-2.2394,-2.2805,-2.3245,-2.3582,-2.3855,-2.4147,-2.429,-2.4098,-2.4436,-2.4514,-2.4358,-2.445,-2.4313,-2.4039,-2.4075,-2.3849,-2.3384,-2.3384,-2.3306,-2.3159,-2.3159,-2.3159,-2.3159,-2.3159,-2.3681,-2.4529,-2.4809,-2.5016,-2.5194,-2.4974,-2.5119,-2.5357,-2.5037,-2.5056,-2.4998,-2.3794,-2.3018,-2.2434,-2.1688,-2.1802,-2.2095,-2.1962,-2.2019,-2.2138,-2.1962,-2.1726,-2.1561,-2.1773,-2.1623,-2.1601,-2.2136,-2.2591,-2.3076,-2.3529,-2.3646,-2.3701,-2.3829,-2.4166,-2.4398,-2.4324,-2.4185,-2.3956,-2.3636,-2.3193,-2.2905,-2.2744,-2.2592,-2.2456,-2.2418,-2.2236,-2.2179,-2.2279,-2.2819,-2.3216,-2.3391,-2.3436,-2.3499,-2.3592,-2.265,-2.1955,0.0,0.0,0.0,0.0,0.0,0.0,0.0,0.0,0.0,0.0,0.0,0.0,0.0,0.0,0.0,0.0,0.0,0.0,0.0,0.0,0.0,0.0,0.0,0.0,0.0,-2.0703,-2.1317,-2.1751,-2.1911,-2.1851,-2.1487,-2.1974,-2.2463,-2.2787,-2.3298,-2.3702,-2.3975,-2.3985,-2.3985,-2.3985,-2.3985,-2.3928,-2.3787,-2.3701,-2.3464,-2.3038,-2.2931,-2.2713,-2.2394,-2.2394,-2.2394,-2.2394,-2.2394,-2.2394,-2.2394,-2.2394,-2.3139,-2.4293,-2.4862,-2.4919,-2.473,-2.5019,-2.4919,-2.473,-2.473,-2.4771,-2.4654,-2.3345,-2.2738,-2.2414,-2.1606,-2.1572,-2.1828,-2.1739,-2.1695,-2.1695,-2.1695,-2.1449,-2.1291,-2.1553,-2.1401,-2.1342,-2.1834,-2.2342,-2.2836,-2.34,-2.3833,-2.4002,-2.3701,-2.4104,-2.4394,-2.4146,-2.3577,-2.3184,-2.3184,-2.2377,-2.191,-2.2177,-2.2041,-2.1961,-2.2049,-2.1876,-2.1855,-2.2081,-2.2616,-2.3053,-2.3404,-2.3285,-2.3431,-2.3925,-2.2914,-2.241,-2.241,0.0,0.0,0.0,0.0,0.0,0.0,0.0,0.0,0.0,0.0,0.0,0.0,0.0,0.0,0.0,0.0,0.0,0.0,0.0,0.0,0.0,0.0,0.0,-1.9486,-2.1177,-2.2304,-2.2227,-2.238,-2.2212,-2.1274,-2.2685,-2.3309,-2.2609,-2.3987,-2.4826,-2.4826,-2.4835,-2.4835,-2.4826,-2.4826,-2.4627,-2.4221,-2.3815,-2.3399,-2.3019,-2.2558,-2.235,-2.235,-2.235,-2.235,-2.235,-2.235,-2.235,-2.235,-2.235,-2.235,-2.2394,-2.3178,-2.3038,-2.2492,-2.3178,-2.2994,-2.2394,-2.2394,-2.2555,-2.2662,-2.1926,-2.1847,-2.1919,-2.097,-2.0699,-2.0654,-2.0382,-2.0292,-2.0292,-2.0292,-2.0292,-2.0464,-2.1177,-2.1356,-2.1526,-2.2173,-2.235,-2.258,-2.3319,-2.398,-2.4454,-2.4497,-2.4497,-2.4497,-2.4497,-2.3764,0.0,-2.3184,-2.2377,-2.1959,-2.2327,-2.1924,-2.1758,-2.2136,-2.167,-2.1565,-2.2057,-2.2469,-2.2914,-2.3407,-2.2995,-2.2972,-2.3465,-2.343,-2.3419,-2.343,0.0,0.0,0.0,0.0,0.0,0.0,0.0,0.0,0.0,0.0,0.0,0.0,0.0,0.0,0.0,0.0,0.0,0.0,0.0,0.0,0.0,-1.9924,-2.068,-2.0856,-2.1136,-2.1478,-2.2009,-2.1652,-2.1371,-2.1349,-2.1527,-2.1687,-2.1739,-2.2395,-2.2823,-2.2823,-2.3079,-2.3105,-2.2832,-2.2823,-2.258,-2.2184,-2.1861,-2.1613,-2.1499,-2.1101,-2.0862,-2.0862,-2.0862,-2.0862,-2.0862,-2.0862,-2.0862,-2.0862,-2.0862,-2.0862,-2.0997,-2.2236,-2.258,-2.2438,-2.2624,-2.258,-2.2394,-2.2394,-2.2448,-2.2413,-2.1704,-2.1535,-2.1454,-2.0654,-2.0428,-2.0382,-2.0337,-2.0292,-2.0292,-2.0292,-2.0292,-2.0337,-2.0555,-2.06,-2.0645,-2.0817,-2.1302,-2.1748,-2.1935,-2.2501,-2.329,-2.4315,-2.4497,-2.4497,-2.4497,-2.3764,-2.3184,-2.3184,-2.2377,-2.1845,-2.1959,-2.2098,-2.2073,-2.1867,-2.1958,-2.2081,-2.2159,-2.2285,-2.2843,-2.3912,-2.3856,-2.4189,-2.5035,-2.3969,-2.3591,0.0,0.0,0.0,0.0,0.0,0.0,0.0,0.0,0.0,0.0,0.0,0.0,0.0,0.0,0.0,0.0,0.0,0.0,0.0,0.0,0.0,0.0,-2.084,-2.1525,-2.1841,-2.1576,-2.1508,-2.1944,-2.1465,-2.1122,-2.1182,-2.1131,-2.1122,-2.1182,-2.1687,-2.1927,-2.1764,-2.2107,-2.2141,-2.1764,-2.1756,-2.1567,-2.1191,-2.0985,-2.0797,-2.0634,-2.0403,-2.0292,-2.0292,-2.0292,-2.0292,-2.0292,-2.0292,-2.0292,-2.0292,-2.0292,-2.0292,0.0,0.0,0.0,0.0,0.0,-2.1516,-2.1516,-2.1516,-2.1615,-2.1615,-2.1221,-2.1177,-2.1132,-2.06,-2.0473,-2.0428,-2.0337,-2.0292,-2.0292,-2.0292,-2.0292,-2.0292,-2.0292,-2.0292,-2.0292,-2.0292,-2.0645,-2.1042,-2.1356,-2.1704,0.0,-2.342,-2.3604,-2.3744,-2.4013,-2.3305,-2.2849,-2.3143,-2.2533,-2.2063,-2.2063,-2.2402,-2.2547,-2.2267,-2.239,0.0,0.0,0.0,-2.347,-2.4464,-2.4717,0.0,0.0,0.0,0.0,0.0,0.0,0.0,0.0,-2.2747,-2.2696,0.0,0.0,0.0,0.0,0.0,0.0,0.0,0.0,0.0,0.0,0.0,0.0,0.0,0.0,0.0,0.0,-2.1516,-2.1756,-2.2448,-2.2216,-2.1944,-2.1996,-2.1619,-2.1225,-2.0908,-2.1122,-2.1156,-2.0831,-2.1473,-2.1722,-2.1362,-2.1722,0.0,0.0,0.0,-2.1174,-2.0814,-2.0814,-2.0643,-2.0292,-2.0292,-2.0292,-2.0292,-2.0292,-2.0292,-2.0292,-2.0292,-2.0292,-2.0292,-2.0292,-2.0292,-2.0382,-2.1006,-2.0871,-2.0292,-2.0292,-2.0292,-2.0292,-2.0292,0.0,0.0,-2.0654,-2.0781,-2.0907,-2.0699,-2.0654,-2.0609,-2.0382,-2.0292,-2.0292,-2.0292,-2.0292,-2.0292,-2.0292,-2.0292,-2.0292,-2.0292,-2.0292,-2.051,-2.1132,-2.1266,-2.1481,-2.205,-2.2306,-2.2624,-2.3276,-2.2611,-2.2276,-2.29,-2.2525,-2.2153,-2.2138,0.0,0.0,-2.2879,-2.2955,-2.3402,-2.4389,-2.4365,-2.4451,-2.4748,-2.5281,-2.5553,-2.5553,-2.5158,-2.4927,-2.4927,-2.3939,-2.3289,-2.289,-2.1632,-2.1724,0.0,0.0,0.0,0.0,0.0,0.0,0.0,0.0,0.0,0.0,0.0,0.0,0.0,0.0,0.0,-2.1773,-2.2182,-2.2319,-2.2124,-2.1764,-2.1645,-2.1961,-2.1396,-2.096,-2.0929,-2.0651,-2.048,-2.0412,-2.0831,-2.1062,-2.0985,-2.1328,-2.1362,-2.0994,-2.0985,-2.0797,-2.0412,-2.0403,-2.0369,-2.0292,-2.0292,0.0,-2.0292,-2.0292,-2.0292,-2.0292,-2.0292,-2.0292,-2.0292,-2.0292,-2.0292,-2.0292,-2.0464,-2.0428,-2.0292,-2.0292,-2.0292,-2.0292,-2.0292,-2.0337,-2.0382,-2.0382,-2.0374,-2.0428,-2.0382,-2.0382,0.0,-2.0292,-2.0292,-2.0292,-2.0292,-2.0292,-2.0292,-2.0292,-2.0292,-2.0292,-2.0292,-2.0292,-2.0337,-2.0473,-2.051,-2.0555,-2.069,-2.165,-2.2438,-2.258,-2.215,-2.1753,-2.1595,-2.1184,-2.073,-2.0411,-2.1221,-2.1918,-2.2258,-2.3403,-2.4269,-2.4751,-2.4893,-2.4628,-2.3965,-2.444,-2.4745,-2.4745,-2.4231,-2.395,-2.395,-2.2703,-2.2227,-2.2512,-2.2544,-2.2544,0.0,0.0,0.0,0.0,0.0,0.0,0.0,0.0,0.0,0.0,0.0,-2.0084,-2.046,0.0,-2.1593,-2.2175,-2.2474,-2.2465,-2.2047,-2.1662,-2.1413,-2.1439,-2.0934,-2.0583,-2.0583,-2.0412,-2.0292,-2.0292,-2.0823,-2.0977,-2.0609,-2.1105,-2.1156,-2.0609,-2.0583,-2.0489,-2.0292,-2.0292,-2.0292,-2.0292,-2.0292,-2.0292,-2.0292,-2.0292,-2.0292,-2.0292,-2.0292,-2.0292,-2.0292,-2.0292,-2.0292,-2.0292,-2.0292,-2.0292,-2.0292,-2.0292,-2.0292,-2.0337,-2.0473,-2.0428,-2.0337,-2.0473,-2.0428,-2.0292,-2.0292,-2.0292,-2.0292,-2.0292,-2.0292,-2.0292,-2.0292,-2.0292,-2.0292,-2.0292,-2.0292,-2.0292,-2.0292,-2.0292,-2.0292,-2.0292,-2.0292,-2.0292,-2.0292,-2.0862,-2.1472,-2.1828,-2.1477,-2.1274,-2.141,-2.1314,-2.1182,-2.0951,-2.1729,-2.2331,-2.2517,-2.3448,-2.4111,-2.4298,-2.4628,-2.4567,-2.4136,-2.4364,-2.4498,-2.4498,-2.3783,-2.3406,-2.3406,-2.226,-2.1815,-2.2032,-2.2246,-2.2255,0.0,0.0,0.0,0.0,0.0,0.0,0.0,-1.9033,-1.9333,-1.999,-2.0472,-2.0891,-2.1422,-2.1585,-2.1833,-2.25,-2.2594,-2.2439,-2.1944,-2.161,-2.1251,-2.0814,-2.048,-2.0292,-2.0292,-2.0292,-2.0292,-2.0292,-2.0925,-2.1037,-2.0437,-2.0977,-2.1028,-2.0429,-2.0335,-2.0292,-2.0292,-2.0292,-2.0292,-2.0292,-2.0292,-2.0292,-2.0292,-2.0292,-2.0292,-2.0292,-2.0292,-2.0292,-2.0292,-2.0292,-2.0292,-2.0292,-2.0292,-2.0292,-2.0292,-2.0292,-2.0292,-2.0337,-2.0564,-2.0473,-2.0337,-2.0564,-2.0473,-2.0292,-2.0292,-2.0292,-2.0292,-2.0292,-2.0292,-2.0292,-2.0292,-2.0292,-2.0292,-2.0292,-2.0292,-2.0292,-2.0292,-2.0292,-2.0292,-2.0292,-2.0337,-2.0382,-2.0292,-2.0382,-2.06,-2.1177,-2.0953,-2.0885,-2.1401,-2.1612,-2.1675,-2.1588,-2.2186,-2.2676,-2.3002,-2.3454,-2.3649,-2.3574,-2.3984,-2.4155,-2.3983,-2.3983,-2.3983,-2.3983,-2.3193,-2.2843,-2.2843,-2.2078,-2.1696,-2.1696,-2.1696,-2.1696,-1.8382,-1.8758,-1.9179,-1.9761,-1.9691,-1.9947,0.0,-2.155,-2.1216,-2.1653,-2.2038,-2.2268,-2.197,-2.2201,-2.25,-2.2585,-2.2594,-2.2345,-2.1576,-2.1439,-2.1148,-2.0446,-2.0317,-2.0292,-2.0292,-2.0292,-2.0292,-2.0292,-2.0694,-2.09,-2.0814,-2.0891,-2.09,-2.0814,-2.0472,-2.0292,-2.0292,-2.0292,-2.0292,-2.0292,-2.0292,-2.0292,-2.0292,-2.0292,-2.0292,-2.0292,-2.0292,-2.0292,-2.0292,-2.0292,-2.0292,-2.0292,-2.0292,-2.0292,-2.0292,-2.0292,-2.0292,-2.0292,-2.0337,-2.0337,-2.0292,-2.0337,-2.0337,-2.0292,-2.0292,-2.0292,-2.0292,-2.0292,-2.0292,-2.0292,-2.0292,-2.0292,-2.0292,-2.0292,-2.0292,-2.0292,-2.0292,-2.0292,-2.0292,-2.0292,-2.0473,-2.0564,-2.0337,-2.0645,-2.0907,-2.0781,-2.0754,-2.0686,-2.0658,-2.0665,-2.0537,-2.0168,-2.0671,-2.1598,-2.2974,-2.3462,-2.353,-2.3172,-2.324,-2.2887,-2.2043,-2.1989,-2.1989,-2.1989,-2.1909,-2.1865,-2.1865,-2.1731,-2.1696,-2.1696,-2.1696,-2.1696,-1.8768,-1.941,-1.9847,-1.9949,-2.0298,-2.0917,-2.1704,-2.1636,-2.1585,-2.2242,-2.2491,-2.2551,-2.2397,-2.2491,-2.2594,-2.2594,-2.2594,-2.2328,-2.1516,-2.1413,-2.1131,-2.0377,-2.0292,-2.0292,-2.0292,-2.0292,-2.0292,-2.0292,-2.066,-2.0883,-2.0883,-2.1079,-2.1088,-2.0929,-2.072,-2.0523,-2.0292,-2.0292,-2.0292,-2.0292,-2.0292,-2.0292,-2.0292,-2.0292,-2.0292,-2.0292,-2.0292,-2.0292,-2.0292,-2.0292,-2.0292,-2.0292,-2.0292,-2.0292,-2.0292,-2.0292,-2.0292,-2.0337,-2.0473,-2.0428,-2.0337,-2.0473,-2.0428,-2.0292,-2.0292,-2.0292,-2.0292,-2.0292,-2.0292,-2.0292,-2.0292,-2.0292,-2.0292,-2.0292,-2.0292,-2.0292,-2.0292,-2.0292,-2.0292,-2.0292,-2.0518,-2.0609,-2.0337,-2.06,-2.0826,-2.0871,-2.0862,-2.0854,-2.0784,-2.0918,-2.0988,-2.094,-2.1174,-2.1587,-2.2225,-2.2452,-2.2442,-2.2325,-2.229,-2.2122,-2.1741,-2.1696,-2.1696,-2.1696,-2.1696,-2.1696,-2.1696,-2.1696,-2.1696,-2.1696,-2.1696,-2.1696,-1.905,-1.9804,-2.0412,-2.0204,-2.0844,-2.1593,-2.1704,-2.1722,-2.1876,-2.2482,-2.2594,-2.2594,-2.2594,-2.2594,-2.2594,-2.2594,-2.2594,-2.2328,-2.1516,-2.1413,-2.1174,-2.0531,-2.0454,-2.0454,-2.0454,-2.036,-2.0335,-2.0446,-2.0805,-2.1071,-2.1182,-2.143,-2.1405,-2.1037,-2.0934,-2.0686,-2.0292,-2.0292,-2.0292,-2.0292,-2.0292,-2.0292,-2.0292,-2.0292,-2.0292,-2.0292,-2.0292,-2.0292,-2.0292,-2.0292,-2.0292,-2.0292,-2.0292,-2.0292,-2.0292,-2.0292,-2.0292,-2.0337,-2.0518,-2.0473,-2.0337,-2.0518,-2.0473,-2.0292,-2.0292,-2.0292,-2.0292,-2.0292,-2.0292,-2.0292,-2.0292,-2.0292,-2.0292,-2.0292,-2.0292,-2.0292,-2.0292,-2.0292,-2.0292,-2.0292,-2.0518,-2.0609,-2.0337,-2.0609,-2.0925,-2.0997,-2.1132,-2.1177,-2.1177,-2.1374,-2.1526,-2.1696,-2.1696,-2.1696,-2.1696,-2.1696,-2.1696,-2.1696,-2.1696,-2.1696,-2.1696,-2.1696,-2.1696,-2.1696,-2.1696,-2.1696,-2.1696,-2.1696,-2.1696,-2.1696,-2.1696,-2.1696,-1.9264,-2.0001,-2.0942,-2.1276,-2.167,-2.2073,-2.2482,-2.256,-2.2568,-2.2594,-2.2594,-2.2594,-2.2594,-2.2594,-2.2594,-2.2594,-2.2594,-2.2328,-2.1516,-2.1413,-2.1276,-2.09,-2.0857,-2.0857,-2.0857,-2.0514,-2.0446,-2.0831,-2.1191,-2.1559,-2.1944,-2.197,-2.1799,-2.1405,-2.1062,-2.0686,-2.0292,-2.0292,-2.0292,-2.0292,-2.0292,-2.0292,-2.0292,-2.0292,-2.0292,-2.0292,-2.0292,-2.0292,-2.0292,-2.0292,-2.0292,-2.0292,-2.0292,-2.0292,-2.0292,-2.0292,-2.0292,-2.0292,-2.0292,-2.0292,-2.0292,-2.0292,-2.0292,-2.0292,-2.0292,-2.0292,-2.0292,-2.0292,-2.0292,-2.0292,-2.0292,-2.0292,-2.0292,-2.0292,-2.0292,-2.0292,-2.0292,-2.0292,-2.0292,-2.0292,-2.0518,-2.0609,-2.0337,-2.0888,-2.1293,-2.1042,-2.141,-2.1696,-2.1696,-2.1696,-2.1687,-2.1696,-2.1696,-2.1696,-2.1696,-2.1696,-2.1696,-2.1696,-2.1696,-2.1696,-2.1696,-2.1696,-2.1696,-2.1696,-2.1696,-2.1696,-2.1696,-2.1696,-2.1696,-2.1696,-2.1696,-2.1696,-1.8852,-1.9683,-2.0583,-2.096,-2.1336,-2.1645,-2.1764,-2.1996,-2.2107,-2.1841,-2.2004,-2.2107,-2.1841,-2.2004,-2.2184,-2.2184,-2.2439,-2.2422,-2.1867,-2.1799,-2.1662,-2.1276,-2.1234,-2.1234,-2.1234,-2.09,-2.0737,-2.0874,-2.0994,-2.1328,-2.1961,-2.1996,-2.1936,-2.1799,-2.143,-2.1054,-2.0686,-2.042,-2.0292,-2.0292,-2.0292,-2.0292,-2.0292,-2.0292,-2.0292,-2.0292,-2.0292,-2.0292,-2.0292,-2.0292,-2.0292,-2.0292,-2.0292,-2.0428,-2.0564,-2.0564,-2.0645,-2.0736,-2.0609,-2.0564,-2.0564,-2.0564,-2.0564,-2.0518,-2.0337,-2.0292,-2.0292,-2.0292,-2.0292,-2.0292,-2.0292,-2.0292,-2.0292,-2.0292,-2.0292,-2.0292,-2.0292,-2.0428,-2.0564,-2.0564,-2.0888,-2.1069,-2.0826,-2.1105,-2.1347,-2.1293,-2.1517,-2.1696,-2.1696,-2.1696,-2.1696,-2.1696,-2.1696,-2.1696,-2.1696,-2.1696,-2.1696,-2.1696,-2.1696,-2.1696,-2.1696,-2.1696,-2.1696,-2.1696,-2.1696,-2.1696,-2.1696,-2.1696,-2.1696,-2.1696,-2.1696,-2.1696,-1.8125,-1.9122,-2.0067,-2.0442,-2.0948,-2.1413,-2.1413,-2.1602,-2.1713,-2.1465,-2.161,-2.1713,-2.1456,-2.173,-2.1996,-2.1996,-2.2354,-2.2465,-2.2047,-2.1996,-2.1901,-2.1653,-2.1619,-2.1619,-2.1619,-2.1413,-2.1276,-2.1276,-2.1276,-2.155,-2.2158,-2.2192,-2.2133,-2.2004,-2.1619,-2.1242,-2.0883,-2.0489,-2.0292,-2.0292,-2.0292,-2.0292,-2.0292,-2.0292,-2.0292,-2.0292,-2.0292,-2.0292,-2.0292,-2.0292,-2.0382,-2.0428,-2.0428,-2.0609,-2.0826,-2.0826,-2.0907,-2.0997,-2.0871,-2.0826,-2.0826,-2.0826,-2.0826,-2.0781,-2.06,-2.0555,-2.0555,-2.0555,-2.0555,-2.0555,-2.0555,-2.0555,-2.0555,-2.0555,-2.0555,-2.0555,-2.0555,-2.069,-2.0826,-2.0826,-2.106,-2.1195,-2.1042,-2.1239,-2.1437,-2.1482,-2.1607,-2.1696,-2.1696,-2.1696,-2.1696,-2.1696,-2.1696,-2.1696,-2.1696,-2.1696,-2.1696,-2.1696,-2.1696,-2.1696,-2.1696,-2.1696,-2.1696,-2.1696,-2.1696,-2.1696,-2.1696,-2.1696,-2.1696,-2.1696,-2.1696,-2.1696,-1.7162,-1.8238,-1.9383,-1.9693,-2.0513,-2.1249,-2.1249,-2.1323,-2.1379,-2.1353,-2.1371,-2.1379,-2.1353,-2.1704,-2.1996,-2.1996,-2.2371,-2.2508,-2.2107,-2.2038,-2.203,-2.203,-2.203,-2.203,-2.203,-2.203,-2.203,-2.203,-2.2004,-2.2158,-2.2577,-2.2594,-2.2439,-2.2038,-2.1627,-2.1251,-2.0908,-2.0497,-2.0292,-2.0292,-2.0292,-2.0292,-2.0337,-2.0292,-2.0292,-2.0337,-2.0292,-2.0292,-2.0292,-2.0292,-2.0473,-2.0699,-2.0699,-2.0826,-2.1042,-2.1042,-2.1042,-2.1042,-2.1042,-2.1042,-2.1042,-2.1042,-2.1042,-2.0997,-2.0997,-2.0997,-2.0997,-2.0997,-2.0997,-2.0997,-2.0997,-2.0997,-2.0997,-2.0997,-2.0997,-2.0997,-2.0997,-2.0997,-2.1042,-2.1042,-2.1042,-2.1042,-2.1042,-2.1239,-2.1482,-2.1651,-2.1696,-2.1696,-2.1696,-2.1696,-2.1696,-2.1696,-2.1696,-2.1696,-2.1696,-2.1696,-2.1696,-2.1696,-2.1696,-2.1696,-2.1696,-2.1696,-2.1696,-2.1696,-2.1696,-2.1696,-2.1696,-2.1696,-2.1696,-2.1696,-2.1696,-2.1696,-1.6149,-1.6979,-1.7866,-1.7948,-1.8723,-1.9477,-1.9477,-2.0275,-2.0934,-2.0634,-2.0805,-2.0925,-2.0634,-2.1353,-2.1996,-2.1996,-2.2544,-2.2937,-2.2843,-2.2586,-2.2457,-2.2457,-2.2457,-2.2457,-2.2457,-2.2457,-2.2457,-2.2457,-2.215,-2.2158,-2.2577,-2.2594,-2.2551,-2.2465,-2.1756,-2.1362,-2.1276,-2.0626,-2.0292,-2.0292,-2.0292,-2.0382,-2.0609,-2.0382,-2.0428,-2.0609,-2.0382,-2.0292,-2.0337,-2.0518,-2.0654,-2.0699,-2.0871,-2.1105,-2.1293,-2.1293,-2.1374,-2.1508,-2.1508,-2.1419,-2.1293,-2.1293,-2.1293,-2.1248,-2.1042,-2.0997,-2.0997,-2.0997,-2.0997,-2.0997,-2.0997,-2.0997,-2.0997,-2.0997,-2.0997,-2.0997,-2.0997,-2.115,-2.1293,-2.1293,-2.1419,-2.1508,-2.1508,-2.1597,-2.1651,-2.1696,-2.1696,-2.1696,-2.1696,-2.1696,-2.1696,-2.1696,-2.1696,-2.1696,-2.1696,-2.1696,-2.1696,-2.1696,-2.1696,-2.1696,-2.1696,-2.1696,-2.1696,-2.1696,-2.1696,-2.1696,-2.1696,-2.1696,-2.1696,-2.1696,-2.1696,-2.1696,-1.5108,-1.5893,-1.664,-1.664,-1.7716,-1.8788,-1.8788,-1.9749,-2.0557,-2.0335,-2.0472,-2.0557,-2.0335,-2.1225,-2.1996,-2.1996,-2.2766,-2.3297,-2.3134,-2.2929,-2.2783,-2.262,-2.2594,-2.2594,-2.2594,-2.2594,-2.2594,-2.2594,-2.2405,-2.2379,-2.2585,-2.2594,-2.2594,-2.2594,-2.1978,-2.1508,-2.1174,-2.0591,-2.0292,-2.0292,-2.0292,-2.0428,-2.0699,-2.0428,-2.0428,-2.0699,-2.0428,-2.0382,-2.0473,-2.0654,-2.0835,-2.1024,-2.115,-2.1338,-2.1517,-2.1517,-2.1607,-2.1696,-2.1696,-2.1607,-2.1517,-2.1517,-2.1517,-2.1517,-2.1365,-2.132,-2.132,-2.132,-2.132,-2.132,-2.132,-2.132,-2.132,-2.132,-2.132,-2.132,-2.132,-2.1419,-2.1517,-2.1517,-2.1607,-2.1696,-2.1696,-2.1696,-2.1696,-2.1696,-2.1696,-2.1696,-2.1696,-2.1696,-2.1696,-2.1696,-2.1696,-2.1696,-2.1696,-2.1696,-2.1696,-2.1696,-2.1696,-2.1696,-2.1696,-2.1696,-2.1696,-2.1696,-2.1696,-2.1696,-2.1696,-2.1696,-2.1696,-2.1696,-2.1696,-2.1696,-1.4238,-1.4956,-1.5609,-1.5609,-1.7008,-1.8419,-1.8557,-1.9401,-2.0147,-2.0292,-2.0292,-2.0292,-2.0292,-2.1182,-2.1953,-2.2055,-2.2929,-2.3502,-2.3228,-2.3186,-2.3049,-2.2714,-2.2671,-2.2671,-2.2671,-2.2628,-2.2594,-2.2594,-2.2594,-2.2594,-2.2594,-2.2594,-2.2577,-2.2525,-2.2158,-2.1636,-2.0891,-2.054,-2.0343,-2.0292,-2.0292,-2.0428,-2.0699,-2.0428,-2.0428,-2.0699,-2.0473,-2.0473,-2.0699,-2.0789,-2.1024,-2.1392,-2.1437,-2.1571,-2.1696,-2.1696,-2.1696,-2.1696,-2.1696,-2.1696,-2.1696,-2.1696,-2.1696,-2.1696,-2.1696,-2.1696,-2.1696,-2.1696,-2.1696,-2.1696,-2.1696,-2.1696,-2.1696,-2.1696,-2.1696,-2.1696,-2.1696,-2.1696,-2.1696,-2.1696,-2.1696,-2.1696,-2.1696,-2.1696,-2.1696,-2.1696,-2.1696,-2.1696,-2.1696,-2.1696,-2.1696,-2.1696,-2.1696,-2.1696,-2.1696,-2.1696,-2.1696,-2.1696,-2.1696,-2.1696,-2.1696,-2.1696,-2.1696,-2.1696,-2.1696,-2.1696,-2.1696,-2.1696,-2.1696,-2.1696,-2.1696,-2.1696,-1.4286,-1.4436,-1.458,-1.458,-1.5466,-1.6546,-1.739,-1.8319,-1.9309,-2.0147,-2.0292,-2.0292,-2.0292,-2.096,-2.1722,-2.2397,-2.2877,-2.3306,-2.3562,-2.358,-2.3434,-2.3057,-2.3014,-2.3014,-2.3014,-2.2783,-2.2594,-2.2594,-2.2594,-2.2594,-2.2594,-2.2594,-2.2457,-2.2098,-2.203,-2.1636,-2.0891,-2.0814,-2.0617,-2.0292,-2.0292,-2.0428,-2.0699,-2.0428,-2.0428,-2.0699,-2.0654,0.0,-2.0744,-2.1114,-2.1347,-2.1446,-2.1562,-2.1651,-2.1696,-2.1696,-2.1696,-2.1696,-2.1696,-2.1696,-2.1696,-2.1696,-2.1696,-2.1696,-2.1696,-2.1696,-2.1696,-2.1696,-2.1696,-2.1696,-2.1696,-2.1696,-2.1696,-2.1696,-2.1696,-2.1696,-2.1696,-2.1696,-2.1696,-2.1696,-2.1696,-2.1696,-2.1696,-2.1696,-2.1696,-2.1696,-2.1696,-2.1696,-2.1696,-2.1696,-2.1696,-2.1696,-2.1696,-2.1696,-2.1696,-2.1696,-2.1696,-2.1696,-2.1696,-2.1696,-2.1696,-2.1696,-2.1696,-2.1696,-2.1696,-2.1696,-2.1696,-2.1696,-2.1696,-2.1696,-2.1696,-2.1696,-1.4298,-1.4298,-1.4298,-1.4298,-1.5051,-1.6075,-1.7055,-1.8087,-1.9072,-2.0102,-2.0292,-2.0232,-2.0043,-2.0771,-2.1525,-2.1893,-2.2603,-2.3177,-2.3374,-2.3554,-2.3528,-2.316,-2.3297,-2.334,-2.3134,-2.2946,-2.2808,-2.2611,-2.2594,-2.2594,-2.2594,-2.2594,-2.2517,-2.2337,-2.1901,-2.1516,-2.1156,-2.0771,-2.048,-2.0292,-2.0292,-2.0428,-2.0699,-2.0428,-2.0428,-2.0699,-2.0699,-2.0736,-2.0871,-2.1248,-2.1482,-2.1571,-2.1651,-2.1696,-2.1696,-2.1696,-2.1696,-2.1696,-2.1696,-2.1696,-2.1696,-2.1696,-2.1696,-2.1696,-2.1696,-2.1696,-2.1696,-2.1696,-2.1696,-2.1696,-2.1696,-2.1696,-2.1696,-2.1696,-2.1696,-2.1696,-2.1696,-2.1696,-2.1696,-2.1696,-2.1696,-2.1696,-2.1696,-2.1696,-2.1696,-2.1696,-2.1696,-2.1696,-2.1696,-2.1696,-2.1696,-2.1696,-2.1696,-2.1696,-2.1696,-2.1696,-2.1696,-2.1696,-2.1696,-2.1696,-2.1696,-2.1696,-2.1696,-2.1696,-2.1696,-2.1696,-2.1696,-2.1696,-2.1696,-2.1696,-2.1696,-2.1454,-1.4346,-1.4436,-1.458,-1.4346,-1.4908,-1.5798,-1.7016,-1.7902,-1.8842,-2.0056,-2.0292,-2.018,-1.9768,-2.0477,-2.1225,-2.1388,-2.2295,-2.3023,-2.3109,-2.3571,-2.3742,-2.3297,-2.358,-2.3665,-2.3271,-2.316,-2.2954,-2.2628,-2.2594,-2.2594,-2.2594,-2.2594,-2.2594,-2.2594,-2.1884,-2.149,-2.1413,-2.0746,-2.0377,-2.0292,-2.0292,-2.0428,-2.0609,-2.0382,-2.0428,-2.0609,-2.0736,-2.0871,-2.1042,-2.1338,-2.1571,-2.1696,-2.1696,-2.1696,-2.1696,-2.1696,-2.1696,-2.1696,-2.1696,-2.1696,-2.1696,-2.1696,-2.1696,-2.1696,-2.1696,-2.1696,-2.1696,-2.1696,-2.1696,-2.1696,-2.1696,-2.1696,-2.1696,-2.1696,-2.1696,-2.1696,-2.1696,-2.1696,-2.1696,-2.1696,-2.1696,-2.1696,-2.1696,-2.1696,-2.1696,-2.1696,-2.1696,-2.1696,-2.1696,-2.1696,-2.1696,-2.1696,-2.1696,-2.1696,-2.1696,-2.1696,-2.1696,-2.1696,-2.1696,-2.1696,-2.1696,-2.1696,-2.1696,-2.1696,-2.1696,-2.1696,-2.1696,-2.1696,-2.1696,-2.1696,-2.1508,-2.0997,-1.4532,-1.4956,-1.5419,-1.4532,-1.4388,-1.4956,-1.6875,-1.739,-1.7994,-1.9911,-2.0292,-2.018,-1.9768,-2.0103,-2.0617,-2.1293,-2.2081,-2.2774,-2.3066,-2.4033,-2.4444,-2.3734,-2.3965,-2.4033,-2.3701,-2.3306,-2.2954,-2.2628,-2.2594,-2.2594,-2.2594,-2.2594,-2.2594,-2.2594,-2.215,-2.1773,-2.1413,-2.102,-2.0643,-2.0292,-2.0292,-2.0292,-2.0337,-2.0292,-2.0292,-2.0382,-2.0772,-2.0997,0.0,-2.1508,-2.1696,-2.1696,-2.1696,-2.1696,-2.1696,-2.1696,-2.1696,-2.1696,-2.1696,-2.1696,-2.1696,-2.1696,-2.1696,-2.1696,-2.1696,-2.1696,-2.1696,-2.1696,-2.1696,-2.1696,-2.1696,-2.1696,-2.1696,-2.1696,-2.1696,-2.1696,-2.1696,-2.1696,-2.1696,-2.1696,-2.1696,-2.1696,-2.1696,-2.1696,-2.1696,-2.1696,-2.1696,-2.1696,-2.1696,-2.1696,-2.1696,-2.1696,-2.1696,-2.1696,-2.1696,-2.1696,-2.1696,-2.1696,-2.1696,-2.1696,-2.1696,-2.1696,-2.1696,-2.1696,-2.1696,-2.1696,-2.1696,-2.1696,-2.1696,-2.1696,-2.0808,-2.0385,-1.458,-1.5051,-1.5561,-1.4532,-1.4298,-1.4813,-1.6821,-1.7296,-1.7855,-1.9874,-2.0292,-2.018,-1.9768,-2.0043,-2.0472,-2.1002,-2.1525,-2.2073,-2.2689,-2.3554,-2.4016,-2.3717,-2.4213,-2.4436,-2.4042,-2.3682,-2.3211,-2.2645,-2.2594,-2.2594,-2.2594,-2.2594,-2.2594,-2.2594,-2.1953,-2.1567,-2.1413,-2.0823,-2.0446,-2.0292,-2.0292,-2.0292,-2.0292,-2.0292,-2.0382,-2.0564,-2.0862,-2.1096,0.0,-2.1562,-2.1696,-2.1696,-2.1696,-2.1696,-2.1696,-2.1696,-2.1696,-2.1696,-2.1696,-2.1696,-2.1696,-2.1696,-2.1696,-2.1696,-2.1696,-2.1696,-2.1696,-2.1696,-2.1696,-2.1696,-2.1696,-2.1696,-2.1696,-2.1696,-2.1696,-2.1696,-2.1696,-2.1696,-2.1696,-2.1696,-2.1696,-2.1696,-2.1696,-2.1696,-2.1696,-2.1696,-2.1696,-2.1696,-2.1696,-2.1696,-2.1696,-2.1696,-2.1696,-2.1696,-2.1696,-2.1696,-2.1696,-2.1696,-2.1696,-2.1696,-2.1696,-2.1696,-2.1696,-2.1696,-2.1696,-2.1482,-2.1105,-2.1105,-2.0896,-2.0512,-2.0126,-1.954,-1.5092,-1.5466,-1.594,-1.4627,-1.4298,-1.4813,-1.6821,-1.7296,-1.7855,-1.9874,-2.0292,-2.018,-1.9768,-2.0138,-2.0557,-2.0831,-2.1362,-2.197,-2.2671,-2.3357,-2.3828,-2.3828,-2.4419,-2.4667,-2.4219,-2.3811,-2.3254,-2.2645,-2.2594,-2.2594,-2.2594,-2.2594,-2.2594,-2.2594,-2.1919,-2.1585,-2.1585,-2.084,-2.0509,-2.0546,-2.0389,-2.0337,-2.0428,-2.0428,-2.0518,-2.0699,-2.1006,-2.1239,0.0,-2.1607,-2.1696,-2.1696,-2.1696,-2.1696,-2.1696,-2.1696,-2.1696,-2.1696,-2.1696,-2.1696,-2.1696,-2.1696,-2.1696,-2.1696,-2.1696,-2.1696,-2.1696,-2.1696,-2.1696,-2.1696,-2.1696,-2.1696,-2.1696,-2.1696,-2.1696,-2.1696,-2.1696,-2.1696,-2.1696,-2.1696,-2.1696,-2.1696,-2.1696,-2.1696,-2.1696,-2.1696,-2.1696,-2.1696,-2.1696,-2.1696,-2.1696,-2.1696,-2.1696,-2.1696,-2.1696,-2.1696,-2.1696,-2.1696,-2.1696,-2.1696,-2.1696,-2.1696,-2.1696,-2.1696,-2.1527,-2.1153,-2.0712,-2.0495,-2.0156,-1.9683,-1.9398,-1.8641,-1.6311,-1.6499,-1.6781,-1.4813,-1.4298,-1.4813,-1.6821,-1.7296,-1.7855,-1.9874,-2.0292,-2.018,-1.9768,-2.036,-2.0921,-2.0883,-2.1856,-2.2723,-2.3057,-2.3759,-2.4176,-2.4176,-2.4526,-2.4667,-2.4219,-2.3554,-2.2963,-2.2628,-2.2594,-2.2594,-2.2594,-2.2594,-2.2594,-2.2594,-2.2184,-2.1996,-2.1996,-2.1251,-2.1005,-2.1174,-2.0609,-2.0428,-2.0699,-2.0699,-2.0699,-2.0744,-2.1212,-2.1392,0.0,-2.1607,-2.1696,-2.1696,-2.1696,-2.1696,-2.1696,-2.1696,-2.1696,-2.1696,-2.1696,-2.1696,-2.1696,-2.1696,-2.1696,-2.1696,-2.1696,-2.1696,-2.1696,-2.1696,-2.1696,-2.1696,-2.1696,-2.1696,-2.1696,-2.1696,-2.1696,-2.1696,-2.1696,-2.1696,-2.1696,-2.1696,-2.1696,-2.1696,-2.1696,-2.1696,-2.1696,-2.1696,-2.1696,-2.1696,-2.1696,-2.1696,-2.1696,-2.1696,-2.1696,-2.1696,-2.1696,-2.1696,-2.1696,-2.1696,-2.1696,-2.1696,-2.1696,-2.1696,-2.1696,-2.1696,-2.104,-2.0704,-2.0712,-2.0038,-1.9731,-1.9683,-1.8671,-1.769,-1.7203,-1.7576,-1.7941,-1.6334,-1.6166,-1.6631,-1.7667,-1.8118,-1.8696,-2.0011,-2.0292,-2.0343,-2.0489,-2.072,-2.1178,-2.1942,-2.2362,-2.2731,-2.3066,-2.399,-2.4444,-2.3931,-2.4436,-2.4564,-2.3905,-2.3631,-2.328,-2.2645,-2.2594,-2.2594,-2.2594,-2.2594,-2.2594,-2.2594,-2.2184,-2.1996,-2.1996,-2.1499,-2.1208,-2.1183,-2.0885,-2.0686,-2.0699,-2.0518,-2.06,-2.0907,-2.1051,-2.1329,-2.1607,-2.1651,-2.1696,-2.1696,-2.1696,-2.1696,-2.1696,-2.1696,-2.1696,-2.1696,-2.1696,-2.1696,-2.1696,-2.1696,-2.1696,-2.1696,-2.1696,-2.1696,-2.1696,-2.1696,-2.1696,-2.1696,-2.1696,-2.1696,-2.1696,-2.1696,-2.1696,-2.1696,-2.1696,-2.1696,-2.1696,-2.1696,-2.1696,-2.1696,-2.1696,-2.1696,-2.1696,-2.1696,-2.1696,-2.1696,-2.1696,-2.1696,-2.1696,-2.1696,-2.1696,-2.1696,-2.1696,-2.1696,-2.1696,-2.1696,-2.1696,-2.1815,-2.208,-2.2089,-2.2227,-2.2519,-2.1581,-2.0889,-2.0394,-1.9437,-1.8716,-1.8262,-1.7759,-1.7364,-1.8103,-1.8233,-1.8268,-1.7008,-1.6883,-1.7254,-1.8012,-1.8504,-1.9072,-2.0102,-2.0412,-2.0591,-2.0831,-2.1114,-2.1525,-2.2276,-2.2628,-2.2886,-2.3271,-2.4187,-2.4701,-2.4367,-2.4487,-2.435,-2.3742,-2.3545,-2.3255,-2.2645,-2.2594,-2.2594,-2.2594,-2.2594,-2.2594,-2.2594,-2.2371,-2.221,-2.221,-2.1824,-2.1604,-2.1609,-2.1152,-2.0893,-2.0872,-2.0579,-2.0645,-2.0997,-2.1096,-2.1374,0.0,-2.1696,-2.1696,-2.1696,-2.1696,-2.1696,-2.1696,-2.1696,-2.1696,-2.1696,-2.1696,-2.1696,-2.1696,-2.1696,-2.1696,-2.1696,-2.1696,-2.1696,-2.1696,-2.1696,-2.1696,-2.1696,-2.1696,-2.1696,-2.1696,-2.1696,-2.1696,-2.1696,-2.1696,-2.1696,-2.1696,-2.1696,-2.1696,-2.1696,-2.1696,-2.1696,-2.1696,-2.1696,-2.1696,-2.1696,-2.1696,-2.1696,-2.1696,-2.1696,-2.1696,-2.1696,-2.1696,-2.1696,-2.1696,-2.1696,-2.1833,-2.2025,-2.2272,-2.2428,-2.2638,-2.2904,-2.1581,-2.072,-2.0287,-1.892,-1.8019,-1.7582,-1.7454,-1.7367,0.0,-1.8587,-1.8131,-1.7153,-1.6934,-1.7175,-1.8108,-1.864,0.0,-2.0135,-2.0626,-2.09,-2.1032,-2.155,-2.2021,-2.2107,-2.2681,-2.3237,-2.358,-2.4264,-2.4898,-2.5374,-2.4701,-2.4093,-2.3734,-2.3348,-2.2954,-2.2628,-2.2594,-2.2594,-2.2594,-2.2594,-2.2594,-2.2594,-2.2594,-2.2594,-2.2594,-2.221,-2.2111,-2.2313,-2.138,-2.1074,-2.1209,-2.0898,-2.086,-2.1077,-2.1329,-2.1563,-2.1778,-2.1742,-2.1733,-2.1733,-2.1705,-2.1696,-2.1696,-2.1696,-2.1696,-2.1696,-2.1696,-2.1696,-2.1696,-2.1696,-2.1696,-2.1696,-2.1696,-2.1696,-2.1696,-2.1696,-2.1696,-2.1696,-2.1696,-2.1696,-2.1696,-2.1696,-2.1696,-2.1696,-2.1696,-2.1696,-2.1696,-2.1696,-2.1696,-2.1696,-2.1696,-2.1696,-2.1696,-2.1696,-2.1696,-2.1696,-2.1696,-2.1696,-2.1696,-2.1696,-2.1696,-2.1696,-2.1696,-2.1696,-2.1696,-2.1696,-2.2034,-2.2263,-2.2318,-2.2693,-2.2931,-2.2986,-2.1261,-2.0277,-2.0077,-1.8417,-1.7582,-1.7582,-1.7582,-1.7582,-1.9451,0.0,-1.9681,-1.9128,-1.9216,-1.9438,0.0,-1.9659,-2.0095,-2.0631,-2.0814,-2.1187,-2.2045,-2.2073,-2.2278,-2.3134,-2.3186,-2.3143,-2.3228,-2.3648,-2.4344,-2.5314,-2.4701,-2.4085,-2.3708,-2.3331,-2.2954,-2.2628,-2.2594,-2.2594,-2.2594,-2.2594,-2.2594,-2.2594,-2.2594,-2.2594,-2.2594,-2.2508,-2.2419,-2.2322,-2.1913,-2.1721,-2.1656,-2.1371,-2.147,-2.1939,-2.1995,-2.2238,-2.2593,-2.2272,-2.2144,-2.2117,-2.1806,-2.1696,-2.1696,-2.1696,-2.1696,-2.1696,-2.1696,-2.1696,-2.1696,-2.1696,-2.1696,-2.1696,-2.1696,-2.1696,-2.1696,-2.1696,-2.1696,-2.1696,-2.1696,-2.1696,-2.1696,-2.1696,-2.1696,-2.1696,-2.1696,-2.1696,-2.1696,-2.1696,-2.1696,-2.1696,-2.1696,-2.1696,-2.1696,-2.1696,-2.1696,-2.1696,-2.1696,-2.1696,-2.1696,-2.1696,-2.1696,-2.1696,-2.1696,-2.1696,-2.1696,-2.1696,-2.1778,-2.2108,-2.273,-2.2858,-2.3197,-2.3859,-2.1829,-1.9933,-1.8244,-1.7804,-1.7582,-1.7582,-1.7582,-1.7582,-1.9376,-1.9752,-2.0035,-2.0001,-2.0146,-2.024,-2.0043,-2.0146,-2.0215,-1.9995,-2.0593,-2.1016,-2.0702,-2.1678,-2.2283,-2.1752,-2.2584,-2.3502,-2.3853,-2.2975,-2.2818,-2.4199,-2.3147,-2.2463,-2.2645,-2.2333,-2.2239,-2.2561,-2.2594,-2.2594,-2.2594,-2.2594,-2.2594,-2.2594,-2.2594,-2.2594,-2.2594,-2.2594,-2.2541,-2.2434,-2.2122,-2.1982,-2.1864,-2.1682,-2.1796,-2.2224,-2.231,-2.2564,-2.2895,-2.2666,-2.2565,-2.2529,-2.2117,-2.1961,-2.1934,-2.176,-2.1696,-2.1696,-2.1696,-2.1696,-2.1696,-2.1696,-2.1696,-2.1696,-2.1696,-2.1696,-2.1696,-2.1696,-2.1696,-2.1696,-2.1696,-2.1696,-2.1696,-2.1696,-2.1696,-2.1696,-2.1696,-2.1696,-2.1696,-2.1696,-2.1696,-2.1696,-2.1696,-2.1696,-2.1696,-2.1696,-2.1696,-2.1696,-2.1696,-2.1696,-2.1696,-2.1696,-2.1696,-2.1696,-2.1696,-2.1696,-2.1696,-2.1696,-2.1861,-2.2163,-2.2602,-2.2977,-2.3018,-2.271,-2.0979,-1.9287,-1.7582,-1.7582,-1.7582,-1.7582,-1.7582,-1.7582,-1.9127,-1.945,-1.9681,-2.011,-2.0158,-2.0102,-2.0056,-1.992,-1.9633,-1.8948,-1.994,-2.0508,-1.8882,-2.0794,-2.1892,-1.9806,-2.1724,-2.3693,-2.4441,-2.2442,-2.142,-2.2615,-2.1216,-2.0455,-2.1194,-2.104,-2.1302,-2.2283,-2.2493,-2.2594,-2.2594,-2.2594,-2.2594,-2.2594,-2.2594,-2.2594,-2.2594,-2.2594,-2.2594,-2.2594,-2.2227,-2.2081,-2.2073,-2.2021,-2.2114,-2.2402,-2.2688,0.0,-2.3087,-2.3023,-2.2995,-2.295,-2.2465,-2.2282,-2.2227,-2.1833,-2.1696,-2.1696,-2.1696,-2.1696,-2.1696,-2.1696,-2.1696,-2.1696,-2.1696,-2.1696,-2.1696,-2.1696,-2.1696,-2.1696,-2.1696,-2.1696,-2.1696,-2.1696,-2.1696,-2.1696,-2.1696,-2.1696,-2.1696,-2.1696,-2.1696,-2.1696,-2.1696,-2.1696,-2.1696,-2.1696,-2.1696,-2.1696,-2.1696,-2.1696,-2.1696,-2.1696,-2.1696,-2.1696,-2.1696,-2.1696,-2.1696,-2.1696,-2.2007,-2.2199,-2.2134,-2.2849,-2.2429,-2.0664,-1.9694,-1.8662,-1.7582,-1.7582,-1.7582,-1.7582,-1.7582,-1.7582,-1.9332,-1.9369,-1.922,-1.9698,-1.9467,-1.9142,-1.8896,-1.828,-1.7948,-1.8597,-1.895,-1.9278,-1.9801,-2.0005,-2.0275,-2.0672,-2.1708,-2.2624,-2.3207,-2.2609,-2.1899,-2.1167,-2.0523,-2.0178,-2.0052,-2.0566,-2.0987,-2.114,-2.2072,-2.2594,-2.2594,-2.2594,-2.2594,-2.2594,-2.2594,-2.2594,-2.2594,-2.2594,-2.2594,-2.2594,-2.2542,-2.2508,-2.2508,-2.2698,-2.2971,-2.3219,0.0,-2.3772,-2.399,-2.3544,-2.3407,-2.3325,-2.2574,-2.2282,-2.2227,-2.1833,-2.1696,-2.1696,-2.1696,-2.1696,-2.1696,-2.1696,-2.1696,-2.1696,-2.1696,-2.1696,-2.1696,-2.1696,-2.1696,-2.1696,-2.1696,-2.1696,-2.1696,-2.1696,-2.1696,-2.1696,-2.1696,-2.1696,-2.1696,-2.1696,-2.1696,-2.1696,-2.1696,-2.1696,-2.1696,-2.1696,-2.1696,-2.1696,-2.1696,-2.1696,-2.1696,-2.1696,-2.1696,-2.1696,-2.1696,-2.1696,-2.1696,-2.1696,-2.1751,-2.1707,-2.1466,-2.1916,-2.1312,-1.948,-1.928,-1.8662,-1.7582,-1.7582,-1.7582,-1.7582,-1.7582,-1.7582,-1.9179,-1.9011,-1.868,-1.9196,-1.9303,-1.9219,-1.8924,-1.8484,-1.811,-1.8035,-1.8577,-1.8931,-1.8238,-1.9087,-2.0066,-2.0504,-1.9928,-1.9991,-2.1492,-2.0332,-1.9355,-1.9514,-1.8645,-1.8252,-1.8586,-1.8905,-1.9598,-2.0834,-2.0834,-2.1038,-2.1658,-2.1666,-2.1666,-2.1666,-2.2283,-2.2594,-2.2594,-2.2594,-2.2594,-2.2594,-2.2594,-2.2695,-2.2846,-2.3097,-2.3347,-2.3646,0.0,-2.4102,-2.4183,-2.395,-2.3868,-2.3813,-2.3169,-2.2803,-2.2547,-2.1925,-2.1696,-2.1696,-2.1696,-2.1696,-2.1696,-2.1696,-2.1696,-2.1696,-2.1696,-2.1696,-2.1696,-2.1696,-2.1696,-2.1696,-2.1696,-2.1696,-2.1696,-2.1696,-2.1851,-2.2007,-2.2007,-2.219,-2.2346,-2.2346,-2.2346,-2.2346,-2.2346,-2.2346,-2.2272,-2.2044,-2.2007,-2.1934,-2.1723,-2.1696,-2.1696,-2.1696,-2.1696,-2.1696,-2.1696,-2.1696,-2.1696,-2.1696,-2.1888,-2.1804,-2.1323,-2.1145,-2.0453,-1.922,-1.861,-1.8094,-1.7582,-1.7582,-1.7582,-1.7582,-1.7582,-1.7582,-1.9076,-1.8567,-1.7985,-1.8573,-1.8664,-1.8588,-1.8579,-1.8166,-1.7685,-1.7141,-1.7902,-1.8211,-1.6679,-1.8128,-1.9653,-1.9979,-1.8675,-1.8256,-2.0111,-1.8513,-1.7403,-1.7909,-1.6997,-1.6555,-1.7133,-1.7424,-1.8304,-2.0004,-1.9539,-1.9591,-2.0467,-2.0518,-2.0518,-2.0518,-2.1607,-2.2182,-2.2182,-2.2493,-2.2594,-2.2594,-2.2594,-2.2695,-2.2896,-2.3247,-2.3497,-2.3705,-2.4053,-2.4202,-2.4202,-2.4202,-2.4202,-2.4165,-2.3703,-2.3197,-2.2675,-2.1952,-2.1696,-2.1696,-2.1696,-2.1696,-2.1696,-2.1696,-2.1696,-2.1696,-2.1696,-2.1696,-2.1696,-2.1696,-2.176,-2.1833,-2.1833,-2.176,-2.1742,-2.1934,-2.2135,-2.2355,-2.24,-2.2684,-2.2904,-2.2904,-2.2904,-2.2904,-2.2904,-2.2904,-2.2794,-2.2474,-2.2428,-2.2318,-2.2016,-2.1888,-2.1833,-2.1833,-2.1751,-2.1733,-2.1824,-2.1833,-2.187,-2.197,-2.2163,-2.1935,-2.1105,-2.0548,-1.9849,-1.8864,-1.7996,-1.7582,-1.7582,-1.7582,-1.7582,-1.7582,-1.7582,-1.7582,-1.9358,-1.8211,-1.6928,-1.7776,-1.6935,-1.6069,-1.6813,-1.5732,-1.4887,-1.5838,-1.6117,-1.6282,-1.6635,-1.7252,-1.8112,-1.9374,-1.933,-1.9234,-1.9516,-1.9095,-1.8153,-1.6637,-1.6344,-1.6229,-1.6022,-1.7001,-1.7687,-1.7838,-1.8662,-1.9228,-1.9332,-1.9332,-1.9332,-1.9332,-2.0416,-2.1038,-2.1038,-2.208,-2.2594,-2.2594,-2.2594,-2.2594,-2.2644,-2.3147,-2.3397,-2.3447,-2.4003,-2.4202,-2.4202,-2.4202,-2.4202,-2.4165,-2.3703,-2.3014,-2.2272,-2.1851,-2.1696,-2.1696,-2.1696,-2.1696,-2.1696,-2.1696,-2.1696,-2.1696,-2.1696,-2.1696,-2.1696,-2.1696,-2.1952,-2.2282,-2.2282,-2.1961,-2.1879,-2.2638,-2.2538,-2.2382,-2.2776,-2.2885,-2.2904,-2.2904,-2.2904,-2.2904,-2.2904,-2.2904,-2.2895,-2.2867,-2.2858,-2.2849,-2.2821,-2.2474,-2.2282,-2.2282,-2.1906,-2.1842,-2.2254,-2.2282,-2.24,-2.2794,-2.2474,-2.1714,-2.0422,-2.0329,-1.9494,-1.7733,-1.7635,-1.7582,-1.7582,-1.7582,-1.7582,-1.7582,-1.7582,-1.7582,-1.7367,-1.6806,-1.6197,-1.7096,-1.6157,-1.5223,-1.5838,-1.5912,-1.5903,-1.6308,-1.6392,-1.6404,-1.6435,-1.7147,-1.7679,-1.756,-1.7887,-1.8056,-1.7824,-1.7478,-1.7054,-1.6357,-1.6139,-1.6,-1.5897,-1.6311,-1.6765,-1.7308,-1.7087,-1.7163,-1.7682,-1.7726,-1.8064,-1.8928,-2.0054,-2.1075,-2.1971,-2.2392,-2.2594,-2.2594,-2.2594,-2.2745,-2.3097,-2.3297,-2.3596,-2.3904,-2.4102,-2.4202,-2.4202,-2.4202,-2.4202,-2.4165,-2.3703,-2.3306,-2.2986,-2.2593,-2.2446,-2.2446,-2.2446,-2.2446,-2.2446,-2.2446,-2.2446,-2.2446,-2.2446,-2.2446,-2.2446,-2.2446,-2.2556,-2.2611,-2.2346,-2.2364,-2.2529,-2.2831,-2.2968,-2.3078,-2.3242,-2.3519,-2.3703,-2.3703,-2.3703,-2.3703,-2.3703,-2.3703,-2.3611,-2.3306,-2.327,-2.3187,-2.294,-2.2538,-2.2282,-2.2282,-2.2144,-2.2117,-2.2272,-2.2519,-2.284,-2.3251,-2.3123,-2.2529,-2.1328,-2.0911,-2.002,-1.861,-1.7943,-1.7582,-1.7582,-1.7582,-1.7582,-1.7582,-1.7582,-1.7582,-1.6264,-1.5917,-1.5569,-1.6647,-1.5713,-1.4745,-1.536,-1.5795,-1.6145,-1.6392,-1.6507,-1.6513,-1.6314,-1.6881,-1.7159,-1.6519,-1.6803,-1.6978,-1.6616,-1.6404,-1.6254,-1.6169,-1.6,-1.5891,-1.5891,-1.5813,-1.6002,-1.6626,-1.5873,-1.5647,-1.6255,-1.6242,-1.6831,-1.8095,-1.9305,-2.0588,-2.1854,-2.2383,-2.2594,-2.2594,-2.2695,-2.2896,-2.3297,-2.3456,-2.3755,-2.4102,-2.4152,-2.4202,-2.4202,-2.4202,-2.4202,-2.4165,-2.3703,-2.3499,-2.3444,-2.305,-2.2904,-2.2904,-2.2904,-2.2904,-2.2904,-2.2904,-2.2904,-2.2904,-2.2904,-2.2904,-2.2904,-2.2904,-2.2995,-2.3023,-2.2739,-2.2785,-2.2968,-2.3272,-2.3389,-2.3526,-2.3712,-2.395,-2.4202,-2.4202,-2.4202,-2.4202,-2.4202,-2.4202,-2.411,-2.3776,-2.3739,-2.3639,-2.3373,-2.2922,-2.262,-2.2492,-2.2474,-2.2529,-2.2657,-2.2922,-2.3261,-2.3712,-2.3739,-2.3233,-2.2124,-2.1669,-2.0723,-1.9228,-1.8461,-1.7943,-1.7582,-1.7582,-1.7582,-1.7582,-1.7582,-1.7582,-1.651,-1.5725,-1.5067,-1.6295,-1.5428,-1.4515,-1.5318,-1.5101,-1.495,-1.5734,-1.6103,-1.6284,-1.6278,-1.6284,-1.6374,-1.6652,-1.6459,-1.6278,-1.6278,-1.6278,-1.6181,-1.5922,-1.5891,-1.5891,-1.5885,-1.565,-1.5493,-1.5493,-1.5252,-1.5101,-1.5101,-1.5101,-1.5544,-1.6587,-1.8031,-1.9308,-2.0327,-2.1845,-2.2594,-2.2603,-2.2896,-2.2996,-2.2996,-2.3546,-2.3805,-2.3805,-2.4102,-2.4202,-2.4202,-2.4202,-2.4202,-2.4165,-2.3712,-2.3499,-2.3453,-2.3059,-2.2922,-2.2922,-2.2922,-2.2922,-2.2922,-2.2922,-2.2922,-2.2922,-2.2922,-2.2922,-2.2922,-2.2922,-2.3197,-2.3499,-2.3499,-2.3215,-2.3123,-2.4009,-2.384,-2.3608,-2.411,-2.4202,-2.4202,-2.4202,-2.4202,-2.4202,-2.4202,-2.4202,-2.4202,-2.4202,-2.4202,-2.4202,-2.4192,-2.3794,-2.3343,-2.295,-2.2913,-2.3068,-2.3462,-2.3499,-2.3721,-2.4174,-2.4202,-2.3696,-2.2577,-2.2526,-2.1446,-1.928,-1.9228,-1.8662,-1.7582,-1.7582,-1.7582,-1.7582,-1.7582,-1.7582,-1.4103,-1.433,-1.4599,-1.514,-1.5181,-1.5252,-1.568,-1.565,-1.5662,-1.6079,-1.638,-1.6513,-1.6314,-1.6441,-1.6477,-1.6181,-1.6217,-1.6217,-1.6036,-1.6006,-1.5976,-1.5897,-1.5891,-1.5819,-1.5632,-1.5547,-1.5348,-1.498,-1.4877,-1.4745,-1.4545,-1.4539,-1.5443,-1.7448,-1.8184,-1.9464,-2.1486,-2.2405,-2.2896,-2.2896,-2.3347,-2.3447,-2.3297,-2.3646,-2.3904,-2.4102,-2.4152,-2.4202,-2.4202,-2.4202,-2.4202,-2.4192,-2.4073,-2.3969,-2.396,-2.384,-2.3794,-2.3794,-2.3794,-2.3794,-2.3794,-2.3794,-2.3794,-2.3794,-2.3794,-2.3794,-2.3794,-2.3794,-2.3886,-2.3969,-2.3969,-2.3886,-2.3859,-2.4146,-2.411,-2.4055,-2.4174,-2.4202,-2.4202,-2.4202,-2.4202,-2.4202,-2.4202,-2.4202,-2.4202,-2.4202,-2.4202,-2.4101,-2.3758,-2.3572,-2.3343,-2.295,-2.3151,-2.337,-2.348,-2.3804,-2.4073,-2.4192,-2.4202,-2.4053,-2.3696,-2.2937,-2.1861,-2.0416,-1.9591,-1.8662,-1.7582,-1.7582,-1.7582,-1.7582,-1.7582,-1.7582,-1.367,-1.4105,-1.4606,-1.5191,-1.5342,-1.5439,-1.5807,-1.5891,-1.5934,-1.6091,-1.626,-1.6356,-1.6296,-1.6338,-1.6308,-1.6091,-1.6097,-1.6066,-1.591,-1.5891,-1.5891,-1.5891,-1.5891,-1.5783,-1.5523,-1.5403,-1.5167,-1.4751,-1.4612,-1.4473,-1.4304,-1.4298,-1.5313,-1.7589,-1.8118,-1.9483,-2.1764,-2.2585,-2.2996,-2.2996,-2.3546,-2.3705,-2.3555,-2.3854,-2.4053,-2.4202,-2.4202,-2.4202,-2.4202,-2.4202,-2.4202,-2.4202,-2.4202,-2.4202,-2.4202,-2.4202,-2.4202,-2.4202,-2.4202,-2.4101,-2.3932,-2.4146,-2.4091,-2.3941,-2.4156,-2.4202,-2.4202,-2.4202,-2.4202,-2.4202,-2.4202,-2.4202,-2.4202,-2.4202,-2.4202,-2.4202,-2.4202,-2.4202,-2.4202,-2.4202,-2.4202,-2.4202,-2.4202,-2.4202,-2.4202,-2.4202,-2.4202,-2.411,-2.3813,-2.3785,-2.3694,-2.3455,-2.3639,-2.3785,-2.3785,-2.4055,-2.4202,-2.4202,-2.4202,-2.4202,-2.4202,-2.3538,-2.2467,-2.0936,-2.021,-1.9124,-1.7582,-1.7582,-1.7582,-1.7582,-1.7582,-1.7582,-1.4377,-1.4624,-1.4914,-1.5891,-1.5656,-1.5306,-1.5783,-1.5891,-1.5897,-1.5922,-1.5928,-1.6,-1.6241,-1.6066,-1.5976,-1.6229,-1.606,-1.5891,-1.5891,-1.5891,-1.5891,-1.5891,-1.5867,-1.5753,-1.5487,-1.5228,-1.4962,-1.4696,-1.4443,-1.4298,-1.4298,-1.4298,-1.5188,-1.7109,-1.7959,-1.9334,-2.1261,-2.2464,-2.3046,-2.3097,-2.3569,-2.3818,-2.3854,-2.4102,-2.4183,-2.4146,-2.411,-2.4091,-2.4091,-2.4128,-2.4146,-2.4156,-2.4183,-2.4202,-2.4192,-2.4156,-2.4146,-2.4137,-2.4101,-2.3804,-2.3508,-2.3969,-2.3849,-2.3572,-2.4082,-2.4202,-2.4202,-2.4202,-2.4202,-2.4202,-2.4202,-2.4202,-2.4202,-2.4202,-2.4202,-2.4202,-2.4202,-2.4202,-2.4202,-2.4202,-2.4202,-2.4202,-2.4202,-2.4202,-2.4202,-2.4202,-2.4202,-2.4202,-2.4202,-2.4202,-2.4202,-2.4202,-2.4202,-2.4202,-2.4202,-2.4202,-2.4202,-2.4202,-2.4202,-2.4202,-2.4202,-2.4202,-2.3229,-2.1089,-2.0936,-1.9849,-1.774,-1.7635,-1.7582,-1.7582,-1.7582,-1.7582,-1.3432,-1.3918,-1.4491,-1.4944,-1.539,-1.5753,-1.5861,-1.5891,-1.5946,-1.6151,-1.6193,-1.6211,-1.6272,-1.6066,-1.591,-1.597,-1.5928,-1.5891,-1.5891,-1.5891,-1.5891,-1.5891,-1.5704,-1.5481,-1.5215,-1.4956,-1.4684,-1.4407,-1.4334,-1.4298,-1.4298,-1.4298,-1.486,-1.6075,-1.762,-1.9082,-2.0506,-2.2397,-2.3397,-2.3646,-2.3577,-2.3742,-2.4102,-2.4152,-2.3978,-2.3657,-2.3297,-2.316,-2.3187,-2.3499,-2.3627,-2.3703,-2.4073,-2.4202,-2.4165,-2.3794,-2.3627,-2.3629,-2.327,-2.3105,-2.3096,-2.3499,-2.3563,-2.3572,-2.4082,-2.4202,-2.4202,-2.4202,-2.4202,-2.4202,-2.4202,-2.4202,-2.4202,-2.4202,-2.4202,-2.4202,-2.4202,-2.4202,-2.4202,-2.4202,-2.4202,-2.4202,-2.4202,-2.4202,-2.4202,-2.4202,-2.4202,-2.4202,-2.4202,-2.4202,-2.4202,-2.4202,-2.4202,-2.4202,-2.4202,-2.4202,-2.4202,-2.4202,-2.4202,-2.4202,-2.4202,-2.4202,-2.3538,-2.2165,-2.1344,-2.021,-1.8864,-1.7996,-1.7582,-1.7582,-1.7582,-1.7582,-1.3739,-1.4183,-1.4624,-1.5149,-1.559,-1.5891,-1.5891,-1.5891,-1.5928,-1.6066,-1.6097,-1.6097,-1.6097,-1.5982,-1.5891,-1.5891,-1.5891,-1.5891,-1.5891,-1.5891,-1.5891,-1.5891,-1.5656,-1.5396,-1.5137,-1.4871,-1.46,-1.4322,-1.4298,-1.4298,-1.4298,-1.4298,-1.4765,-1.5751,-1.71,-1.8532,-2.0005,-2.1858,-2.3,-2.3466,-2.3502,-2.3508,-2.3584,-2.3776,-2.3639,-2.3197,-2.2995,-2.2904,-2.2922,-2.3123,-2.3325,-2.3499,-2.3565,-2.3694,-2.3813,-2.3361,-2.3215,-2.3187,-2.2977,-2.2776,-2.2675,-2.3078,-2.3078,-2.2986,-2.3455,-2.3584,-2.362,-2.3804,-2.3859,-2.3904,-2.4156,-2.4202,-2.4202,-2.4202,-2.4202,-2.4202,-2.4202,-2.4202,-2.4202,-2.4202,-2.4202,-2.4202,-2.4202,-2.4202,-2.4202,-2.4202,-2.4202,-2.4202,-2.4202,-2.4202,-2.4202,-2.4202,-2.4202,-2.4202,-2.4202,-2.4202,-2.4202,-2.4202,-2.4202,-2.4202,-2.4202,-2.4202,-2.3646,-2.2526,-2.1962,-2.0826,-1.9176,-1.8662,-1.8094,-1.7582,-1.7582,-1.7582,-1.4201,-1.4576,-1.4908,-1.5692,-1.5891,-1.5891,-1.5891,-1.5891,-1.5891,-1.5891,-1.5855,-1.5819,-1.5819,-1.5783,-1.5759,-1.5759,-1.5795,-1.5819,-1.5819,-1.5819,-1.5819,-1.5819,-1.5553,-1.5276,-1.5065,-1.4799,-1.4552,-1.4316,-1.4298,-1.4298,-1.4298,-1.4298,-1.4717,-1.5568,-1.6584,-1.7918,-1.9548,-2.1138,-2.2324,-2.3051,-2.3292,-2.3151,-2.2712,-2.3105,-2.3105,-2.2794,-2.273,-2.2693,-2.2702,-2.2776,-2.2986,-2.3261,-2.3004,-2.3105,-2.3343,-2.295,-2.2794,-2.2785,-2.2721,-2.2474,-2.2245,-2.2666,-2.2565,-2.2355,-2.2785,-2.2904,-2.2986,-2.338,-2.3499,-2.359,-2.4101,-2.4202,-2.4202,-2.4202,-2.4202,-2.4202,-2.4202,-2.4202,-2.4202,-2.4202,-2.4202,-2.4202,-2.4202,-2.4202,-2.4202,-2.4202,-2.4202,-2.4202,-2.4202,-2.4202,-2.4202,-2.4202,-2.4202,-2.4202,-2.4202,-2.4202,-2.4202,-2.4202,-2.4202,-2.4202,-2.4202,-2.4202,-2.3746,-2.2828,-2.2577,-2.1497,-1.9487,-1.928,-1.8662,-1.7582,-1.7582,-1.7582,-1.3252,-1.4014,-1.4908,-1.5692,-1.5891,-1.5891,-1.5891,-1.5891,-1.5891,-1.5891,-1.571,-1.5553,-1.5553,-1.5366,-1.5215,-1.5215,-1.5403,-1.5553,-1.5553,-1.5553,-1.5553,-1.5553,-1.5119,-1.4805,-1.4775,-1.4515,-1.434,-1.4298,-1.4298,-1.4298,-1.4298,-1.4298,-1.449,-1.4831,-1.6152,-1.7556,-1.9075,-2.0528,-2.1813,-2.2939,-2.2939,-2.2593,-2.187,-2.2263,-2.241,-2.2346,-2.1998,-2.1851,-2.1879,-2.2227,-2.2391,-2.2474,-2.2785,-2.294,-2.2931,-2.2519,-2.2364,-2.2318,-2.197,-2.1824,-2.1833,-2.2236,-2.2327,-2.2355,-2.2785,-2.2904,-2.2986,-2.338,-2.3499,-2.359,-2.4101,-2.4202,-2.4202,-2.4202,-2.4202,-2.4202,-2.4202,-2.4202,-2.4202,-2.4202,-2.4202,-2.4202,-2.4202,-2.4202,-2.4202,-2.4202,-2.4202,-2.4202,-2.4202,-2.4202,-2.4202,-2.4202,-2.4202,-2.4202,-2.4202,-2.4202,-2.4202,-2.4202,-2.4202,-2.4202,-2.4202,-2.4202,-2.4152,-2.4003,-2.2979,-2.1912,-2.0672,-1.9694,-1.8662,-1.7582,-1.7582,-1.7582,-1.3622,-1.4455,-1.5276,-1.5765,-1.5891,-1.5891,-1.5891,-1.5891,-1.5891,-1.5891,-1.568,-1.5499,-1.5499,-1.5403,-1.5276,-1.5131,-1.5203,-1.533,-1.5481,-1.5372,-1.533,-1.5481,-1.5034,-1.4714,-1.4714,-1.4461,-1.4298,-1.4298,-1.4298,-1.4298,-1.4298,-1.4442,-1.4592,-1.4688,-1.5725,-1.7083,-1.8629,-1.979,-2.1125,-2.2556,-2.2556,-2.2254,-2.1696,-2.187,-2.1952,-2.1943,-2.1769,-2.1696,-2.1705,-2.1879,-2.208,-2.2318,-2.2236,-2.2364,-2.2501,-2.2099,-2.1952,-2.1925,-2.1751,-2.1696,-2.1723,-2.1897,-2.1952,-2.1989,-2.2172,-2.2227,-2.2355,-2.2986,-2.316,-2.3306,-2.4036,-2.4202,-2.4202,-2.4202,-2.4202,-2.4202,-2.4202,-2.4202,-2.4202,-2.4202,-2.4202,-2.4202,-2.4202,-2.4202,-2.4202,-2.4202,-2.4202,-2.4202,-2.4202,-2.4202,-2.4202,-2.4202,-2.4202,-2.4202,-2.4202,-2.4202,-2.4202,-2.4202,-2.4202,-2.4202,-2.4202,-2.4202,-2.4202,-2.4202,-2.3696,-2.2619,-2.0885,-2.0416,-1.928,-1.7582,-1.7582,-1.7582,-1.3924,-1.4636,-1.5209,-1.5674,-1.5795,-1.5807,-1.5873,-1.5891,-1.5891,-1.5891,-1.5734,-1.5578,-1.5511,-1.5445,-1.5336,-1.5143,-1.5161,-1.5276,-1.5475,-1.5276,-1.5179,-1.5372,-1.4932,-1.4612,-1.4612,-1.4419,-1.4298,-1.4298,-1.4298,-1.4298,-1.4298,-1.4544,-1.4736,-1.479,-1.5461,-1.6696,-1.8495,-1.9665,-2.0896,-2.2126,-2.1889,-2.1744,-2.1696,-2.1186,-2.1096,-2.1365,-2.1597,-2.1696,-2.1696,-2.1696,-2.1861,-2.2099,-2.1806,-2.187,-2.2089,-2.1797,-2.1696,-2.1696,-2.1696,-2.1696,-2.1696,-2.1696,-2.1696,-2.1696,-2.1696,-2.1696,-2.1861,-2.2675,-2.2904,-2.3096,-2.399,-2.4202,-2.4202,-2.4202,-2.4202,-2.4202,-2.4202,-2.4202,-2.4202,-2.4202,-2.4202,-2.4202,-2.4202,-2.4202,-2.4202,-2.4202,-2.4202,-2.4202,-2.4202,-2.4202,-2.4202,-2.4202,-2.4202,-2.4202,-2.4202,-2.4202,-2.4202,-2.4202,-2.4202,-2.4202,-2.4202,-2.3895,-2.3895,-2.4202,-2.3637,-2.2568,-2.0885,-2.0885,-1.9746,-1.7582,-1.7582,-1.7582,-1.3707,-1.396,-1.4232,-1.5264,-1.5517,-1.5584,-1.5831,-1.5891,-1.5891,-1.5891,-1.5879,-1.5795,-1.5547,-1.5294,-1.5125,-1.5113,-1.5318,-1.5481,-1.5493,-1.5276,-1.5113,-1.5125,-1.4648,-1.4322,-1.4322,-1.4304,-1.4298,-1.4298,-1.4298,-1.4298,-1.4298,-1.4544,-1.4838,-1.5083,-1.5369,-1.6574,-1.8742,-2.0671,-2.1643,-2.1723,-2.0835,-2.0871,-2.1642,-1.9803,-1.9476,-2.0439,-2.132,-2.1696,-2.1696,-2.1696,-2.1705,-2.1723,-2.1696,-2.1705,-2.1723,-2.1696,-2.1696,-2.1696,-2.1696,-2.1696,-2.1696,-2.1696,-2.1696,-2.1696,-2.1696,-2.1696,-2.1861,-2.2675,-2.2904,-2.3096,-2.399,-2.4202,-2.4202,-2.4202,-2.4202,-2.4202,-2.4202,-2.4202,-2.4202,-2.4202,-2.4202,-2.4202,-2.4202,-2.4202,-2.4202,-2.4202,-2.4202,-2.4202,-2.4202,-2.4202,-2.4202,-2.4202,-2.4202,-2.4202,-2.4202,-2.4202,-2.4202,-2.4202,-2.4202,-2.4202,-2.4202,-2.3138,-2.3088,-2.4202,-2.2156,-2.1038,-2.0885,-2.0885,-1.9746,-1.7582,-1.7582,-1.7582,-1.3688,-1.4032,-1.4334,-1.5065,-1.5372,-1.5523,-1.5614,-1.5771,-1.5891,-1.5891,-1.5891,-1.5861,-1.5765,-1.5535,-1.5306,-1.5137,-1.5185,-1.5306,-1.5475,-1.5125,-1.492,-1.5089,-1.463,-1.4298,-1.4298,-1.4298,-1.4298,-1.4298,-1.4298,-1.4394,-1.4544,-1.479,-1.5077,-1.5356,-1.5594,-1.6386,-1.7831,-1.9163,-1.9849,-1.9849,-1.9476,-1.9849,-2.0763,-1.943,-1.9338,-2.0294,-1.9985,-1.9849,-1.9894,-2.0538,-2.0808,-2.0853,-2.1454,-2.1696,-2.1696,-2.1696,-2.1696,-2.1696,-2.1696,-2.1696,-2.1733,-2.1989,-2.1897,-2.1787,-2.2318,-2.2282,-2.2236,-2.305,-2.3288,-2.3416,-2.4055,-2.4202,-2.4202,-2.4202,-2.4202,-2.4202,-2.4202,-2.4202,-2.4202,-2.4202,-2.4202,-2.4202,-2.4202,-2.4202,-2.4202,-2.4202,-2.4202,-2.4202,-2.4202,-2.4202,-2.4202,-2.4202,-2.4202,-2.4202,-2.4202,-2.4202,-2.4202,-2.4202,-2.3488,-2.3138,-2.3138,-2.2064,-2.165,-2.2055,-2.1293,-2.0885,-2.0885,-2.0158,-1.9027,-1.7582,-1.7582,-1.7582,-1.3447,-1.3833,-1.4165,-1.4702,-1.5034,-1.5282,-1.5457,-1.5632,-1.5783,-1.5867,-1.5891,-1.5891,-1.5891,-1.5747,-1.5572,-1.5396,-1.5372,-1.5433,-1.5608,-1.5252,-1.501,-1.5101,-1.4714,-1.4401,-1.4304,-1.4298,-1.4298,-1.4298,-1.4298,-1.4442,-1.4688,-1.4939,-1.5267,-1.5588,-1.6062,-1.6622,-1.7279,-1.8611,-1.9109,-1.8788,-1.8788,-1.9155,-1.9749,-1.8419,-1.8326,-1.9247,-1.8234,-1.8187,-1.8834,-1.9521,-1.9977,-2.0339,-2.0997,-2.141,-2.1696,-2.1696,-2.1696,-2.1696,-2.1696,-2.1696,-2.176,-2.2153,-2.2099,-2.2016,-2.2702,-2.2712,-2.2629,-2.3306,-2.3499,-2.359,-2.4101,-2.4202,-2.4202,-2.4202,-2.4202,-2.4202,-2.4202,-2.4202,-2.4202,-2.4202,-2.4202,-2.4202,-2.4202,-2.4202,-2.4202,-2.4202,-2.4202,-2.4202,-2.4202,-2.4202,-2.4202,-2.4202,-2.4202,-2.4202,-2.4202,-2.4202,-2.4202,-2.4202,-2.3138,-2.2476,-2.2476,-2.1081,-2.0518,-2.0885,-2.0166,-1.9952,-2.0313,-1.9591,-1.8662,-1.7582,-1.7582,-1.7582,0.0,0.0,0.0,-1.4159,-1.4503,-1.4853,-1.536,-1.5481,-1.5559,-1.5825,-1.5879,-1.5879,-1.5891,-1.5891,-1.5891,-1.5891,-1.5891,-1.5891,-1.5891,-1.5662,-1.5403,-1.5149,-1.4877,-1.4612,-1.4334,-1.4304,-1.4298,-1.4298,-1.4298,-1.4442,-1.4688,-1.4981,-1.5315,-1.5784,-1.6763,-1.7286,-1.7286,-1.9201,-1.9658,-1.8696,-1.8696,-1.8742,-1.8696,-1.6709,-1.6346,-1.7232,-1.6251,-1.6897,-1.8696,-1.875,-1.9338,-2.0204,-2.0249,-2.0808,-2.1597,-2.1597,-2.1642,-2.1651,-2.1651,-2.1696,-2.1769,-2.2172,-2.23,-2.2382,-2.2812,-2.2931,-2.3004,-2.3398,-2.3508,-2.3657,-2.4101,-2.4202,-2.4202,-2.4202,-2.4202,-2.4202,-2.4202,-2.4202,-2.4202,-2.4202,-2.4202,-2.4202,-2.4202,-2.4202,-2.4202,-2.4202,-2.4202,-2.4202,-2.4202,-2.4202,-2.4202,-2.4202,-2.4202,-2.4202,-2.4202,-2.4202,-2.4202,-2.4152,-2.3088,-2.2426,-2.2426,-2.0313,-1.9694,-2.0783,-1.867,-1.8101,-1.9176,-1.9176,-1.861,-1.7582,-1.7582,-1.7582,-1.2885,0.0,0.0,0.0,0.0,0.0,-1.4902,-1.5077,-1.5288,-1.5553,-1.5608,-1.5662,-1.5855,-1.5891,-1.5891,-1.5891,-1.5891,-1.5891,-1.5891,-1.5662,-1.5475,-1.5396,-1.4992,-1.469,-1.4606,-1.4419,-1.4298,-1.4298,-1.4496,-1.4694,-1.4987,-1.5363,-1.5689,-1.5784,-1.6062,-1.6204,-1.6204,-1.6756,-1.6889,-1.6615,-1.6615,-1.699,-1.7692,-1.6393,-1.6346,-1.7232,-1.6251,-1.6103,-1.6709,-1.7412,-1.7878,-1.8195,-1.8926,-1.9384,-1.9621,-1.9621,-2.0076,-2.0664,-2.0664,-2.131,-2.219,-2.2602,-2.273,-2.2867,-2.3611,-2.3611,-2.3416,-2.3868,-2.3987,-2.4055,-2.4174,-2.4202,-2.4202,-2.4202,-2.4202,-2.4202,-2.4202,-2.4202,-2.4202,-2.4202,-2.4202,-2.4202,-2.4202,-2.4202,-2.4202,-2.4202,-2.4202,-2.4202,-2.4202,-2.4202,-2.4202,-2.4202,-2.4202,-2.4202,-2.4202,-2.4202,-2.3845,-2.3029,-2.1962,-2.0987,-2.0158,-1.8767,-1.8206,-1.8513,-1.7891,-1.774,-1.8048,-1.8048,-1.7891,-1.7582,-1.7582,-1.7582,-1.3051,-1.3314,-1.3574,-1.3839,0.0,0.0,-1.469,-1.4835,-1.5022,-1.5282,-1.5336,-1.5421,-1.568,-1.5728,-1.5765,-1.5873,-1.5891,-1.5891,-1.5891,-1.5759,-1.5626,-1.5511,-1.5228,-1.4956,-1.4739,-1.457,-1.4425,-1.4304,-1.4544,-1.4885,-1.5267,-1.5594,-1.5784,-1.5784,-1.5784,-1.5784,-1.5784,-1.6204,-1.6204,-1.5832,-1.6251,-1.6527,-1.6676,-1.6062,-1.6109,-1.6622,-1.6062,-1.5784,-1.5825,-1.644,-1.6904,-1.7372,-1.7971,-1.8427,-1.8788,-1.8788,-1.9155,-1.9774,-2.0346,-2.1066,-2.1856,-2.2817,-2.3151,-2.327,-2.4009,-2.3987,-2.3849,-2.4137,-2.4202,-2.4202,-2.4202,-2.4202,-2.4202,-2.4202,-2.4202,-2.4202,-2.4202,-2.4202,-2.4202,-2.4202,-2.4202,-2.4202,-2.4202,-2.4202,-2.4202,-2.4202,-2.4202,-2.4202,-2.4202,-2.4202,-2.4202,-2.4202,-2.4202,-2.4003,-2.3538,-2.3488,-2.3029,-2.1912,-2.0775,-1.9901,-1.9228,-1.8146,-1.7582,-1.7582,-1.7582,-1.7582,-1.7582,-1.7582,-1.7582,-1.7582,-1.7582,-1.7582,-1.3442,-1.3377,-1.3604,-1.3809,-1.4081,0.0,-1.4612,-1.4672,-1.4745,-1.501,-1.5065,-1.5143,-1.5409,-1.5457,-1.5529,-1.5765,-1.5831,-1.5855,-1.5885,-1.5891,-1.5801,-1.5572,-1.5517,-1.5318,-1.4853,-1.4751,-1.4612,-1.4407,-1.4652,-1.5022,-1.5493,-1.5683,-1.5784,-1.5784,-1.5784,-1.5784,-1.5784,-1.6676,-1.6676,-1.5832,-1.6723,-1.6669,-1.5784,-1.5784,-1.5784,-1.5784,-1.5784,-1.5784,-1.5784,-1.5784,-1.6346,-1.7138,-1.7138,-1.7692,-1.8465,-1.8465,-1.8565,-1.8843,-2.009,-2.067,-2.1058,-2.261,-2.3275,-2.3481,-2.3885,-2.4102,-2.4202,-2.4202,-2.4202,-2.4202,-2.4202,-2.4202,-2.4202,-2.4202,-2.4202,-2.4202,-2.4202,-2.4202,-2.4202,-2.4202,-2.4202,-2.4202,-2.4202,-2.4202,-2.4202,-2.4202,-2.4202,-2.4202,-2.4202,-2.4202,-2.4202,-2.4202,-2.4202,-2.3795,-2.2778,-2.2577,-2.2064,-2.0987,-1.9849,-1.9176,-1.902,-1.8101,-1.7582,-1.7582,-1.7582,-1.7582,-1.7582,-1.7582,-1.7582,-1.7582,-1.7582,-1.7582,-1.4359,-1.409,-1.3791,-1.3634,-1.3948,0.0,-1.4364,-1.4377,-1.4461,-1.4739,-1.4793,-1.4871,-1.5137,-1.5185,-1.5203,-1.5252,-1.5439,-1.565,-1.5861,-1.5891,-1.5867,-1.5819,-1.5626,-1.5457,-1.5354,-1.4962,-1.4789,-1.4918,-1.5191,-1.5445,-1.573,-1.5784,-1.5784,-1.5784,-1.5784,-1.5784,-1.5784,-1.5967,-1.5967,-1.5784,-1.6015,-1.5967,-1.5784,-1.5784,-1.5784,-1.5784,-1.5784,-1.5784,-1.5784,-1.5784,-1.592,-1.6109,-1.6109,-1.6204,-1.6386,-1.6386,-1.6897,-1.765,-1.8215,-1.912,-2.0127,-2.0753,-2.1753,-2.2733,-2.2811,-2.3488,-2.4202,-2.4202,-2.4202,-2.4202,-2.4202,-2.4202,-2.4202,-2.4202,-2.4202,-2.4202,-2.4202,-2.4202,-2.4202,-2.4202,-2.4202,-2.4202,-2.4202,-2.4202,-2.4202,-2.4202,-2.4202,-2.4202,-2.4202,-2.4202,-2.4202,-2.4202,-2.4202,-2.4102,-2.3895,-2.3038,-2.2064,-2.0987,-1.9849,-1.8819,-1.7943,-1.7687,-1.7582,-1.7582,-1.7582,-1.7582,-1.7582,-1.7582,-1.7582,-1.7582,-1.7582,-1.7582,-1.5886,-1.5503,-1.5189,-1.465,-1.4638,0.0,0.0,-1.4298,-1.4334,-1.4479,-1.4509,-1.4594,-1.4865,-1.4914,-1.4956,-1.5083,-1.533,-1.5499,-1.5499,-1.5722,-1.5891,-1.5891,-1.5771,-1.5644,-1.5511,-1.5264,-1.5198,-1.5457,-1.5763,-1.598,-1.6217,-1.6132,-1.6052,-1.6052,-1.5905,-1.5784,-1.5784,-1.5784,-1.5784,-1.5784,-1.5784,-1.5784,-1.5784,-1.5784,-1.5784,-1.5784,-1.5784,-1.5784,-1.5784,-1.5784,-1.5784,-1.5784,-1.5784,-1.5784,-1.5784,-1.5784,-1.6109,-1.6671,-1.7548,-1.8394,-1.9249,-2.0085,-2.0944,-2.1709,-2.1709,-2.2467,-2.3338,-2.3338,-2.3746,-2.4202,-2.4202,-2.4202,-2.4202,-2.4202,-2.4202,-2.4202,-2.4202,-2.4202,-2.4202,-2.4202,-2.4202,-2.4202,-2.4202,-2.4202,-2.4202,-2.4202,-2.4202,-2.4202,-2.4202,-2.4202,-2.4202,-2.4202,-2.4202,-2.3954,-2.3388,-2.2837,-2.1802,-2.0158,-1.9539,-1.8715,-1.7635,-1.7582,-1.7582,-1.7582,-1.7582,-1.7582,-1.7582,-1.7582,-1.7582,-1.7582,-1.7582,-1.7582,-1.7534,-1.7053,-1.6795,-1.6172,-1.5858,-1.5604,0.0,0.0,0.0,-1.4765,-1.4669,-1.4647,-1.4692,-1.4636,-1.4702,-1.4914,-1.5173,-1.5276,-1.5065,-1.5491,-1.5812,-1.5807,-1.5861,-1.5807,-1.5596,-1.5585,-1.569,-1.5872,-1.6166,-1.641,-1.6707,-1.648,-1.6333,-1.6321,-1.6039,-1.5885,-1.5784,-1.5784,-1.5784,-1.5784,-1.5784,-1.5784,-1.5784,-1.5784,-1.5784,-1.5784,-1.5784,-1.5784,-1.5784,-1.5784,-1.5784,-1.5784,-1.5784,-1.5784,-1.5784,-1.5784,-1.5784,-1.596,-1.7165,-1.7819,-1.8278,-1.9395,-2.0136,-2.0629,-2.0834,-2.1497,-2.2224,-2.2426,-2.3138,-2.3895,-2.4152,-2.4202,-2.4202,-2.4202,-2.4202,-2.4202,-2.4202,-2.4202,-2.4202,-2.4202,-2.4202,-2.4202,-2.4202,-2.4202,-2.4202,-2.4202,-2.4202,-2.4202,-2.4202,-2.4202,-2.4202,-2.4202,-2.4202,-2.3845,-2.2937,-2.2627,-2.165,-1.9642,-1.9332,-1.8715,-1.7635,-1.7582,-1.7582,-1.7582,-1.7582,-1.7582,-1.7582,-1.7582,-1.7582,-1.7582,-1.7582,-1.7582,-1.8957,-1.8369,-1.7766,-1.744,-1.7515,-1.7663,-1.7608,0.0,-1.7336,-1.6445,0.0,-1.571,-1.4869,0.0,0.0,-1.4383,-1.4624,-1.4793,-1.4769,-1.5206,-1.5526,-1.5569,-1.5753,-1.5879,-1.5849,-1.5834,-1.5891,-1.591,-1.6176,-1.6433,-1.6693,-1.6673,-1.654,-1.6328,-1.6239,-1.6092,-1.5784,-1.5784,-1.5784,-1.5784,-1.5784,-1.5784,-1.5784,-1.5784,-1.5784,-1.5784,-1.5784,-1.5784,-1.5784,-1.5784,-1.5784,-1.5784,-1.5784,-1.5784,-1.5784,-1.5784,-1.5784,-1.5872,-1.6311,-1.6657,-1.6948,-1.7405,-1.8414,-1.9591,-2.0577,-2.0987,-2.1293,-2.2224,-2.2577,-2.2937,-2.3945,-2.4202,-2.4202,-2.4202,-2.4202,-2.4202,-2.4202,-2.4202,-2.4202,-2.4202,-2.4202,-2.4202,-2.4202,-2.4202,-2.4202,-2.4202,-2.4202,-2.4202,-2.4202,-2.4202,-2.4202,-2.4202,-2.4202,-2.4152,-2.4003,-2.3088,-2.2013,-2.0783,-1.9746,-1.8715,-1.7635,-1.7582,-1.7582,-1.7582,-1.7582,-1.7582,-1.7582,-1.7582,-1.7582,-1.7582,-1.7582,-1.7582,-2.0201,-1.9848,-1.948,-1.8771,-1.8583,-1.848,-1.808,-1.7987,-1.7894,-1.7475,0.0,0.0,0.0,0.0,0.0,0.0,-1.4674,-1.49,-1.474,-1.5283,-1.5689,-1.5501,-1.5721,-1.5909,-1.5912,-1.6033,-1.6215,-1.6374,-1.6642,-1.6958,-1.7201,-1.7054,-1.6958,-1.6837,-1.6502,-1.6213,-1.6086,-1.5912,-1.5784,-1.5784,-1.5784,-1.5784,-1.5784,-1.5784,-1.5784,-1.5784,-1.5784,-1.5784,-1.5784,-1.5784,-1.5784,-1.5784,-1.5784,-1.5784,-1.5784,-1.5784,-1.5784,-1.5798,-1.5972,-1.6206,-1.6533,-1.7052,-1.7705,-1.8356,-1.8819,-1.9435,-2.0004,-2.0467,-2.1038,-2.181,-2.2929,-2.3238,-2.3388,-2.4044,-2.4202,-2.4202,-2.4202,-2.4202,-2.4202,-2.4202,-2.4202,-2.4202,-2.4202,-2.4202,-2.4202,-2.4202,-2.4202,-2.4202,-2.4202,-2.4202,-2.4202,-2.4202,-2.4202,-2.4202,-2.4202,-2.3138,-2.2064,-2.0987,-1.9235,-1.8094,-1.7635,-1.7582,-1.7582,-1.7582,-1.7582,-1.7582,-1.7582,-1.7582,-1.7582,-1.7582,-1.7582,-1.7582,-2.1154,-2.1029,-2.0888,-2.0157,-1.9847,-1.9603,-1.9128,-1.9001,-1.8956,-1.868,-1.8449,0.0,0.0,0.0,-1.6075,-1.5045,0.0,-1.5335,-1.4863,-1.5371,-1.5706,-1.5526,-1.5821,-1.603,-1.6106,-1.6252,-1.6458,-1.6817,-1.6976,-1.7239,-1.7562,-1.7434,-1.7286,-1.7206,-1.6703,-1.6353,-1.6321,-1.5979,-1.5784,-1.5784,-1.5784,-1.5784,-1.5784,-1.5784,-1.5784,-1.5784,-1.5784,-1.5784,-1.5784,-1.5784,-1.5784,-1.5784,-1.5784,-1.5784,-1.5784,-1.5784,-1.5784,-1.5784,-1.5784,-1.6079,-1.6486,-1.7132,-1.746,-1.7582,-1.7582,-1.8146,-1.8819,-1.9124,-1.9797,-2.0672,-2.1751,-2.2274,-2.2627,-2.3179,-2.3746,-2.4053,-2.3438,-2.3786,-2.4102,-2.3795,-2.4003,-2.4202,-2.4202,-2.4202,-2.4202,-2.4202,-2.4202,-2.4202,-2.4202,-2.4202,-2.4202,-2.4202,-2.4202,-2.4202,-2.4202,-2.3138,-2.1912,-2.0518,-1.8662,-1.7582,-1.7582,-1.7582,-1.7582,-1.7582,-1.7582,-1.7582,-1.7582,-1.7582,-1.7582,-1.7582,-1.7582,-1.7582,-2.1678,-2.1668,-2.1668,-2.1624,-2.1624,-2.1624,-2.1597,-2.1597,-2.132,-2.0393,-2.0022,-1.9513,-1.8534,-1.8118,-1.7615,-1.6586,-1.6452,0.0,0.0,-1.5328,-1.5534,-1.552,-1.598,-1.6412,-1.6639,-1.6446,-1.6573,-1.7134,-1.6901,-1.6974,-1.7555,-1.7575,-1.7494,-1.7206,-1.6854,-1.656,-1.6279,-1.5979,-1.5784,-1.5784,-1.5784,-1.5784,-1.5784,-1.5784,-1.5784,-1.5784,-1.5784,-1.5784,-1.5784,-1.5784,-1.5784,-1.5784,-1.5784,-1.5784,-1.5784,-1.5784,-1.5784,-1.5784,-1.5784,-1.6206,-1.6787,-1.7375,-1.7575,-1.7582,-1.7582,-1.7635,-1.7891,-1.8923,-1.9228,-1.9539,-2.068,-2.1709,-2.2274,-2.1242,-2.2619,-2.3587,-2.1446,-2.2669,-2.3895,-2.2778,-2.3447,-2.4202,-2.4202,-2.4202,-2.4202,-2.4202,-2.4202,-2.4202,-2.4202,-2.4202,-2.4202,-2.4202,-2.4202,-2.4202,-2.4202,-2.3138,-2.1548,-1.9383,-1.8199,-1.7582,-1.7582,-1.7582,-1.7582,-1.7582,-1.7582,-1.7582,-1.7582,-1.7582,-1.7582,-1.7582,-1.7582,-1.7582,0.0,0.0,-2.1696,-2.1696,-2.1696,-2.1696,-2.1696,-2.1696,-2.1597,-2.1275,-2.1051,-2.06,-1.9567,-1.9147,-1.8642,-1.7662,-1.7654,-1.7421,0.0,-1.5961,-1.5795,-1.5996,-1.6008,-1.6071,-1.6168,-1.6106,-1.628,-1.6847,-1.6782,-1.6961,-1.7549,-1.7582,-1.7542,-1.7494,-1.7199,-1.686,-1.656,-1.6273,-1.6025,-1.5784,-1.5784,-1.5784,-1.5784,-1.5784,-1.5784,-1.5784,-1.5784,-1.5784,-1.5784,-1.5784,-1.5784,-1.5784,-1.5784,-1.5784,-1.5784,-1.5784,-1.5784,-1.5784,-1.5784,-1.6086,-1.6453,-1.6653,-1.6847,-1.7041,-1.7286,-1.7347,-1.7439,-1.7994,-1.8146,-1.8408,-1.9487,-2.0055,-2.0416,-2.0834,-2.1446,-2.2005,-2.1962,-2.2005,-2.2367,-2.3438,-2.3338,-2.3288,-2.4053,-2.4202,-2.4202,-2.4202,-2.4202,-2.4202,-2.4202,-2.4202,-2.4202,-2.4202,-2.4202,-2.3895,-2.3138,-2.1387,-1.9687,-1.8251,-1.7786,-1.7582,-1.7582,-1.7582,-1.7582,-1.7582,-1.7582,-1.7582,-1.7582,-1.7582,-1.7582,-1.7582,-1.7582,-1.7582,-2.1183,-2.1257,0.0,-2.1431,-2.1511,0.0,-2.1659,-2.1696,-2.1696,-2.1696,-2.1607,-2.1293,-2.0682,-2.0402,-1.994,-1.8964,-1.8956,-1.8588,0.0,-1.6622,-1.6279,-1.614,-1.6067,-1.6121,-1.6331,-1.616,-1.6318,-1.6944,-1.6832,-1.6961,-1.7549,-1.7582,-1.7582,-1.7582,-1.7353,-1.7058,-1.6707,-1.642,-1.6126,-1.5784,-1.5784,-1.5784,-1.5784,-1.5784,-1.5784,-1.5784,-1.5784,-1.5784,-1.5784,-1.5784,-1.5784,-1.5784,-1.5784,-1.5784,-1.5784,-1.5784,-1.5784,-1.5798,-1.5952,-1.6112,-1.6342,-1.6393,-1.6553,-1.674,-1.6934,-1.7038,-1.7079,-1.7215,-1.7348,-1.763,-1.8292,-1.8837,-1.928,-1.9642,-2.0313,-2.0987,-2.1242,-2.1081,-2.1446,-2.3229,-2.2979,-2.2878,-2.3994,-2.4202,-2.4202,-2.4202,-2.4202,-2.4202,-2.4202,-2.4202,-2.4202,-2.4202,-2.4202,-2.3587,-2.2064,-2.0621,-1.9176,-1.7687,-1.7582,-1.7582,-1.7582,-1.7582,-1.7582,-1.7582,-1.7582,-1.7582,-1.7582,-1.7582,-1.7582,-1.7582,-1.7582,-1.7582]},{"header":{"parameterUnit":"m.s-1","parameterCategory":1,"la1":30.6,"la2":29.2853,"lo1":-89.7004,"lo2":-87.6739,"dy":0.0162,"dx":0.0183,"nx":112,"ny":82,"refTime":"2024-08-26T06:00:00:Z","depth":0,"parameterNumber":3,"parameterNumberName":"V-component_of_WINDS"},"data":[0.0,0.0,0.0,0.0,0.0,0.0,0.0,0.0,0.0,0.0,0.0,0.0,0.0,0.0,0.0,0.0,0.0,0.0,0.0,0.0,0.0,0.0,0.0,0.0,0.0,0.0,0.0,0.0,0.0,0.0,0.0,0.0,0.0,0.0,0.0,0.0,0.0,0.0,0.0,0.0,0.0,0.0,0.0,0.0,0.0,0.0,0.0,0.0,0.0,0.0,0.0,0.0,0.0,0.0,0.0,0.0,0.0,0.0,0.0,0.0,0.0,0.0,0.0,0.0,0.0,0.0,0.0,0.0,0.0,0.0,0.0,0.0,0.0,0.0,0.0,0.0,0.0,0.0,0.0,0.0,0.0,0.0,0.0,0.0,0.0,0.0,0.0,0.0,0.0,0.0,2.4048,2.2402,2.1373,2.0323,1.9198,1.9715,1.9447,1.7936,0.0,0.0,0.0,0.0,0.0,0.0,0.0,0.0,0.0,0.0,0.0,0.0,0.0,0.0,0.0,0.0,0.0,0.0,0.0,0.0,0.0,0.0,0.0,0.0,0.0,0.0,0.0,0.0,0.0,0.0,0.0,0.0,0.0,0.0,0.0,0.0,0.0,0.0,0.0,0.0,0.0,0.0,0.0,0.0,0.0,0.0,0.0,0.0,0.0,0.0,0.0,0.0,0.0,0.0,0.0,0.0,0.0,0.0,0.0,0.0,0.0,0.0,0.0,0.0,0.0,0.0,0.0,0.0,0.0,0.0,0.0,0.0,0.0,0.0,0.0,0.0,0.0,0.0,0.0,0.0,0.0,0.0,0.0,0.0,0.0,0.0,0.0,0.0,0.0,0.0,0.0,0.0,0.0,0.0,0.0,0.0,0.0,0.0,0.0,0.0,0.0,0.0,0.0,0.0,2.3584,2.2125,2.0445,1.933,1.9108,1.9715,1.9628,1.8538,0.0,0.0,0.0,0.0,0.0,0.0,0.0,0.0,0.0,0.0,0.0,0.0,0.0,0.0,0.0,0.0,0.0,0.0,0.0,0.0,0.0,0.0,0.0,0.0,0.0,0.0,0.0,0.0,0.0,0.0,0.0,0.0,0.0,0.0,0.0,0.0,0.0,0.0,0.0,0.0,0.0,0.0,0.0,0.0,0.0,0.0,0.0,0.0,0.0,0.0,0.0,0.0,0.0,0.0,0.0,0.0,0.0,0.0,0.0,0.0,0.0,0.0,0.0,0.0,0.0,0.0,0.0,0.0,0.0,0.0,0.0,0.0,0.0,0.0,0.0,0.0,0.0,0.0,0.0,0.0,0.0,0.0,0.0,0.0,0.0,0.0,0.0,0.0,0.0,0.0,0.0,0.0,0.0,0.0,0.0,0.0,0.0,0.0,0.0,0.0,0.0,0.0,0.0,2.3653,2.2911,2.2445,2.105,2.0031,1.9682,2.0258,2.0219,1.9201,2.0076,0.0,0.0,0.0,0.0,0.0,0.0,0.0,0.0,0.0,0.0,0.0,0.0,0.0,0.0,0.0,0.0,0.0,0.0,0.0,0.0,0.0,0.0,0.0,0.0,0.0,0.0,0.0,0.0,0.0,0.0,0.0,0.0,0.0,0.0,0.0,0.0,0.0,0.0,0.0,0.0,0.0,0.0,0.0,0.0,0.0,0.0,0.0,0.0,0.0,0.0,0.0,0.0,0.0,0.0,0.0,0.0,0.0,0.0,0.0,0.0,0.0,0.0,0.0,0.0,0.0,0.0,0.0,0.0,0.0,0.0,0.0,0.0,0.0,0.0,0.0,0.0,0.0,0.0,0.0,0.0,0.0,0.0,0.0,0.0,0.0,0.0,0.0,0.0,0.0,0.0,0.0,0.0,0.0,0.0,0.0,0.0,0.0,0.0,0.0,0.0,0.0,0.0,2.3461,2.2751,2.3005,2.1883,2.0901,2.0387,2.0819,2.0788,1.9883,2.0754,0.0,0.0,0.0,0.0,0.0,0.0,0.0,0.0,0.0,0.0,0.0,0.0,0.0,0.0,0.0,0.0,0.0,0.0,0.0,0.0,0.0,0.0,0.0,0.0,0.0,0.0,0.0,0.0,0.0,0.0,0.0,0.0,0.0,0.0,0.0,0.0,0.0,0.0,0.0,0.0,0.0,0.0,0.0,0.0,0.0,0.0,0.0,0.0,0.0,0.0,0.0,0.0,0.0,0.0,0.0,0.0,0.0,0.0,0.0,0.0,0.0,0.0,0.0,0.0,0.0,0.0,0.0,0.0,0.0,0.0,0.0,0.0,0.0,0.0,0.0,0.0,0.0,0.0,0.0,0.0,0.0,0.0,0.0,0.0,0.0,0.0,0.0,0.0,0.0,0.0,0.0,0.0,0.0,0.0,0.0,0.0,0.0,0.0,0.0,0.0,0.0,0.0,2.3858,2.3691,2.3746,2.2154,2.1092,2.1028,2.1181,2.1051,2.0466,2.0646,0.0,0.0,0.0,0.0,0.0,0.0,0.0,0.0,0.0,0.0,0.0,0.0,0.0,0.0,0.0,0.0,0.0,0.0,0.0,0.0,0.0,0.0,0.0,0.0,0.0,0.0,0.0,0.0,0.0,0.0,0.0,0.0,0.0,0.0,0.0,0.0,0.0,0.0,0.0,0.0,0.0,0.0,0.0,0.0,0.0,0.0,0.0,0.0,0.0,0.0,0.0,0.0,0.0,0.0,0.0,0.0,0.0,0.0,0.0,0.0,0.0,0.0,0.0,0.0,0.0,0.0,0.0,0.0,0.0,0.0,0.0,0.0,0.0,0.0,0.0,0.0,0.0,0.0,0.0,0.0,0.0,0.0,0.0,0.0,0.0,0.0,0.0,0.0,0.0,0.0,0.0,0.0,0.0,0.0,0.0,0.0,0.0,0.0,0.0,0.0,0.0,0.0,2.3779,2.3671,2.3961,2.2635,2.171,2.171,2.1469,2.125,2.1124,0.0,0.0,0.0,0.0,0.0,0.0,0.0,0.0,0.0,0.0,0.0,0.0,0.0,0.0,0.0,0.0,0.0,0.0,0.0,0.0,0.0,0.0,0.0,0.0,0.0,0.0,0.0,0.0,0.0,0.0,0.0,0.0,0.0,0.0,0.0,0.0,0.0,0.0,0.0,0.0,0.0,0.0,0.0,0.0,0.0,0.0,0.0,0.0,0.0,0.0,0.0,0.0,0.0,0.0,0.0,0.0,0.0,0.0,0.0,0.0,0.0,0.0,0.0,0.0,0.0,0.0,0.0,0.0,0.0,0.0,0.0,0.0,0.0,0.0,0.0,0.0,0.0,0.0,0.0,0.0,0.0,0.0,0.0,0.0,0.0,0.0,0.0,0.0,0.0,0.0,0.0,0.0,0.0,0.0,0.0,0.0,0.0,0.0,0.0,0.0,0.0,0.0,2.4287,2.4116,2.4109,2.4449,2.333,2.2586,2.2586,2.1864,2.1486,2.1562,0.0,0.0,0.0,0.0,0.0,0.0,0.0,0.0,0.0,0.0,0.0,0.0,0.0,0.0,0.0,0.0,0.0,0.0,0.0,0.0,0.0,0.0,0.0,0.0,0.0,0.0,0.0,0.0,0.0,0.0,0.0,0.0,0.0,0.0,0.0,0.0,0.0,0.0,0.0,0.0,0.0,0.0,0.0,0.0,0.0,0.0,0.0,0.0,0.0,0.0,0.0,0.0,0.0,0.0,0.0,0.0,0.0,0.0,0.0,0.0,0.0,0.0,0.0,0.0,0.0,0.0,0.0,0.0,0.0,0.0,0.0,0.0,0.0,0.0,0.0,0.0,0.0,0.0,0.0,0.0,0.0,0.0,0.0,0.0,0.0,0.0,0.0,0.0,0.0,0.0,0.0,0.0,0.0,0.0,0.0,0.0,0.0,0.0,0.0,0.0,0.0,0.0,2.4661,2.4979,2.5294,2.5294,2.4295,2.3599,2.3599,2.2436,2.169,0.0,0.0,0.0,0.0,0.0,0.0,0.0,0.0,0.0,0.0,0.0,0.0,0.0,0.0,0.0,0.0,0.0,0.0,0.0,0.0,0.0,0.0,0.0,0.0,0.0,0.0,0.0,0.0,0.0,0.0,0.0,0.0,0.0,0.0,0.0,0.0,0.0,0.0,0.0,0.0,0.0,0.0,0.0,0.0,0.0,0.0,0.0,0.0,0.0,0.0,0.0,0.0,0.0,0.0,0.0,0.0,0.0,0.0,0.0,0.0,0.0,0.0,0.0,0.0,0.0,0.0,0.0,0.0,0.0,0.0,0.0,0.0,0.0,0.0,0.0,0.0,0.0,0.0,0.0,0.0,0.0,0.0,0.0,0.0,0.0,0.0,0.0,0.0,0.0,0.0,0.0,0.0,0.0,0.0,0.0,0.0,0.0,0.0,0.0,0.0,0.0,0.0,0.0,2.5814,2.5994,2.5977,2.5358,2.4295,2.3569,2.345,2.2379,2.1675,2.1564,0.0,0.0,0.0,0.0,0.0,0.0,0.0,0.0,0.0,0.0,0.0,0.0,0.0,0.0,0.0,0.0,0.0,0.0,0.0,0.0,0.0,0.0,0.0,0.0,0.0,0.0,0.0,0.0,0.0,0.0,0.0,0.0,0.0,0.0,0.0,0.0,0.0,0.0,0.0,0.0,0.0,0.0,0.0,0.0,0.0,0.0,0.0,0.0,0.0,0.0,0.0,0.0,0.0,0.0,0.0,0.0,0.0,0.0,0.0,0.0,0.0,0.0,0.0,0.0,0.0,0.0,0.0,0.0,0.0,0.0,0.0,0.0,0.0,0.0,0.0,0.0,0.0,0.0,0.0,0.0,0.0,0.0,0.0,0.0,0.0,0.0,0.0,0.0,0.0,0.0,0.0,0.0,0.0,0.0,0.0,0.0,0.0,0.0,0.0,0.0,0.0,0.0,2.7159,2.7012,2.6867,2.6556,2.5213,2.4321,2.4292,2.3113,2.2335,2.2254,0.0,0.0,0.0,0.0,0.0,0.0,0.0,0.0,0.0,0.0,0.0,0.0,0.0,0.0,0.0,0.0,0.0,0.0,0.0,0.0,0.0,0.0,0.0,0.0,0.0,0.0,0.0,0.0,0.0,0.0,0.0,0.0,0.0,0.0,0.0,0.0,0.0,0.0,0.0,0.0,0.0,0.0,0.0,0.0,0.0,0.0,0.0,0.0,0.0,0.0,0.0,0.0,0.0,0.0,0.0,0.0,0.0,0.0,0.0,0.0,0.0,0.0,0.0,0.0,0.0,0.0,0.0,0.0,0.0,0.0,0.0,0.0,0.0,0.0,0.0,0.0,0.0,0.0,0.0,0.0,0.0,0.0,0.0,0.0,0.0,0.0,0.0,0.0,0.0,0.0,0.0,0.0,0.0,0.0,0.0,0.0,0.0,0.0,0.0,0.0,0.0,0.0,2.8402,2.7994,2.7839,2.8251,2.6576,2.5453,2.5536,2.4295,2.345,2.3396,0.0,0.0,0.0,0.0,0.0,0.0,0.0,0.0,0.0,0.0,0.0,0.0,0.0,0.0,0.0,0.0,0.0,0.0,0.0,0.0,0.0,0.0,0.0,0.0,0.0,0.0,0.0,0.0,0.0,0.0,0.0,0.0,0.0,0.0,0.0,0.0,0.0,0.0,0.0,0.0,0.0,0.0,0.0,0.0,0.0,0.0,0.0,0.0,0.0,0.0,0.0,0.0,0.0,0.0,0.0,0.0,0.0,0.0,0.0,0.0,3.0738,2.9956,0.0,0.0,0.0,0.0,0.0,0.0,0.0,0.0,0.0,0.0,0.0,0.0,0.0,0.0,0.0,0.0,0.0,0.0,0.0,0.0,0.0,0.0,0.0,0.0,0.0,0.0,0.0,0.0,0.0,0.0,0.0,0.0,0.0,0.0,0.0,0.0,0.0,0.0,0.0,0.0,2.8469,2.8857,2.8754,2.7591,2.6313,2.5481,2.5287,2.4627,2.3915,2.3266,2.2431,0.0,0.0,0.0,0.0,0.0,0.0,0.0,0.0,0.0,0.0,0.0,0.0,0.0,0.0,0.0,0.0,0.0,0.0,0.0,0.0,0.0,0.0,0.0,0.0,0.0,0.0,0.0,0.0,0.0,0.0,0.0,0.0,0.0,0.0,0.0,0.0,0.0,0.0,0.0,0.0,0.0,0.0,0.0,0.0,0.0,0.0,0.0,0.0,0.0,0.0,0.0,0.0,0.0,0.0,0.0,0.0,0.0,0.0,0.0,3.2682,3.1457,0.0,0.0,0.0,0.0,0.0,0.0,0.0,0.0,0.0,0.0,0.0,0.0,0.0,0.0,0.0,0.0,0.0,0.0,0.0,0.0,0.0,0.0,0.0,0.0,0.0,0.0,0.0,0.0,0.0,0.0,0.0,0.0,0.0,0.0,0.0,0.0,0.0,0.0,0.0,0.0,2.9812,2.9869,2.9666,2.8785,2.7294,2.6336,2.6256,2.5659,2.5083,2.4654,2.3781,0.0,0.0,0.0,0.0,0.0,0.0,0.0,0.0,0.0,0.0,0.0,0.0,0.0,0.0,0.0,0.0,0.0,0.0,0.0,0.0,0.0,0.0,0.0,0.0,0.0,0.0,0.0,0.0,0.0,0.0,0.0,0.0,0.0,0.0,0.0,0.0,0.0,0.0,0.0,0.0,0.0,0.0,0.0,0.0,0.0,0.0,0.0,0.0,0.0,0.0,0.0,0.0,0.0,3.8598,3.8553,3.7899,3.7899,3.7999,3.7986,3.4752,3.3448,3.3624,3.3143,0.0,0.0,0.0,0.0,0.0,0.0,0.0,0.0,0.0,0.0,0.0,0.0,0.0,0.0,0.0,0.0,0.0,0.0,0.0,0.0,0.0,0.0,3.363,0.0,3.3541,3.3604,3.216,0.0,0.0,0.0,0.0,0.0,0.0,0.0,0.0,0.0,0.0,0.0,3.1422,3.1036,3.0549,3.0179,2.8509,2.7391,2.7325,2.672,2.6291,2.6134,2.5135,2.446,0.0,0.0,0.0,0.0,0.0,0.0,0.0,0.0,0.0,0.0,0.0,0.0,0.0,0.0,0.0,0.0,0.0,0.0,0.0,0.0,0.0,0.0,0.0,0.0,0.0,0.0,0.0,0.0,0.0,0.0,0.0,0.0,3.2453,3.2531,0.0,0.0,0.0,0.0,0.0,0.0,0.0,0.0,0.0,0.0,0.0,0.0,0.0,3.7546,3.7001,3.8365,3.9049,3.9083,4.0375,4.0326,3.9067,3.9067,3.8418,3.7281,3.7369,0.0,3.5788,3.572,0.0,0.0,0.0,0.0,0.0,0.0,0.0,0.0,0.0,0.0,0.0,0.0,0.0,0.0,0.0,0.0,0.0,0.0,0.0,0.0,0.0,0.0,3.471,3.4634,3.4667,3.4693,0.0,3.3101,3.1935,3.2019,3.146,3.1017,0.0,0.0,0.0,0.0,0.0,0.0,3.2333,3.2261,3.1512,2.9714,2.8765,2.7906,2.7125,2.6956,2.6597,2.5897,2.5705,2.5361,2.4815,2.5303,0.0,0.0,0.0,0.0,0.0,0.0,0.0,0.0,0.0,0.0,0.0,0.0,0.0,0.0,0.0,0.0,0.0,0.0,0.0,0.0,0.0,0.0,0.0,0.0,0.0,0.0,0.0,0.0,0.0,3.2398,3.3332,3.3332,3.3955,3.4121,0.0,0.0,0.0,0.0,0.0,0.0,0.0,0.0,0.0,3.6158,3.7483,3.8245,3.8328,3.9752,4.0481,4.0481,4.1541,4.1491,4.0481,4.0481,4.0133,3.9537,3.9868,3.922,3.7945,3.7945,3.7026,3.5659,0.0,0.0,0.0,0.0,3.7357,3.7343,3.7111,3.6571,3.5794,3.4603,0.0,0.0,0.0,0.0,0.0,0.0,0.0,3.5218,0.0,0.0,3.5512,3.5512,3.5197,3.5015,3.5429,3.4855,3.4064,3.3416,3.3092,3.2686,3.1992,3.1951,0.0,0.0,0.0,3.3444,3.3505,3.315,3.2139,3.0167,2.9366,2.8484,2.7332,2.7222,2.7038,2.6601,2.6846,2.6971,2.6988,2.6798,2.6914,0.0,0.0,0.0,0.0,0.0,0.0,0.0,0.0,0.0,0.0,0.0,0.0,0.0,0.0,0.0,0.0,0.0,0.0,0.0,0.0,0.0,0.0,0.0,0.0,0.0,0.0,0.0,0.0,3.3617,3.4625,3.4144,3.5595,3.6074,0.0,0.0,0.0,0.0,0.0,0.0,3.7632,3.8013,3.8129,3.7947,3.8841,3.9471,3.9818,4.0878,4.1409,4.1425,4.1972,4.1827,4.1143,4.1143,4.1044,4.0862,4.0862,4.0266,3.9299,3.9299,3.8742,3.798,3.851,3.8868,3.9067,3.9431,3.9464,3.9332,3.9514,3.8807,3.7617,3.6377,3.5555,3.4964,3.4568,0.0,0.0,0.0,0.0,3.6696,3.7261,3.7009,3.6567,3.647,3.6013,3.574,3.6183,3.629,3.6051,3.5313,3.5043,3.4632,3.3668,3.3762,0.0,3.4292,3.437,3.451,3.4738,3.4,3.2746,3.0954,3.0159,2.9244,2.798,2.7694,2.7539,2.7382,2.7887,2.8337,2.8677,2.8124,2.8357,2.9463,0.0,0.0,0.0,0.0,0.0,0.0,0.0,0.0,0.0,0.0,0.0,0.0,0.0,0.0,0.0,0.0,0.0,0.0,0.0,0.0,0.0,0.0,0.0,0.0,0.0,0.0,0.0,0.0,0.0,3.5046,3.8693,0.0,0.0,0.0,0.0,3.8655,3.8911,3.9149,3.9183,4.0464,4.0895,4.026,4.1574,4.196,4.1309,4.1347,4.1409,4.1409,4.1458,4.111,4.0459,4.0459,4.0078,3.9415,3.9415,3.9365,3.9299,3.9299,3.8444,3.7168,3.7201,3.7649,3.8179,3.7516,3.8129,3.91,3.7731,3.7656,3.8053,3.7275,3.7253,3.7576,3.7938,3.8508,0.0,0.0,3.8617,3.8993,3.8401,3.8213,3.8086,3.7708,3.7603,3.7465,3.7111,3.7052,3.7226,3.7862,3.7432,3.6964,3.7037,0.0,3.6297,3.6978,3.605,3.5443,3.6039,3.4946,3.3527,3.1894,3.1129,3.0282,2.9205,2.8528,2.8097,2.7889,2.8541,2.8961,2.8986,2.893,2.8652,2.8094,2.7908,0.0,0.0,0.0,0.0,0.0,0.0,0.0,0.0,0.0,0.0,0.0,0.0,0.0,0.0,0.0,0.0,0.0,0.0,0.0,0.0,0.0,0.0,0.0,0.0,0.0,0.0,0.0,0.0,3.7757,3.9194,0.0,3.8512,3.9119,3.9885,4.0618,4.0773,4.1052,4.1527,4.2035,4.2178,4.195,4.2431,4.2567,4.2296,4.2243,4.2006,4.1533,4.149,4.1101,4.04,4.04,4.0265,4.0011,4.0011,4.0011,4.0011,4.0011,3.9705,3.9255,3.9702,4.0034,4.0222,3.9967,4.0199,4.058,4.0067,3.9616,3.9144,3.8171,3.8121,3.8468,3.8826,3.9433,3.9963,3.9723,3.9826,3.9939,3.9723,3.9296,3.8897,3.8778,3.8414,3.818,3.8437,3.8353,3.8405,3.9158,3.8493,3.7654,3.7225,3.7752,3.8114,3.7906,3.7065,3.6538,3.6746,3.5544,3.4118,3.2786,3.2415,3.1556,2.9817,2.9441,2.8969,2.8198,2.8817,2.9449,3.0007,2.9997,3.0418,3.1378,3.0058,2.9334,0.0,0.0,0.0,0.0,0.0,0.0,0.0,0.0,0.0,0.0,0.0,0.0,0.0,0.0,0.0,0.0,0.0,0.0,0.0,0.0,0.0,0.0,0.0,0.0,0.0,3.843,3.9364,3.975,4.0885,4.1205,4.0094,4.0896,4.1697,4.2188,4.2577,4.298,4.3476,4.3493,4.3493,4.3493,4.3493,4.339,4.3134,4.2868,4.233,4.1561,4.1263,4.087,4.04,4.04,4.04,4.04,4.04,4.04,4.04,4.04,4.0383,4.0431,4.0771,4.0965,4.1057,4.0927,4.0965,4.1057,4.1057,4.0621,3.9937,3.9337,3.9285,3.9515,3.9896,4.0358,4.0731,4.0778,4.0802,4.0802,4.0802,4.0446,4.0043,3.9903,3.9519,3.9306,3.9593,3.9489,3.9454,3.9825,3.918,3.8411,3.793,3.8669,3.9133,3.8642,3.7731,3.7102,3.7102,3.581,3.4558,3.3664,3.3379,3.2635,3.1126,3.0458,2.9943,2.9435,2.9741,3.0316,3.1129,3.09,3.145,3.2929,3.1611,3.0916,3.0916,0.0,0.0,0.0,0.0,0.0,0.0,0.0,0.0,0.0,0.0,0.0,0.0,0.0,0.0,0.0,0.0,0.0,0.0,0.0,0.0,0.0,0.0,0.0,3.7835,4.1007,4.2732,4.0937,4.3924,4.4795,4.1528,4.3811,4.4896,4.3432,4.4293,4.4903,4.4903,4.492,4.492,4.4903,4.4903,4.4544,4.3809,4.3074,4.2322,4.1527,4.08,4.0424,4.0424,4.0424,4.0424,4.0424,4.0424,4.0424,4.0424,4.0424,4.0424,4.04,4.0045,4.0104,4.0368,4.0045,4.0129,4.04,4.04,4.0377,4.0362,4.07,4.0765,4.0793,4.1267,4.1403,4.1426,4.156,4.1604,4.1604,4.1604,4.1604,4.1498,4.1117,4.1024,4.0913,4.0521,4.0424,4.0319,3.9986,3.9616,3.9325,3.9299,3.9299,3.9299,3.9299,3.803,0.0,3.7102,3.581,3.4804,3.4546,3.3922,3.3425,3.3129,3.1604,3.0941,3.1574,3.1355,3.1539,3.2291,3.165,3.1618,3.237,3.2323,3.2307,3.2323,0.0,0.0,0.0,0.0,0.0,0.0,0.0,0.0,0.0,0.0,0.0,0.0,0.0,0.0,0.0,0.0,0.0,0.0,0.0,0.0,0.0,4.0849,4.2284,4.2176,4.2625,4.3197,4.3783,4.3786,4.3576,4.3174,4.3413,4.3617,4.3722,4.4551,4.5035,4.5035,4.554,4.5593,4.5053,4.5035,4.4677,4.3892,4.3136,4.2648,4.2422,4.1638,4.1277,4.1277,4.1277,4.1277,4.1277,4.1277,4.1277,4.1277,4.1277,4.1277,4.1209,4.0531,4.0319,4.0375,4.0294,4.0319,4.04,4.04,4.0392,4.0434,4.0819,4.0931,4.0995,4.1426,4.1538,4.156,4.1582,4.1604,4.1604,4.1604,4.1604,4.1582,4.1453,4.1431,4.1408,4.13,4.103,4.0795,4.0717,4.0385,3.9935,3.9388,3.9299,3.9299,3.9299,3.803,3.7102,3.7102,3.581,3.4875,3.4804,3.4438,3.3989,3.3353,3.2707,3.2128,3.1646,3.1533,3.1951,3.2987,3.2835,3.3293,3.4537,3.3066,3.2544,0.0,0.0,0.0,0.0,0.0,0.0,0.0,0.0,0.0,0.0,0.0,0.0,0.0,0.0,0.0,0.0,0.0,0.0,0.0,0.0,0.0,0.0,4.2728,4.4132,4.4782,4.4237,4.4097,4.4992,4.4009,4.3307,4.343,4.3325,4.3307,4.343,4.4466,4.4957,4.4624,4.5326,4.5396,4.4624,4.4606,4.422,4.3447,4.3026,4.264,4.2306,4.1832,4.1604,4.1604,4.1604,4.1604,4.1604,4.1604,4.1604,4.1604,4.1604,4.1604,0.0,0.0,0.0,0.0,0.0,4.0896,4.0896,4.0896,4.0866,4.0866,4.1094,4.1117,4.114,4.1431,4.1515,4.1538,4.1582,4.1604,4.1604,4.1604,4.1604,4.1604,4.1604,4.1604,4.1604,4.1604,4.1408,4.1186,4.1024,4.0819,0.0,3.9859,3.9773,3.9713,3.9573,3.8312,3.7286,3.7127,3.5712,3.4715,3.4715,3.4497,3.4145,3.3722,3.3194,0.0,0.0,0.0,3.2752,3.3672,3.402,0.0,0.0,0.0,0.0,0.0,0.0,0.0,0.0,3.3565,3.4047,0.0,0.0,0.0,0.0,0.0,0.0,0.0,0.0,0.0,0.0,0.0,0.0,0.0,0.0,0.0,0.0,4.4115,4.4606,4.5898,4.5424,4.4992,4.5098,4.4325,4.3518,4.2868,4.3307,4.3377,4.271,4.4027,4.4536,4.3799,4.4536,0.0,0.0,0.0,4.3412,4.2675,4.2675,4.2324,4.1604,4.1604,4.1604,4.1604,4.1604,4.1604,4.1604,4.1604,4.1604,4.1604,4.1604,4.1604,4.156,4.1226,4.1295,4.1604,4.1604,4.1604,4.1604,4.1604,0.0,0.0,4.1426,4.134,4.1255,4.1403,4.1426,4.1448,4.156,4.1604,4.1604,4.1604,4.1604,4.1604,4.1604,4.1604,4.1604,4.1604,4.1604,4.1475,4.114,4.1071,4.0937,4.0611,4.0449,4.0294,4.0011,3.8771,3.7722,3.7278,3.5786,3.4773,3.4667,0.0,0.0,3.4159,3.34,3.3422,3.459,3.408,3.4043,3.4695,3.5443,3.5824,3.5824,3.6862,3.7395,3.7395,3.785,3.7818,3.7261,3.5214,3.5364,0.0,0.0,0.0,0.0,0.0,0.0,0.0,0.0,0.0,0.0,0.0,0.0,0.0,0.0,0.0,4.4641,4.5354,4.5635,4.5361,4.4624,4.4378,4.5027,4.3869,4.2973,4.2793,4.2342,4.199,4.185,4.271,4.3184,4.3026,4.3728,4.3799,4.3044,4.3026,4.264,4.185,4.1832,4.1762,4.1604,4.1604,0.0,4.1604,4.1604,4.1604,4.1604,4.1604,4.1604,4.1604,4.1604,4.1604,4.1604,4.1498,4.1538,4.1604,4.1604,4.1604,4.1604,4.1604,4.1582,4.156,4.156,4.1542,4.1538,4.156,4.156,0.0,4.1604,4.1604,4.1604,4.1604,4.1604,4.1604,4.1604,4.1604,4.1604,4.1604,4.1604,4.1582,4.1515,4.1475,4.1453,4.1386,4.0825,4.0375,4.0319,3.9552,3.8744,3.8071,3.7159,3.6361,3.5711,3.5144,3.4738,3.4521,3.4371,3.434,3.4381,3.5716,3.6772,3.7347,3.8087,3.8471,3.8471,3.8127,3.7959,3.7959,3.7877,3.8113,3.8603,3.7152,3.7243,0.0,0.0,0.0,0.0,0.0,0.0,0.0,0.0,0.0,0.0,0.0,4.1293,4.2065,0.0,4.4273,4.5466,4.5951,4.5933,4.5203,4.4413,4.3904,4.3957,4.2921,4.2201,4.2201,4.185,4.1604,4.1604,4.2693,4.3009,4.2254,4.3272,4.3377,4.2254,4.2201,4.2008,4.1604,4.1604,4.1604,4.1604,4.1604,4.1604,4.1604,4.1604,4.1604,4.1604,4.1604,4.1604,4.1604,4.1604,4.1604,4.1604,4.1604,4.1604,4.1604,4.1604,4.1604,4.1582,4.1515,4.1538,4.1582,4.1515,4.1538,4.1604,4.1604,4.1604,4.1604,4.1604,4.1604,4.1604,4.1604,4.1604,4.1604,4.1604,4.1604,4.1604,4.1604,4.1604,4.1604,4.1604,4.1604,4.1604,4.1604,4.1277,4.0919,4.0731,4.0076,3.9387,3.8824,3.7961,3.725,3.6842,3.6343,3.5999,3.586,3.6193,3.6342,3.6194,3.7475,3.8377,3.8626,3.899,3.9206,3.9206,3.9096,3.905,3.905,3.9244,3.9559,3.9953,3.9319,3.9336,0.0,0.0,0.0,0.0,0.0,0.0,0.0,3.9024,3.9638,4.1099,4.1973,4.2833,4.3921,4.4255,4.4764,4.6003,4.6196,4.5881,4.4992,4.4308,4.357,4.2675,4.199,4.1604,4.1604,4.1604,4.1604,4.1604,4.2903,4.3131,4.1903,4.3009,4.3114,4.1885,4.1692,4.1604,4.1604,4.1604,4.1604,4.1604,4.1604,4.1604,4.1604,4.1604,4.1604,4.1604,4.1604,4.1604,4.1604,4.1604,4.1604,4.1604,4.1604,4.1604,4.1604,4.1604,4.1604,4.1582,4.1471,4.1515,4.1582,4.1471,4.1515,4.1604,4.1604,4.1604,4.1604,4.1604,4.1604,4.1604,4.1604,4.1604,4.1604,4.1604,4.1604,4.1604,4.1604,4.1604,4.1604,4.1604,4.1582,4.156,4.1604,4.156,4.1431,4.1117,4.0573,4.0014,3.9519,3.8689,3.8116,3.7963,3.7571,3.7369,3.7353,3.7808,3.8216,3.8469,3.9042,3.9418,3.9523,3.9523,3.9523,3.9523,3.9969,4.017,4.017,4.0662,4.0912,4.0912,4.0912,4.0912,3.769,3.8354,3.9213,4.0516,4.0485,4.1012,0.0,4.4185,4.35,4.4395,4.5185,4.553,4.5045,4.5519,4.6003,4.6179,4.6196,4.5688,4.4237,4.3957,4.336,4.192,4.1657,4.1604,4.1604,4.1604,4.1604,4.1604,4.2429,4.2851,4.2675,4.2833,4.2851,4.2675,4.1973,4.1604,4.1604,4.1604,4.1604,4.1604,4.1604,4.1604,4.1604,4.1604,4.1604,4.1604,4.1604,4.1604,4.1604,4.1604,4.1604,4.1604,4.1604,4.1604,4.1604,4.1604,4.1604,4.1604,4.1582,4.1582,4.1604,4.1582,4.1582,4.1604,4.1604,4.1604,4.1604,4.1604,4.1604,4.1604,4.1604,4.1604,4.1604,4.1604,4.1604,4.1604,4.1604,4.1604,4.1604,4.1604,4.1515,4.1471,4.1582,4.1408,4.1255,4.134,4.1288,4.0929,4.011,3.9909,3.9557,3.8846,3.847,3.8272,3.833,3.8193,3.8587,3.9733,3.9851,4.0145,4.0704,4.071,4.071,4.071,4.0776,4.0799,4.0799,4.0871,4.0912,4.0912,4.0912,4.0912,3.848,3.9687,4.0691,4.0902,4.1732,4.2886,4.4501,4.436,4.4255,4.5477,4.5986,4.6109,4.5793,4.5986,4.6196,4.6196,4.6196,4.5653,4.4115,4.3904,4.3325,4.178,4.1604,4.1604,4.1604,4.1604,4.1604,4.1604,4.2359,4.2816,4.2816,4.3219,4.3237,4.2793,4.2482,4.2078,4.1604,4.1604,4.1604,4.1604,4.1604,4.1604,4.1604,4.1604,4.1604,4.1604,4.1604,4.1604,4.1604,4.1604,4.1604,4.1604,4.1604,4.1604,4.1604,4.1604,4.1604,4.1582,4.1515,4.1538,4.1582,4.1515,4.1538,4.1604,4.1604,4.1604,4.1604,4.1604,4.1604,4.1604,4.1604,4.1604,4.1604,4.1604,4.1604,4.1604,4.1604,4.1604,4.1604,4.1604,4.1493,4.1448,4.1582,4.1431,4.1318,4.1295,4.1277,4.115,4.0791,4.0723,4.0533,4.0118,3.9928,3.9862,3.989,3.9785,3.9971,4.0483,4.0524,4.0638,4.0888,4.0912,4.0912,4.0912,4.0912,4.0912,4.0912,4.0912,4.0912,4.0912,4.0912,4.0912,3.9059,4.0604,4.185,4.1539,4.2856,4.4273,4.4501,4.4536,4.4852,4.5968,4.6196,4.6196,4.6196,4.6196,4.6196,4.6196,4.6196,4.5653,4.4115,4.3904,4.3412,4.2096,4.1938,4.1938,4.1938,4.1745,4.1692,4.192,4.2658,4.3202,4.343,4.3939,4.3886,4.3131,4.2921,4.2412,4.1604,4.1604,4.1604,4.1604,4.1604,4.1604,4.1604,4.1604,4.1604,4.1604,4.1604,4.1604,4.1604,4.1604,4.1604,4.1604,4.1604,4.1604,4.1604,4.1604,4.1604,4.1582,4.1493,4.1515,4.1582,4.1493,4.1515,4.1604,4.1604,4.1604,4.1604,4.1604,4.1604,4.1604,4.1604,4.1604,4.1604,4.1604,4.1604,4.1604,4.1604,4.1604,4.1604,4.1604,4.1493,4.1448,4.1582,4.1448,4.129,4.1209,4.114,4.1117,4.1117,4.1059,4.1023,4.0912,4.0912,4.0912,4.0912,4.0912,4.0912,4.0912,4.0912,4.0912,4.0912,4.0912,4.0912,4.0912,4.0912,4.0912,4.0912,4.0912,4.0912,4.0912,4.0912,4.0912,3.9498,4.1007,4.2938,4.3623,4.4431,4.5256,4.5968,4.6126,4.6144,4.6196,4.6196,4.6196,4.6196,4.6196,4.6196,4.6196,4.6196,4.5653,4.4115,4.3904,4.3623,4.2851,4.2763,4.2763,4.2763,4.2061,4.192,4.271,4.3447,4.4202,4.4992,4.5045,4.4694,4.3886,4.3184,4.2412,4.1604,4.1604,4.1604,4.1604,4.1604,4.1604,4.1604,4.1604,4.1604,4.1604,4.1604,4.1604,4.1604,4.1604,4.1604,4.1604,4.1604,4.1604,4.1604,4.1604,4.1604,4.1604,4.1604,4.1604,4.1604,4.1604,4.1604,4.1604,4.1604,4.1604,4.1604,4.1604,4.1604,4.1604,4.1604,4.1604,4.1604,4.1604,4.1604,4.1604,4.1604,4.1604,4.1604,4.1604,4.1493,4.1448,4.1582,4.133,4.1123,4.1186,4.1018,4.0912,4.0912,4.0912,4.0894,4.0912,4.0912,4.0912,4.0912,4.0912,4.0912,4.0912,4.0912,4.0912,4.0912,4.0912,4.0912,4.0912,4.0912,4.0912,4.0912,4.0912,4.0912,4.0912,4.0912,4.0912,4.1011,4.1615,4.2201,4.2973,4.3746,4.4378,4.4624,4.5098,4.5326,4.4782,4.5115,4.5326,4.4782,4.5115,4.5484,4.5484,4.5881,4.5846,4.4834,4.4694,4.4413,4.3623,4.3535,4.3535,4.3535,4.2851,4.2517,4.2798,4.3044,4.3728,4.5027,4.5098,4.4975,4.4694,4.3939,4.3167,4.2412,4.1868,4.1604,4.1604,4.1604,4.1604,4.1604,4.1604,4.1604,4.1604,4.1604,4.1604,4.1604,4.1604,4.1604,4.1604,4.1604,4.1538,4.1471,4.1471,4.1408,4.1363,4.1448,4.1471,4.1471,4.1471,4.1471,4.1493,4.1582,4.1604,4.1604,4.1604,4.1604,4.1604,4.1604,4.1604,4.1604,4.1604,4.1604,4.1604,4.1604,4.1538,4.1471,4.1471,4.133,4.1238,4.1318,4.1198,4.1117,4.1123,4.1006,4.0912,4.0912,4.0912,4.0912,4.0912,4.0912,4.0912,4.0912,4.0912,4.0912,4.0912,4.0912,4.0912,4.0912,4.0912,4.0912,4.0912,4.0912,4.0912,4.0912,4.0912,4.0912,4.0912,4.0912,4.0912,4.2062,4.2326,4.2427,4.3222,4.3673,4.3904,4.3904,4.429,4.4518,4.4009,4.4308,4.4518,4.3992,4.4553,4.5098,4.5098,4.5705,4.5933,4.5203,4.5098,4.4904,4.4395,4.4325,4.4325,4.4325,4.3904,4.3623,4.3623,4.3623,4.4185,4.5431,4.5501,4.5378,4.5115,4.4325,4.3553,4.2816,4.2008,4.1604,4.1604,4.1604,4.1604,4.1604,4.1604,4.1604,4.1604,4.1604,4.1604,4.1604,4.1604,4.156,4.1538,4.1538,4.1448,4.1318,4.1318,4.1255,4.1209,4.1295,4.1318,4.1318,4.1318,4.1318,4.134,4.1431,4.1453,4.1453,4.1453,4.1453,4.1453,4.1453,4.1453,4.1453,4.1453,4.1453,4.1453,4.1453,4.1386,4.1318,4.1318,4.1221,4.1152,4.1186,4.1129,4.107,4.1047,4.0959,4.0912,4.0912,4.0912,4.0912,4.0912,4.0912,4.0912,4.0912,4.0912,4.0912,4.0912,4.0912,4.0912,4.0912,4.0912,4.0912,4.0912,4.0912,4.0912,4.0912,4.0912,4.0912,4.0912,4.0912,4.0912,4.2611,4.3097,4.3536,4.4232,4.4116,4.381,4.381,4.3839,4.3834,4.3781,4.3816,4.3834,4.3781,4.4501,4.5098,4.5098,4.574,4.6021,4.5326,4.5185,4.5168,4.5168,4.5168,4.5168,4.5168,4.5168,4.5168,4.5168,4.5115,4.5431,4.6161,4.6196,4.5881,4.5185,4.4343,4.357,4.2868,4.2026,4.1604,4.1604,4.1604,4.1604,4.1582,4.1604,4.1604,4.1582,4.1604,4.1604,4.1604,4.1604,4.1515,4.1403,4.1403,4.1318,4.1186,4.1186,4.1186,4.1186,4.1186,4.1186,4.1186,4.1186,4.1186,4.1209,4.1209,4.1209,4.1209,4.1209,4.1209,4.1209,4.1209,4.1209,4.1209,4.1209,4.1209,4.1209,4.1209,4.1209,4.1186,4.1186,4.1186,4.1186,4.1186,4.1129,4.1047,4.0935,4.0912,4.0912,4.0912,4.0912,4.0912,4.0912,4.0912,4.0912,4.0912,4.0912,4.0912,4.0912,4.0912,4.0912,4.0912,4.0912,4.0912,4.0912,4.0912,4.0912,4.0912,4.0912,4.0912,4.0912,4.0912,4.0912,4.3193,4.3104,4.2999,4.3197,4.2931,4.2615,4.2615,4.2869,4.2921,4.2306,4.2658,4.2903,4.2306,4.3781,4.5098,4.5098,4.6221,4.7029,4.6835,4.6309,4.5916,4.5916,4.5916,4.5916,4.5916,4.5916,4.5916,4.5916,4.5414,4.5431,4.6161,4.6196,4.6109,4.5933,4.4606,4.3799,4.3623,4.2289,4.1604,4.1604,4.1604,4.156,4.1448,4.156,4.1538,4.1448,4.156,4.1604,4.1582,4.1493,4.1426,4.1403,4.1295,4.1198,4.1123,4.1123,4.1059,4.0989,4.0989,4.1035,4.1123,4.1123,4.1123,4.1146,4.1186,4.1209,4.1209,4.1209,4.1209,4.1209,4.1209,4.1209,4.1209,4.1209,4.1209,4.1209,4.1209,4.1175,4.1123,4.1123,4.1035,4.0989,4.0989,4.0942,4.0935,4.0912,4.0912,4.0912,4.0912,4.0912,4.0912,4.0912,4.0912,4.0912,4.0912,4.0912,4.0912,4.0912,4.0912,4.0912,4.0912,4.0912,4.0912,4.0912,4.0912,4.0912,4.0912,4.0912,4.0912,4.0912,4.0912,4.0912,4.3568,4.3371,4.3069,4.3069,4.2638,4.2198,4.2198,4.2231,4.2148,4.1692,4.1973,4.2148,4.1692,4.3518,4.5098,4.5098,4.6677,4.7766,4.7432,4.7011,4.6582,4.6249,4.6196,4.6196,4.6196,4.6196,4.6196,4.6196,4.581,4.5758,4.6179,4.6196,4.6196,4.6196,4.5062,4.4097,4.3412,4.2219,4.1604,4.1604,4.1604,4.1538,4.1403,4.1538,4.1538,4.1403,4.1538,4.156,4.1515,4.1426,4.1335,4.1261,4.1175,4.1099,4.1006,4.1006,4.0959,4.0912,4.0912,4.0959,4.1006,4.1006,4.1006,4.1006,4.1041,4.1065,4.1065,4.1065,4.1065,4.1065,4.1065,4.1065,4.1065,4.1065,4.1065,4.1065,4.1065,4.1035,4.1006,4.1006,4.0959,4.0912,4.0912,4.0912,4.0912,4.0912,4.0912,4.0912,4.0912,4.0912,4.0912,4.0912,4.0912,4.0912,4.0912,4.0912,4.0912,4.0912,4.0912,4.0912,4.0912,4.0912,4.0912,4.0912,4.0912,4.0912,4.0912,4.0912,4.0912,4.0912,4.0912,4.0912,4.3819,4.3744,4.3474,4.3474,4.2904,4.236,4.23,4.1963,4.1653,4.1604,4.1604,4.1604,4.1604,4.343,4.501,4.522,4.7011,4.8187,4.7625,4.7538,4.7257,4.6442,4.6354,4.6354,4.6354,4.6267,4.6196,4.6196,4.6196,4.6196,4.6196,4.6196,4.6161,4.6056,4.5431,4.436,4.2833,4.2113,4.171,4.1604,4.1604,4.1538,4.1403,4.1538,4.1538,4.1403,4.1515,4.1515,4.1403,4.1358,4.1261,4.1093,4.107,4.1,4.0912,4.0912,4.0912,4.0912,4.0912,4.0912,4.0912,4.0912,4.0912,4.0912,4.0912,4.0912,4.0912,4.0912,4.0912,4.0912,4.0912,4.0912,4.0912,4.0912,4.0912,4.0912,4.0912,4.0912,4.0912,4.0912,4.0912,4.0912,4.0912,4.0912,4.0912,4.0912,4.0912,4.0912,4.0912,4.0912,4.0912,4.0912,4.0912,4.0912,4.0912,4.0912,4.0912,4.0912,4.0912,4.0912,4.0912,4.0912,4.0912,4.0912,4.0912,4.0912,4.0912,4.0912,4.0912,4.0912,4.0912,4.0912,4.3968,4.3939,4.3892,4.3892,4.3525,4.3105,4.2772,4.2382,4.2005,4.1653,4.1604,4.1604,4.1604,4.2973,4.4536,4.5793,4.6906,4.7783,4.831,4.8345,4.8047,4.7274,4.7187,4.7187,4.7187,4.6582,4.6196,4.6196,4.6196,4.6196,4.6196,4.6196,4.5916,4.5308,4.5168,4.436,4.2833,4.2675,4.2271,4.1604,4.1604,4.1538,4.1403,4.1538,4.1538,4.1403,4.1426,0.0,4.138,4.1215,4.1117,4.1087,4.0982,4.0935,4.0912,4.0912,4.0912,4.0912,4.0912,4.0912,4.0912,4.0912,4.0912,4.0912,4.0912,4.0912,4.0912,4.0912,4.0912,4.0912,4.0912,4.0912,4.0912,4.0912,4.0912,4.0912,4.0912,4.0912,4.0912,4.0912,4.0912,4.0912,4.0912,4.0912,4.0912,4.0912,4.0912,4.0912,4.0912,4.0912,4.0912,4.0912,4.0912,4.0912,4.0912,4.0912,4.0912,4.0912,4.0912,4.0912,4.0912,4.0912,4.0912,4.0912,4.0912,4.0912,4.0912,4.0912,4.0912,4.0912,4.0912,4.0912,4.4005,4.4005,4.4005,4.4005,4.3712,4.3283,4.2885,4.2482,4.2092,4.1675,4.1604,4.1481,4.1095,4.2587,4.4132,4.4887,4.6344,4.752,4.7924,4.8293,4.824,4.7485,4.7766,4.7854,4.7432,4.7046,4.6635,4.6232,4.6196,4.6196,4.6196,4.6196,4.6039,4.567,4.4904,4.4115,4.3377,4.2587,4.199,4.1604,4.1604,4.1538,4.1403,4.1538,4.1538,4.1403,4.1403,4.1363,4.1295,4.1146,4.1047,4.1,4.0935,4.0912,4.0912,4.0912,4.0912,4.0912,4.0912,4.0912,4.0912,4.0912,4.0912,4.0912,4.0912,4.0912,4.0912,4.0912,4.0912,4.0912,4.0912,4.0912,4.0912,4.0912,4.0912,4.0912,4.0912,4.0912,4.0912,4.0912,4.0912,4.0912,4.0912,4.0912,4.0912,4.0912,4.0912,4.0912,4.0912,4.0912,4.0912,4.0912,4.0912,4.0912,4.0912,4.0912,4.0912,4.0912,4.0912,4.0912,4.0912,4.0912,4.0912,4.0912,4.0912,4.0912,4.0912,4.0912,4.0912,4.0912,4.0912,4.0995,4.3989,4.3939,4.3892,4.3989,4.3761,4.3406,4.2922,4.256,4.2195,4.1697,4.1604,4.1376,4.0643,4.2101,4.3518,4.3851,4.5712,4.7204,4.738,4.8328,4.8679,4.7766,4.8345,4.8521,4.7713,4.7485,4.7064,4.6267,4.6196,4.6196,4.6196,4.6196,4.6196,4.6196,4.4869,4.4062,4.3904,4.2535,4.178,4.1604,4.1604,4.1538,4.1448,4.156,4.1538,4.1448,4.1363,4.1295,4.1186,4.1099,4.1,4.0912,4.0912,4.0912,4.0912,4.0912,4.0912,4.0912,4.0912,4.0912,4.0912,4.0912,4.0912,4.0912,4.0912,4.0912,4.0912,4.0912,4.0912,4.0912,4.0912,4.0912,4.0912,4.0912,4.0912,4.0912,4.0912,4.0912,4.0912,4.0912,4.0912,4.0912,4.0912,4.0912,4.0912,4.0912,4.0912,4.0912,4.0912,4.0912,4.0912,4.0912,4.0912,4.0912,4.0912,4.0912,4.0912,4.0912,4.0912,4.0912,4.0912,4.0912,4.0912,4.0912,4.0912,4.0912,4.0912,4.0912,4.0912,4.0912,4.0989,4.1209,4.3908,4.3744,4.3542,4.3908,4.3955,4.3744,4.2977,4.2772,4.2521,4.1744,4.1604,4.1376,4.0643,4.1218,4.2271,4.3658,4.5273,4.6565,4.7292,4.9276,5.0118,4.8661,4.9135,4.9276,4.846,4.7783,4.7064,4.6267,4.6196,4.6196,4.6196,4.6196,4.6196,4.6196,4.5414,4.4641,4.3904,4.3096,4.2324,4.1604,4.1604,4.1604,4.1582,4.1604,4.1604,4.156,4.1323,4.1209,0.0,4.0989,4.0912,4.0912,4.0912,4.0912,4.0912,4.0912,4.0912,4.0912,4.0912,4.0912,4.0912,4.0912,4.0912,4.0912,4.0912,4.0912,4.0912,4.0912,4.0912,4.0912,4.0912,4.0912,4.0912,4.0912,4.0912,4.0912,4.0912,4.0912,4.0912,4.0912,4.0912,4.0912,4.0912,4.0912,4.0912,4.0912,4.0912,4.0912,4.0912,4.0912,4.0912,4.0912,4.0912,4.0912,4.0912,4.0912,4.0912,4.0912,4.0912,4.0912,4.0912,4.0912,4.0912,4.0912,4.0912,4.0912,4.0912,4.0912,4.0912,4.0912,4.1283,4.145,4.3892,4.3712,4.3491,4.3908,4.4005,4.3793,4.2978,4.281,4.258,4.1784,4.1604,4.1376,4.0643,4.1095,4.1973,4.3061,4.4132,4.5256,4.652,4.8293,4.924,4.8626,4.9644,5.0101,4.9293,4.8556,4.759,4.6302,4.6196,4.6196,4.6196,4.6196,4.6196,4.6196,4.501,4.422,4.3904,4.2693,4.192,4.1604,4.1604,4.1604,4.1604,4.1604,4.156,4.1471,4.1277,4.118,0.0,4.0982,4.0912,4.0912,4.0912,4.0912,4.0912,4.0912,4.0912,4.0912,4.0912,4.0912,4.0912,4.0912,4.0912,4.0912,4.0912,4.0912,4.0912,4.0912,4.0912,4.0912,4.0912,4.0912,4.0912,4.0912,4.0912,4.0912,4.0912,4.0912,4.0912,4.0912,4.0912,4.0912,4.0912,4.0912,4.0912,4.0912,4.0912,4.0912,4.0912,4.0912,4.0912,4.0912,4.0912,4.0912,4.0912,4.0912,4.0912,4.0912,4.0912,4.0912,4.0912,4.0912,4.0912,4.0912,4.0912,4.1267,4.1986,4.1986,4.2374,4.3124,4.3284,4.3252,4.3677,4.3525,4.3354,4.3876,4.4005,4.3793,4.2978,4.281,4.258,4.1784,4.1604,4.1376,4.0643,4.1288,4.2148,4.271,4.3799,4.5045,4.6354,4.7889,4.8854,4.8854,5.0066,5.0575,4.9794,4.8819,4.7678,4.6302,4.6196,4.6196,4.6196,4.6196,4.6196,4.6196,4.494,4.4255,4.4255,4.2728,4.1933,4.1893,4.1687,4.1582,4.1538,4.1538,4.1493,4.1403,4.1226,4.1129,0.0,4.0959,4.0912,4.0912,4.0912,4.0912,4.0912,4.0912,4.0912,4.0912,4.0912,4.0912,4.0912,4.0912,4.0912,4.0912,4.0912,4.0912,4.0912,4.0912,4.0912,4.0912,4.0912,4.0912,4.0912,4.0912,4.0912,4.0912,4.0912,4.0912,4.0912,4.0912,4.0912,4.0912,4.0912,4.0912,4.0912,4.0912,4.0912,4.0912,4.0912,4.0912,4.0912,4.0912,4.0912,4.0912,4.0912,4.0912,4.0912,4.0912,4.0912,4.0912,4.0912,4.0912,4.0912,4.0912,4.1243,4.1853,4.2703,4.3089,4.3722,4.46,4.4746,4.4728,4.3195,4.3123,4.3014,4.3793,4.4005,4.3793,4.2978,4.281,4.258,4.1784,4.1604,4.1376,4.0643,4.1745,4.2775,4.2816,4.4688,4.646,4.7274,4.8714,4.9706,4.9706,5.0426,5.0575,4.9794,4.8293,4.7081,4.6267,4.6196,4.6196,4.6196,4.6196,4.6196,4.6196,4.5484,4.5098,4.5098,4.357,4.2712,4.2585,4.1906,4.1538,4.1403,4.1403,4.1403,4.138,4.1186,4.1093,0.0,4.0959,4.0912,4.0912,4.0912,4.0912,4.0912,4.0912,4.0912,4.0912,4.0912,4.0912,4.0912,4.0912,4.0912,4.0912,4.0912,4.0912,4.0912,4.0912,4.0912,4.0912,4.0912,4.0912,4.0912,4.0912,4.0912,4.0912,4.0912,4.0912,4.0912,4.0912,4.0912,4.0912,4.0912,4.0912,4.0912,4.0912,4.0912,4.0912,4.0912,4.0912,4.0912,4.0912,4.0912,4.0912,4.0912,4.0912,4.0912,4.0912,4.0912,4.0912,4.0912,4.0912,4.0912,4.0912,4.2084,4.2685,4.2703,4.397,4.4578,4.46,4.5075,4.549,4.2847,4.2696,4.2395,4.2413,4.2811,4.2905,4.1875,4.2044,4.2239,4.1719,4.1604,4.171,4.2008,4.2482,4.3302,4.4863,4.5723,4.6477,4.7292,4.9188,5.0118,4.9065,5.0101,5.0364,4.9012,4.8451,4.76,4.6302,4.6196,4.6196,4.6196,4.6196,4.6196,4.6196,4.5484,4.5098,4.5098,4.4079,4.3243,4.2602,4.2467,4.2063,4.1403,4.1493,4.1431,4.1255,4.1203,4.1082,4.0959,4.0935,4.0912,4.0912,4.0912,4.0912,4.0912,4.0912,4.0912,4.0912,4.0912,4.0912,4.0912,4.0912,4.0912,4.0912,4.0912,4.0912,4.0912,4.0912,4.0912,4.0912,4.0912,4.0912,4.0912,4.0912,4.0912,4.0912,4.0912,4.0912,4.0912,4.0912,4.0912,4.0912,4.0912,4.0912,4.0912,4.0912,4.0912,4.0912,4.0912,4.0912,4.0912,4.0912,4.0912,4.0912,4.0912,4.0912,4.0912,4.0912,4.0912,4.1136,4.1636,4.1654,4.1912,4.2465,4.3167,4.3918,4.4752,4.5515,4.6323,4.7112,4.6719,4.6596,4.239,4.2185,4.1765,4.1704,4.205,4.2173,4.1302,4.1683,4.2092,4.1675,4.185,4.2219,4.271,4.3289,4.4132,4.5547,4.6267,4.6923,4.7713,4.9592,5.0645,4.996,5.0206,4.9925,4.8679,4.8275,4.7547,4.6302,4.6196,4.6196,4.6196,4.6196,4.6196,4.6196,4.574,4.5536,4.5536,4.4746,4.405,4.3459,4.301,4.2484,4.1863,4.1615,4.1408,4.1209,4.118,4.1059,0.0,4.0912,4.0912,4.0912,4.0912,4.0912,4.0912,4.0912,4.0912,4.0912,4.0912,4.0912,4.0912,4.0912,4.0912,4.0912,4.0912,4.0912,4.0912,4.0912,4.0912,4.0912,4.0912,4.0912,4.0912,4.0912,4.0912,4.0912,4.0912,4.0912,4.0912,4.0912,4.0912,4.0912,4.0912,4.0912,4.0912,4.0912,4.0912,4.0912,4.0912,4.0912,4.0912,4.0912,4.0912,4.0912,4.0912,4.0912,4.0912,4.0912,4.117,4.1533,4.1999,4.2292,4.2689,4.3189,4.4126,4.4946,4.5699,4.6683,4.756,4.8306,4.7791,4.7553,0.0,4.1624,4.1207,4.1539,4.165,4.1593,4.1153,4.1622,0.0,4.1745,4.2289,4.2851,4.3003,4.4185,4.515,4.5326,4.6502,4.7643,4.8345,4.975,5.1049,5.1881,5.0645,4.9398,4.8661,4.7871,4.7064,4.6267,4.6196,4.6196,4.6196,4.6196,4.6196,4.6196,4.6196,4.6196,4.6196,4.5536,4.5085,4.4876,4.3594,4.2852,4.2655,4.1915,4.1497,4.1366,4.1302,4.1202,4.1067,4.0998,4.0981,4.0981,4.0929,4.0912,4.0912,4.0912,4.0912,4.0912,4.0912,4.0912,4.0912,4.0912,4.0912,4.0912,4.0912,4.0912,4.0912,4.0912,4.0912,4.0912,4.0912,4.0912,4.0912,4.0912,4.0912,4.0912,4.0912,4.0912,4.0912,4.0912,4.0912,4.0912,4.0912,4.0912,4.0912,4.0912,4.0912,4.0912,4.0912,4.0912,4.0912,4.0912,4.0912,4.0912,4.0912,4.0912,4.0912,4.0912,4.155,4.1981,4.2085,4.2792,4.3241,4.3345,4.4952,4.5811,4.5899,4.7512,4.8306,4.8306,4.8306,4.8306,4.0666,0.0,4.1378,4.0905,4.1209,4.1449,0.0,4.1216,4.1895,4.2417,4.2675,4.3319,4.5074,4.5256,4.5677,4.7432,4.7538,4.745,4.7625,4.8486,4.9776,5.1758,5.0645,4.9381,4.8608,4.7836,4.7064,4.6267,4.6196,4.6196,4.6196,4.6196,4.6196,4.6196,4.6196,4.6196,4.6196,4.6021,4.5586,4.4893,4.4681,4.4167,4.3436,4.3337,4.3179,4.2943,4.2936,4.2833,4.2603,4.1999,4.1757,4.1705,4.1119,4.0912,4.0912,4.0912,4.0912,4.0912,4.0912,4.0912,4.0912,4.0912,4.0912,4.0912,4.0912,4.0912,4.0912,4.0912,4.0912,4.0912,4.0912,4.0912,4.0912,4.0912,4.0912,4.0912,4.0912,4.0912,4.0912,4.0912,4.0912,4.0912,4.0912,4.0912,4.0912,4.0912,4.0912,4.0912,4.0912,4.0912,4.0912,4.0912,4.0912,4.0912,4.0912,4.0912,4.0912,4.0912,4.1067,4.1688,4.2861,4.3103,4.3741,4.4872,4.6023,4.696,4.7683,4.8099,4.8306,4.8306,4.8306,4.8306,3.9726,4.0498,4.1078,4.1007,4.1306,4.1499,4.1095,4.1306,4.1793,4.2396,4.2934,4.3814,4.5427,4.5965,4.6586,4.7868,4.8021,4.8187,4.8907,4.9412,5.0215,5.16,5.0645,4.9432,4.8424,4.7621,4.6888,4.6256,4.6196,4.6196,4.6196,4.6196,4.6196,4.6196,4.6196,4.6196,4.6196,4.6196,4.5961,4.5492,4.5231,4.4822,4.4336,4.3968,4.3715,4.3499,4.3433,4.3346,4.3172,4.2741,4.2551,4.2482,4.1705,4.1412,4.136,4.1032,4.0912,4.0912,4.0912,4.0912,4.0912,4.0912,4.0912,4.0912,4.0912,4.0912,4.0912,4.0912,4.0912,4.0912,4.0912,4.0912,4.0912,4.0912,4.0912,4.0912,4.0912,4.0912,4.0912,4.0912,4.0912,4.0912,4.0912,4.0912,4.0912,4.0912,4.0912,4.0912,4.0912,4.0912,4.0912,4.0912,4.0912,4.0912,4.0912,4.0912,4.0912,4.0912,4.1222,4.1792,4.262,4.3327,4.4453,4.6052,4.6845,4.7588,4.8306,4.8306,4.8306,4.8306,4.8306,4.8306,3.9217,4.0211,4.1032,4.1345,4.1561,4.1675,4.1697,4.1762,4.1984,4.2682,4.3628,4.4614,4.5727,4.6842,4.7761,4.8262,4.8651,4.9397,5.0814,5.1003,5.1081,5.1397,5.0595,4.9536,4.8309,4.7395,4.6742,4.6326,4.6246,4.6196,4.6196,4.6196,4.6196,4.6196,4.6196,4.6196,4.6196,4.6196,4.6196,4.6196,4.5572,4.5273,4.5256,4.441,4.3993,4.3847,4.37,0.0,4.3534,4.3414,4.3362,4.3276,4.2361,4.2016,4.1912,4.117,4.0912,4.0912,4.0912,4.0912,4.0912,4.0912,4.0912,4.0912,4.0912,4.0912,4.0912,4.0912,4.0912,4.0912,4.0912,4.0912,4.0912,4.0912,4.0912,4.0912,4.0912,4.0912,4.0912,4.0912,4.0912,4.0912,4.0912,4.0912,4.0912,4.0912,4.0912,4.0912,4.0912,4.0912,4.0912,4.0912,4.0912,4.0912,4.0912,4.0912,4.0912,4.0912,4.1498,4.1971,4.2293,4.366,4.5233,4.6963,4.7399,4.7836,4.8306,4.8306,4.8306,4.8306,4.8306,4.8306,3.9747,4.1655,4.2668,4.1067,4.1393,4.2124,4.2192,4.242,4.3197,4.5317,4.589,4.6684,4.8855,4.8898,4.9252,5.1325,5.0832,5.0517,5.1368,5.093,5.0665,5.1102,5.048,4.9629,4.871,4.7582,4.6863,4.6794,4.6405,4.6196,4.6196,4.6196,4.6196,4.6196,4.6196,4.6196,4.6196,4.6196,4.6196,4.6196,4.6091,4.6021,4.6021,4.5775,4.5573,4.5447,0.0,4.5183,4.5001,4.4397,4.4138,4.3983,4.2568,4.2016,4.1912,4.117,4.0912,4.0912,4.0912,4.0912,4.0912,4.0912,4.0912,4.0912,4.0912,4.0912,4.0912,4.0912,4.0912,4.0912,4.0912,4.0912,4.0912,4.0912,4.0912,4.0912,4.0912,4.0912,4.0912,4.0912,4.0912,4.0912,4.0912,4.0912,4.0912,4.0912,4.0912,4.0912,4.0912,4.0912,4.0912,4.0912,4.0912,4.0912,4.0912,4.0912,4.0912,4.0912,4.1015,4.181,4.353,4.4441,4.5705,4.7467,4.7569,4.7836,4.8306,4.8306,4.8306,4.8306,4.8306,4.8306,3.9322,4.1002,4.2203,4.2121,4.3999,4.5693,4.5266,4.5321,4.5829,4.7136,4.7618,4.8213,4.9771,4.9724,4.9822,5.0909,5.141,5.1573,5.1411,5.1125,5.0918,5.0836,5.0371,4.9641,4.8577,4.7993,4.746,4.6931,4.6931,4.684,4.6578,4.6596,4.6596,4.6596,4.6326,4.6196,4.6196,4.6196,4.6196,4.6196,4.6196,4.6147,4.6073,4.5947,4.5821,4.5667,0.0,4.545,4.5363,4.5044,4.4889,4.4785,4.369,4.3,4.2516,4.1343,4.0912,4.0912,4.0912,4.0912,4.0912,4.0912,4.0912,4.0912,4.0912,4.0912,4.0912,4.0912,4.0912,4.0912,4.0912,4.0912,4.0912,4.0912,4.1205,4.1498,4.1498,4.1843,4.2137,4.2137,4.2137,4.2137,4.2137,4.2137,4.1999,4.1567,4.1498,4.136,4.0963,4.0912,4.0912,4.0912,4.0912,4.0912,4.0912,4.0912,4.0912,4.0912,4.1274,4.2222,4.3839,4.4834,4.6074,4.7572,4.7856,4.8075,4.8306,4.8306,4.8306,4.8306,4.8306,4.8306,3.9111,4.039,4.1611,4.323,4.5479,4.7341,4.747,4.717,4.7144,4.8236,4.8688,4.9198,5.0212,5.0663,5.0866,5.0719,5.1836,5.2461,5.1715,5.1562,5.1267,5.0575,5.025,4.9657,4.855,4.8363,4.7995,4.727,4.7464,4.7442,4.7071,4.7049,4.7049,4.7049,4.6602,4.6374,4.6374,4.6246,4.6196,4.6196,4.6196,4.6147,4.6048,4.5871,4.5744,4.5658,4.5476,4.5397,4.5397,4.5397,4.5397,4.5328,4.4578,4.3741,4.2758,4.1395,4.0912,4.0912,4.0912,4.0912,4.0912,4.0912,4.0912,4.0912,4.0912,4.0912,4.0912,4.0912,4.1032,4.117,4.117,4.1032,4.0998,4.136,4.174,4.2043,4.224,4.2775,4.3189,4.3189,4.3189,4.3189,4.3189,4.3189,4.2982,4.2378,4.2292,4.2085,4.1516,4.1274,4.117,4.117,4.1015,4.0981,4.1153,4.117,4.124,4.1429,4.1792,4.2704,4.4248,4.5218,4.6338,4.7736,4.8132,4.8306,4.8306,4.8306,4.8306,4.8306,4.8306,4.8306,3.98,4.1022,4.2031,4.3585,4.3269,4.341,4.6507,4.5688,4.5148,4.8207,4.8876,4.9377,5.1008,5.2512,5.3357,5.2871,5.2928,5.3025,5.2901,5.2286,5.1442,5.0268,5.0117,4.9764,4.8948,4.8513,4.8267,4.8191,4.7836,4.7591,4.7548,4.7548,4.7548,4.7548,4.7093,4.684,4.684,4.6423,4.6196,4.6196,4.6196,4.6196,4.6172,4.5922,4.5795,4.577,4.5502,4.5397,4.5397,4.5397,4.5397,4.5328,4.4578,4.3396,4.1999,4.1205,4.0912,4.0912,4.0912,4.0912,4.0912,4.0912,4.0912,4.0912,4.0912,4.0912,4.0912,4.0912,4.1395,4.1905,4.1905,4.1412,4.1257,4.2689,4.2499,4.2206,4.2948,4.3155,4.3189,4.3189,4.3189,4.3189,4.3189,4.3189,4.3172,4.312,4.3103,4.3086,4.3034,4.2378,4.1905,4.1905,4.1309,4.1188,4.1854,4.1905,4.224,4.2982,4.2378,4.3079,4.5468,4.5659,4.6488,4.823,4.8287,4.8306,4.8306,4.8306,4.8306,4.8306,4.8306,4.8306,3.9942,4.1596,4.3321,4.5424,4.5,4.4685,4.6993,4.808,4.8946,5.019,5.045,5.0488,5.058,5.2772,5.3811,5.1544,5.2505,5.3191,5.2135,5.1304,5.0602,5.0154,4.967,4.9243,4.8927,4.875,4.8347,4.7553,4.7592,4.7315,4.6518,4.6481,4.6602,4.6848,4.6398,4.6244,4.6453,4.6295,4.6196,4.6196,4.6196,4.6122,4.5947,4.5846,4.5693,4.5554,4.545,4.5397,4.5397,4.5397,4.5397,4.5328,4.4578,4.3949,4.3345,4.2603,4.2327,4.2327,4.2327,4.2327,4.2327,4.2327,4.2327,4.2327,4.2327,4.2327,4.2327,4.2327,4.2534,4.2637,4.2137,4.2171,4.2482,4.3051,4.331,4.3517,4.3828,4.4234,4.4578,4.4578,4.4578,4.4578,4.4578,4.4578,4.4406,4.3949,4.388,4.3724,4.3258,4.2499,4.2016,4.2016,4.1757,4.1705,4.1999,4.2465,4.3069,4.3845,4.3603,4.3979,4.5223,4.6018,4.688,4.7856,4.8152,4.8306,4.8306,4.8306,4.8306,4.8306,4.8306,4.8306,4.0383,4.1736,4.3364,4.6048,4.5797,4.5379,4.7274,4.8612,4.9689,5.045,5.0803,5.0822,5.0209,5.1955,5.281,5.0841,5.1714,5.2252,5.1138,5.0488,5.0023,4.9763,4.9243,4.8909,4.8909,4.8667,4.8173,4.7279,4.7269,4.6933,4.6063,4.6027,4.6085,4.6233,4.6038,4.5971,4.6076,4.6147,4.6196,4.6196,4.6147,4.6048,4.5846,4.5787,4.5632,4.545,4.5423,4.5397,4.5397,4.5397,4.5397,4.5328,4.4578,4.4311,4.4207,4.3465,4.3189,4.3189,4.3189,4.3189,4.3189,4.3189,4.3189,4.3189,4.3189,4.3189,4.3189,4.3189,4.3362,4.3414,4.2879,4.2965,4.331,4.3768,4.4104,4.4363,4.4596,4.5044,4.5397,4.5397,4.5397,4.5397,4.5397,4.5397,4.5225,4.4716,4.4647,4.4458,4.3958,4.3224,4.2654,4.2413,4.2378,4.2482,4.2723,4.3224,4.3862,4.4596,4.4647,4.4869,4.5361,4.6206,4.6959,4.7591,4.7935,4.8152,4.8306,4.8306,4.8306,4.8306,4.8306,4.8306,4.1252,4.137,4.1822,4.5075,4.4966,4.4674,4.7144,4.6475,4.6011,4.8426,4.9559,5.0116,5.0098,5.0116,5.0395,5.1249,5.0655,5.0098,5.0098,5.0098,4.98,4.9002,4.8909,4.8909,4.889,4.8166,4.7683,4.7683,4.694,4.6475,4.6475,4.6475,4.6288,4.5883,4.6217,4.6185,4.5789,4.6058,4.6196,4.6214,4.6048,4.5998,4.5998,4.5718,4.5607,4.5607,4.545,4.5397,4.5397,4.5397,4.5397,4.5328,4.4596,4.4311,4.4225,4.3483,4.3224,4.3224,4.3224,4.3224,4.3224,4.3224,4.3224,4.3224,4.3224,4.3224,4.3224,4.3224,4.3741,4.4311,4.4311,4.3776,4.3603,4.5035,4.4837,4.4518,4.5225,4.5397,4.5397,4.5397,4.5397,4.5397,4.5397,4.5397,4.5397,4.5397,4.5397,4.5397,4.538,4.4751,4.4018,4.3276,4.3207,4.35,4.4242,4.4311,4.4613,4.5345,4.5397,4.5641,4.6161,4.6186,4.6654,4.7569,4.7591,4.7836,4.8306,4.8306,4.8306,4.8306,4.8306,4.8306,4.0671,4.1915,4.3474,4.5084,4.6038,4.694,4.8259,4.8166,4.8203,4.9485,5.0413,5.0822,5.0209,5.0599,5.0711,4.98,4.9912,4.9912,4.9355,4.9262,4.9169,4.8927,4.8909,4.8686,4.811,4.785,4.7237,4.6104,4.5788,4.5379,4.4766,4.4748,4.4692,4.4578,4.5148,4.544,4.53,4.581,4.6048,4.6048,4.5821,4.577,4.5846,4.5667,4.5554,4.545,4.5423,4.5397,4.5397,4.5397,4.5397,4.538,4.5156,4.5079,4.5061,4.4837,4.4751,4.4751,4.4751,4.4751,4.4751,4.4751,4.4751,4.4751,4.4751,4.4751,4.4751,4.4751,4.4923,4.5079,4.5079,4.4923,4.4872,4.5294,4.5225,4.5121,4.5345,4.5397,4.5397,4.5397,4.5397,4.5397,4.5397,4.5397,4.5397,4.5397,4.5397,4.5207,4.4682,4.4449,4.4018,4.3276,4.3655,4.4069,4.4276,4.4768,4.5156,4.538,4.5397,4.5476,4.5641,4.6005,4.6483,4.7093,4.7442,4.7836,4.8306,4.8306,4.8306,4.8306,4.8306,4.8306,4.2073,4.341,4.4952,4.6754,4.7218,4.7516,4.8649,4.8909,4.9039,4.9522,5.0042,5.0339,5.0153,5.0283,5.019,4.9522,4.954,4.9447,4.8964,4.8909,4.8909,4.8909,4.8909,4.8574,4.7776,4.7404,4.668,4.5398,4.4971,4.4544,4.4023,4.4005,4.3848,4.3534,4.4563,4.4943,4.4624,4.5548,4.5998,4.5998,4.5718,4.5658,4.5736,4.5581,4.5476,4.5397,4.5397,4.5397,4.5397,4.5397,4.5397,4.5397,4.5397,4.5397,4.5397,4.5397,4.5397,4.5397,4.5397,4.5207,4.501,4.5294,4.519,4.5027,4.5311,4.5397,4.5397,4.5397,4.5397,4.5397,4.5397,4.5397,4.5397,4.5397,4.5397,4.5397,4.5397,4.5397,4.5397,4.5397,4.5397,4.5397,4.5397,4.5397,4.5397,4.5397,4.5397,4.5225,4.4785,4.4734,4.4561,4.4113,4.4458,4.4734,4.4734,4.5121,4.5397,4.5397,4.5397,4.5397,4.5397,4.5701,4.6193,4.6886,4.7182,4.7632,4.8306,4.8306,4.8306,4.8306,4.8306,4.8306,4.4246,4.5008,4.59,4.8909,4.8184,4.7107,4.8574,4.8909,4.8927,4.9002,4.902,4.9243,4.9986,4.9447,4.9169,4.9949,4.9429,4.8909,4.8909,4.8909,4.8909,4.8909,4.8834,4.8481,4.7664,4.6865,4.6048,4.5231,4.4451,4.4005,4.4005,4.4005,4.3644,4.2885,4.4311,4.4731,4.3956,4.5303,4.5972,4.5947,4.5641,4.5511,4.5581,4.545,4.5363,4.5294,4.5225,4.519,4.519,4.5259,4.5294,4.5311,4.5363,4.5397,4.538,4.5311,4.5294,4.5276,4.5207,4.4768,4.4328,4.5079,4.4854,4.4449,4.5173,4.5397,4.5397,4.5397,4.5397,4.5397,4.5397,4.5397,4.5397,4.5397,4.5397,4.5397,4.5397,4.5397,4.5397,4.5397,4.5397,4.5397,4.5397,4.5397,4.5397,4.5397,4.5397,4.5397,4.5397,4.5397,4.5397,4.5397,4.5397,4.5397,4.5397,4.5397,4.5397,4.5397,4.5397,4.5397,4.5397,4.5397,4.5837,4.6817,4.6886,4.7335,4.8248,4.8287,4.8306,4.8306,4.8306,4.8306,4.1493,4.2835,4.4599,4.5992,4.7367,4.8481,4.8816,4.8909,4.9076,4.9707,4.9837,4.9893,5.0079,4.9447,4.8964,4.915,4.902,4.8909,4.8909,4.8909,4.8909,4.8909,4.8333,4.7646,4.6828,4.603,4.5194,4.4339,4.4116,4.4005,4.4005,4.4005,4.3777,4.3283,4.4447,4.4818,4.4227,4.5292,4.5795,4.5667,4.4932,4.4889,4.545,4.5423,4.5096,4.4492,4.3931,4.3672,4.3724,4.4311,4.4552,4.4578,4.5156,4.5397,4.5328,4.4751,4.4552,4.444,4.388,4.3569,4.3552,4.4311,4.4432,4.4449,4.5173,4.5397,4.5397,4.5397,4.5397,4.5397,4.5397,4.5397,4.5397,4.5397,4.5397,4.5397,4.5397,4.5397,4.5397,4.5397,4.5397,4.5397,4.5397,4.5397,4.5397,4.5397,4.5397,4.5397,4.5397,4.5397,4.5397,4.5397,4.5397,4.5397,4.5397,4.5397,4.5397,4.5397,4.5397,4.5397,4.5397,4.5397,4.5701,4.6339,4.6701,4.7182,4.7736,4.8132,4.8306,4.8306,4.8306,4.8306,4.2441,4.3652,4.5008,4.6624,4.798,4.8909,4.8909,4.8909,4.902,4.9447,4.954,4.954,4.954,4.9187,4.8909,4.8909,4.8909,4.8909,4.8909,4.8909,4.8909,4.8909,4.8184,4.7386,4.6587,4.5769,4.4934,4.4079,4.4005,4.4005,4.4005,4.4005,4.3809,4.3423,4.4692,4.4879,4.377,4.5316,4.5755,4.5078,4.4552,4.4328,4.4354,4.4716,4.4458,4.3741,4.3362,4.3189,4.3224,4.3603,4.3983,4.4311,4.432,4.4561,4.4785,4.4052,4.3776,4.3724,4.3327,4.2948,4.2758,4.3517,4.3517,4.3345,4.4113,4.4354,4.4423,4.4768,4.4872,4.4958,4.5311,4.5397,4.5397,4.5397,4.5397,4.5397,4.5397,4.5397,4.5397,4.5397,4.5397,4.5397,4.5397,4.5397,4.5397,4.5397,4.5397,4.5397,4.5397,4.5397,4.5397,4.5397,4.5397,4.5397,4.5397,4.5397,4.5397,4.5397,4.5397,4.5397,4.5397,4.5397,4.5667,4.6186,4.6435,4.6913,4.7611,4.7836,4.8075,4.8306,4.8306,4.8306,4.3708,4.4859,4.5881,4.8296,4.8909,4.8909,4.8909,4.8909,4.8909,4.8909,4.8797,4.8686,4.8686,4.8574,4.85,4.85,4.8612,4.8686,4.8686,4.8686,4.8686,4.8686,4.7868,4.7014,4.6364,4.5547,4.4785,4.4061,4.4005,4.4005,4.4005,4.4005,4.3825,4.351,4.4802,4.477,4.3269,4.5075,4.5393,4.4281,4.4155,4.3655,4.2827,4.3569,4.3569,4.2982,4.2861,4.2792,4.281,4.2948,4.3345,4.3862,4.3379,4.3569,4.4018,4.3276,4.2982,4.2965,4.2844,4.2378,4.1947,4.2741,4.2551,4.2154,4.2965,4.3189,4.3345,4.4087,4.4311,4.4483,4.5207,4.5397,4.5397,4.5397,4.5397,4.5397,4.5397,4.5397,4.5397,4.5397,4.5397,4.5397,4.5397,4.5397,4.5397,4.5397,4.5397,4.5397,4.5397,4.5397,4.5397,4.5397,4.5397,4.5397,4.5397,4.5397,4.5397,4.5397,4.5397,4.5397,4.5397,4.5397,4.5615,4.6038,4.6161,4.6631,4.7485,4.7569,4.7836,4.8306,4.8306,4.8306,4.0936,4.3132,4.5881,4.8296,4.8909,4.8909,4.8909,4.8909,4.8909,4.8909,4.8351,4.7868,4.7868,4.7293,4.6828,4.6828,4.7404,4.7868,4.7868,4.7868,4.7868,4.7868,4.6531,4.5565,4.5472,4.4674,4.4135,4.4005,4.4005,4.4005,4.4005,4.4005,4.3942,4.3849,4.4378,4.4284,4.348,4.4023,4.399,4.337,4.337,4.2603,4.124,4.1981,4.2258,4.2137,4.1481,4.1205,4.1257,4.1912,4.2223,4.2378,4.2965,4.3258,4.3241,4.2465,4.2171,4.2085,4.1429,4.1153,4.117,4.193,4.2102,4.2154,4.2965,4.3189,4.3345,4.4087,4.4311,4.4483,4.5207,4.5397,4.5397,4.5397,4.5397,4.5397,4.5397,4.5397,4.5397,4.5397,4.5397,4.5397,4.5397,4.5397,4.5397,4.5397,4.5397,4.5397,4.5397,4.5397,4.5397,4.5397,4.5397,4.5397,4.5397,4.5397,4.5397,4.5397,4.5397,4.5397,4.5397,4.5397,4.5423,4.5502,4.5963,4.6459,4.6981,4.7399,4.7836,4.8306,4.8306,4.8306,4.1924,4.4488,4.7014,4.8519,4.8909,4.8909,4.8909,4.8909,4.8909,4.8909,4.8259,4.7701,4.7701,4.7404,4.7014,4.6568,4.6791,4.7181,4.7646,4.7311,4.7181,4.7646,4.6271,4.5287,4.5287,4.4506,4.4005,4.4005,4.4005,4.4005,4.4005,4.3958,4.3929,4.3897,4.4407,4.407,4.2844,4.3803,4.3675,4.2534,4.2534,4.1964,4.0912,4.124,4.1395,4.1378,4.105,4.0912,4.0929,4.1257,4.1636,4.1974,4.193,4.2171,4.243,4.1671,4.1395,4.1343,4.1015,4.0912,4.0963,4.1291,4.1395,4.1464,4.1809,4.1912,4.2154,4.3345,4.3672,4.3949,4.5087,4.5397,4.5397,4.5397,4.5397,4.5397,4.5397,4.5397,4.5397,4.5397,4.5397,4.5397,4.5397,4.5397,4.5397,4.5397,4.5397,4.5397,4.5397,4.5397,4.5397,4.5397,4.5397,4.5397,4.5397,4.5397,4.5397,4.5397,4.5397,4.5397,4.5397,4.5397,4.5397,4.5397,4.5641,4.6119,4.6908,4.7093,4.7569,4.8306,4.8306,4.8306,4.2853,4.5045,4.681,4.824,4.8612,4.8649,4.8853,4.8909,4.8909,4.8909,4.8426,4.7943,4.7738,4.7534,4.72,4.6605,4.6661,4.7014,4.7627,4.7014,4.6717,4.7311,4.5955,4.4971,4.4971,4.4376,4.4005,4.4005,4.4005,4.4005,4.4005,4.3945,4.3881,4.3883,4.4273,4.378,4.2284,4.3152,4.2961,4.1723,4.1825,4.1549,4.0912,4.1134,4.118,4.1041,4.0942,4.0912,4.0912,4.0912,4.1222,4.1671,4.1119,4.124,4.1654,4.1101,4.0912,4.0912,4.0912,4.0912,4.0912,4.0912,4.0912,4.0912,4.0912,4.0912,4.1222,4.2758,4.3189,4.3552,4.5001,4.5397,4.5397,4.5397,4.5397,4.5397,4.5397,4.5397,4.5397,4.5397,4.5397,4.5397,4.5397,4.5397,4.5397,4.5397,4.5397,4.5397,4.5397,4.5397,4.5397,4.5397,4.5397,4.5397,4.5397,4.5397,4.5397,4.5397,4.5397,4.5397,4.5397,4.5537,4.5537,4.5397,4.5649,4.6144,4.6908,4.6908,4.7378,4.8306,4.8306,4.8306,4.2184,4.2965,4.3801,4.6977,4.7757,4.7961,4.8723,4.8909,4.8909,4.8909,4.8872,4.8612,4.785,4.707,4.655,4.6513,4.7144,4.7646,4.7683,4.7014,4.6513,4.655,4.5082,4.4079,4.4079,4.4023,4.4005,4.4005,4.4005,4.4005,4.4005,4.3945,4.3867,4.3804,4.3704,4.3178,4.2218,4.1461,4.1028,4.0963,4.1335,4.1295,4.0918,4.1753,4.1885,4.1445,4.1065,4.0912,4.0912,4.0912,4.0929,4.0963,4.0912,4.0929,4.0963,4.0912,4.0912,4.0912,4.0912,4.0912,4.0912,4.0912,4.0912,4.0912,4.0912,4.0912,4.1222,4.2758,4.3189,4.3552,4.5001,4.5397,4.5397,4.5397,4.5397,4.5397,4.5397,4.5397,4.5397,4.5397,4.5397,4.5397,4.5397,4.5397,4.5397,4.5397,4.5397,4.5397,4.5397,4.5397,4.5397,4.5397,4.5397,4.5397,4.5397,4.5397,4.5397,4.5397,4.5397,4.5397,4.5397,4.5905,4.593,4.5397,4.6321,4.684,4.6908,4.6908,4.7378,4.8306,4.8306,4.8306,4.2129,4.3188,4.4116,4.6364,4.7311,4.7776,4.8054,4.8537,4.8909,4.8909,4.8909,4.8816,4.8519,4.7813,4.7107,4.6587,4.6735,4.7107,4.7627,4.655,4.5918,4.6438,4.5026,4.4005,4.4005,4.4005,4.4005,4.4005,4.4005,4.3974,4.3945,4.3883,4.3786,4.3667,4.3583,4.325,4.2653,4.205,4.1731,4.1731,4.1885,4.1731,4.1305,4.1906,4.1948,4.1494,4.1666,4.1731,4.1709,4.1418,4.1283,4.126,4.0995,4.0912,4.0912,4.0912,4.0912,4.0912,4.0912,4.0912,4.0981,4.1464,4.1291,4.1084,4.2085,4.2016,4.193,4.3465,4.3914,4.4156,4.5121,4.5397,4.5397,4.5397,4.5397,4.5397,4.5397,4.5397,4.5397,4.5397,4.5397,4.5397,4.5397,4.5397,4.5397,4.5397,4.5397,4.5397,4.5397,4.5397,4.5397,4.5397,4.5397,4.5397,4.5397,4.5397,4.5397,4.5397,4.5727,4.5905,4.5905,4.6387,4.656,4.637,4.6724,4.6908,4.6908,4.7204,4.7692,4.8306,4.8306,4.8306,4.1386,4.2575,4.3596,4.5249,4.6271,4.7033,4.7571,4.811,4.8574,4.8834,4.8909,4.8909,4.8909,4.8463,4.7924,4.7386,4.7311,4.7497,4.8036,4.694,4.6197,4.6475,4.5287,4.4321,4.4023,4.4005,4.4005,4.4005,4.4005,4.3958,4.3897,4.3853,4.3719,4.3565,4.3392,4.316,4.2901,4.2297,4.2053,4.2198,4.2198,4.2032,4.1756,4.236,4.24,4.199,4.244,4.246,4.2177,4.1864,4.1648,4.1472,4.1209,4.1018,4.0912,4.0912,4.0912,4.0912,4.0912,4.0912,4.1032,4.1774,4.1671,4.1516,4.281,4.2827,4.2672,4.3949,4.4311,4.4483,4.5207,4.5397,4.5397,4.5397,4.5397,4.5397,4.5397,4.5397,4.5397,4.5397,4.5397,4.5397,4.5397,4.5397,4.5397,4.5397,4.5397,4.5397,4.5397,4.5397,4.5397,4.5397,4.5397,4.5397,4.5397,4.5397,4.5397,4.5397,4.5905,4.6211,4.6211,4.6799,4.7049,4.6908,4.7222,4.7291,4.7138,4.7442,4.7836,4.8306,4.8306,4.8306,0.0,0.0,0.0,4.3578,4.4636,4.5714,4.7274,4.7646,4.7887,4.8704,4.8872,4.8872,4.8909,4.8909,4.8909,4.8909,4.8909,4.8909,4.8909,4.8203,4.7404,4.6624,4.5788,4.4971,4.4116,4.4023,4.4005,4.4005,4.4005,4.3958,4.3897,4.3818,4.3703,4.3515,4.3105,4.2919,4.2919,4.2011,4.1799,4.2239,4.2239,4.2218,4.2239,4.3105,4.3286,4.292,4.3322,4.3032,4.2239,4.2236,4.1948,4.1539,4.1516,4.1283,4.0942,4.0942,4.0918,4.0935,4.0935,4.0912,4.105,4.1809,4.205,4.2206,4.3017,4.3241,4.3379,4.4121,4.4328,4.4492,4.5207,4.5397,4.5397,4.5397,4.5397,4.5397,4.5397,4.5397,4.5397,4.5397,4.5397,4.5397,4.5397,4.5397,4.5397,4.5397,4.5397,4.5397,4.5397,4.5397,4.5397,4.5397,4.5397,4.5397,4.5397,4.5397,4.5397,4.5423,4.593,4.6235,4.6235,4.7138,4.7399,4.6954,4.7854,4.8093,4.7611,4.7611,4.7856,4.8306,4.8306,4.8306,3.9802,0.0,0.0,0.0,0.0,0.0,4.5862,4.6401,4.7051,4.7868,4.8036,4.8203,4.8797,4.8909,4.8909,4.8909,4.8909,4.8909,4.8909,4.8203,4.7627,4.7386,4.6141,4.5212,4.4952,4.4376,4.4005,4.4005,4.3961,4.3915,4.3837,4.3686,4.3549,4.3515,4.3392,4.3339,4.3339,4.3087,4.3014,4.3142,4.3142,4.2995,4.2711,4.3268,4.3286,4.292,4.3322,4.3356,4.3105,4.2826,4.2634,4.2478,4.2136,4.1927,4.1839,4.1839,4.1622,4.1333,4.1333,4.1487,4.1843,4.262,4.2861,4.312,4.4406,4.4406,4.4156,4.4889,4.5113,4.5121,4.5345,4.5397,4.5397,4.5397,4.5397,4.5397,4.5397,4.5397,4.5397,4.5397,4.5397,4.5397,4.5397,4.5397,4.5397,4.5397,4.5397,4.5397,4.5397,4.5397,4.5397,4.5397,4.5397,4.5397,4.5397,4.5397,4.5563,4.5938,4.6435,4.6863,4.7204,4.7795,4.8053,4.7915,4.8172,4.8248,4.8113,4.8113,4.8172,4.8306,4.8306,4.8306,3.9871,4.0977,4.1776,4.2593,0.0,0.0,4.5212,4.5658,4.6234,4.7033,4.72,4.746,4.8259,4.8407,4.8519,4.8853,4.8909,4.8909,4.8909,4.85,4.8091,4.7738,4.6865,4.603,4.5361,4.4841,4.4395,4.4023,4.3945,4.3851,4.3719,4.3583,4.3515,4.3515,4.3515,4.3515,4.3515,4.3339,4.3339,4.3497,4.3322,4.3196,4.316,4.3392,4.3375,4.316,4.3392,4.3515,4.3479,4.325,4.305,4.2863,4.2595,4.2378,4.2198,4.2198,4.2032,4.1809,4.1947,4.2137,4.2437,4.3368,4.3655,4.388,4.5035,4.5113,4.4854,4.5276,4.5397,4.5397,4.5397,4.5397,4.5397,4.5397,4.5397,4.5397,4.5397,4.5397,4.5397,4.5397,4.5397,4.5397,4.5397,4.5397,4.5397,4.5397,4.5397,4.5397,4.5397,4.5397,4.5397,4.5397,4.5397,4.5502,4.5701,4.5727,4.5938,4.6459,4.6936,4.7313,4.7591,4.8055,4.8306,4.8306,4.8306,4.8306,4.8306,4.8306,4.8306,4.8306,4.8306,4.8306,4.003,4.1018,4.1869,4.25,4.3336,0.0,4.4971,4.5157,4.5379,4.6197,4.6364,4.6605,4.7423,4.7571,4.7794,4.8519,4.8723,4.8797,4.889,4.8909,4.863,4.7924,4.7757,4.7144,4.5714,4.5398,4.4971,4.4175,4.395,4.3783,4.3599,4.3531,4.3515,4.3515,4.3515,4.3515,4.3515,4.316,4.316,4.3497,4.3142,4.3142,4.3515,4.3515,4.3515,4.3515,4.3515,4.3515,4.3515,4.3515,4.3286,4.2957,4.2957,4.2711,4.234,4.234,4.2318,4.2323,4.2718,4.2853,4.3056,4.4136,4.4473,4.463,4.5278,4.545,4.5397,4.5397,4.5397,4.5397,4.5397,4.5397,4.5397,4.5397,4.5397,4.5397,4.5397,4.5397,4.5397,4.5397,4.5397,4.5397,4.5397,4.5397,4.5397,4.5397,4.5397,4.5397,4.5397,4.5397,4.5397,4.5397,4.5397,4.5589,4.6062,4.6161,4.6387,4.6863,4.7335,4.7611,4.7674,4.8093,4.8306,4.8306,4.8306,4.8306,4.8306,4.8306,4.8306,4.8306,4.8306,4.8306,3.9856,4.1213,4.2445,4.1962,4.2927,0.0,4.4209,4.4246,4.4506,4.5361,4.5528,4.5769,4.6587,4.6735,4.6791,4.694,4.7516,4.8166,4.8816,4.8909,4.8834,4.8686,4.8091,4.7571,4.7256,4.6048,4.518,4.4911,4.4118,4.3615,4.3513,4.3515,4.3515,4.3515,4.3515,4.3515,4.3515,4.3427,4.3427,4.3515,4.341,4.3427,4.3515,4.3515,4.3515,4.3515,4.3515,4.3515,4.3515,4.3515,4.3444,4.3375,4.3375,4.3339,4.325,4.325,4.3032,4.2876,4.3572,4.3972,4.4294,4.5146,4.5605,4.5845,4.6003,4.5727,4.5397,4.5397,4.5397,4.5397,4.5397,4.5397,4.5397,4.5397,4.5397,4.5397,4.5397,4.5397,4.5397,4.5397,4.5397,4.5397,4.5397,4.5397,4.5397,4.5397,4.5397,4.5397,4.5397,4.5397,4.5397,4.5397,4.5397,4.545,4.5537,4.5955,4.6387,4.6863,4.7335,4.7775,4.8152,4.8267,4.8306,4.8306,4.8306,4.8306,4.8306,4.8306,4.8306,4.8306,4.8306,4.8306,4.0071,4.0786,4.159,4.1804,4.2511,0.0,0.0,4.4005,4.4116,4.4562,4.4655,4.4915,4.5751,4.59,4.603,4.642,4.7181,4.7701,4.7701,4.8389,4.8909,4.8909,4.8537,4.8147,4.7738,4.6977,4.6259,4.5699,4.5139,4.4814,4.4708,4.4323,4.4103,4.4103,4.3699,4.3515,4.3515,4.3515,4.3515,4.3515,4.3515,4.3515,4.3515,4.3515,4.3515,4.3515,4.3515,4.3515,4.3515,4.3515,4.3515,4.3515,4.3515,4.3515,4.3515,4.3515,4.3375,4.3287,4.3845,4.4407,4.4938,4.5511,4.609,4.6554,4.6554,4.6193,4.5803,4.5803,4.5615,4.5397,4.5397,4.5397,4.5397,4.5397,4.5397,4.5397,4.5397,4.5397,4.5397,4.5397,4.5397,4.5397,4.5397,4.5397,4.5397,4.5397,4.5397,4.5397,4.5397,4.5397,4.5397,4.5397,4.5397,4.5528,4.5778,4.6055,4.6489,4.7204,4.7464,4.7816,4.8287,4.8306,4.8306,4.8306,4.8306,4.8306,4.8306,4.8306,4.8306,4.8306,4.8306,4.8306,4.0445,4.0544,4.0926,4.1721,4.2134,4.2582,0.0,0.0,0.0,4.3809,4.3841,4.4096,4.4883,4.5045,4.5249,4.59,4.6698,4.7014,4.6364,4.7499,4.8483,4.8649,4.8816,4.8649,4.7999,4.7612,4.7063,4.6259,4.5971,4.5863,4.5902,4.5278,4.4874,4.4691,4.4066,4.3644,4.3515,4.3515,4.3515,4.3515,4.3515,4.3515,4.3515,4.3515,4.3515,4.3515,4.3515,4.3515,4.3515,4.3515,4.3515,4.3515,4.3515,4.3515,4.3515,4.3515,4.3515,4.3554,4.3997,4.4663,4.5383,4.5831,4.6448,4.7022,4.6931,4.6631,4.6332,4.6235,4.5905,4.5537,4.5423,4.5397,4.5397,4.5397,4.5397,4.5397,4.5397,4.5397,4.5397,4.5397,4.5397,4.5397,4.5397,4.5397,4.5397,4.5397,4.5397,4.5397,4.5397,4.5397,4.5397,4.5397,4.5397,4.5563,4.6005,4.6137,4.656,4.7421,4.7548,4.7816,4.8287,4.8306,4.8306,4.8306,4.8306,4.8306,4.8306,4.8306,4.8306,4.8306,4.8306,4.8306,4.0769,4.1379,4.2109,4.1462,4.1896,4.2512,4.264,0.0,4.2773,4.3123,0.0,4.3458,4.396,0.0,0.0,4.4265,4.5008,4.5528,4.5454,4.6112,4.6911,4.774,4.8481,4.8872,4.8779,4.7323,4.6314,4.6205,4.5366,4.5149,4.5865,4.581,4.5443,4.4709,4.4617,4.4213,4.3515,4.3515,4.3515,4.3515,4.3515,4.3515,4.3515,4.3515,4.3515,4.3515,4.3515,4.3515,4.3515,4.3515,4.3515,4.3515,4.3515,4.3515,4.3515,4.3515,4.3515,4.3608,4.4362,4.515,4.5938,4.6706,4.7199,4.7442,4.7044,4.6863,4.6724,4.6332,4.6161,4.6005,4.5511,4.5397,4.5397,4.5397,4.5397,4.5397,4.5397,4.5397,4.5397,4.5397,4.5397,4.5397,4.5397,4.5397,4.5397,4.5397,4.5397,4.5397,4.5397,4.5397,4.5397,4.5397,4.5397,4.5423,4.5502,4.593,4.6411,4.6954,4.7378,4.7816,4.8287,4.8306,4.8306,4.8306,4.8306,4.8306,4.8306,4.8306,4.8306,4.8306,4.8306,4.8306,4.0407,4.0582,4.0955,4.0834,4.1134,4.1629,4.2336,4.2503,4.2542,4.2716,0.0,0.0,0.0,0.0,0.0,0.0,4.4663,4.502,4.4538,4.551,4.6383,4.6837,4.7155,4.7546,4.808,4.7401,4.7091,4.7553,4.6672,4.6434,4.726,4.6856,4.6434,4.6104,4.5186,4.4544,4.4195,4.3718,4.3515,4.3515,4.3515,4.3515,4.3515,4.3515,4.3515,4.3515,4.3515,4.3515,4.3515,4.3515,4.3515,4.3515,4.3515,4.3515,4.3515,4.3515,4.3515,4.3551,4.3883,4.4525,4.5424,4.6691,4.7511,4.7975,4.7775,4.7506,4.727,4.7071,4.684,4.6507,4.5988,4.5854,4.5778,4.5459,4.5397,4.5397,4.5397,4.5397,4.5397,4.5397,4.5397,4.5397,4.5397,4.5397,4.5397,4.5397,4.5397,4.5397,4.5397,4.5397,4.5397,4.5397,4.5397,4.5397,4.5397,4.5905,4.6387,4.6863,4.7609,4.8075,4.8287,4.8306,4.8306,4.8306,4.8306,4.8306,4.8306,4.8306,4.8306,4.8306,4.8306,4.8306,4.0314,4.0181,4.0233,4.0539,4.0691,4.0983,4.1851,4.2059,4.208,4.2203,4.2304,0.0,0.0,0.0,4.3283,4.3693,0.0,4.4378,4.3941,4.48,4.5614,4.5902,4.6276,4.6886,4.7789,4.7367,4.7462,4.8495,4.7445,4.7204,4.8251,4.7736,4.7333,4.7113,4.5737,4.4929,4.4691,4.3901,4.3515,4.3515,4.3515,4.3515,4.3515,4.3515,4.3515,4.3515,4.3515,4.3515,4.3515,4.3515,4.3515,4.3515,4.3515,4.3515,4.3515,4.3515,4.3515,4.3515,4.3515,4.4176,4.5296,4.6911,4.781,4.8306,4.8306,4.8055,4.7775,4.7632,4.7356,4.6981,4.6513,4.6308,4.6137,4.5862,4.5615,4.5476,4.5752,4.5572,4.545,4.5589,4.5502,4.5397,4.5397,4.5397,4.5397,4.5397,4.5397,4.5397,4.5397,4.5397,4.5397,4.5397,4.5397,4.5397,4.5397,4.5905,4.6459,4.7049,4.7836,4.8306,4.8306,4.8306,4.8306,4.8306,4.8306,4.8306,4.8306,4.8306,4.8306,4.8306,4.8306,4.8306,4.0877,4.086,4.086,4.0884,4.0884,4.0884,4.0942,4.0942,4.1065,4.1468,4.1626,4.1846,4.2246,4.2426,4.2658,4.3069,4.3141,0.0,0.0,4.374,4.4019,4.4914,4.6408,4.7664,4.8494,4.7094,4.6801,4.8384,4.6912,4.6636,4.8233,4.8288,4.7901,4.7113,4.6305,4.5498,4.4727,4.3901,4.3515,4.3515,4.3515,4.3515,4.3515,4.3515,4.3515,4.3515,4.3515,4.3515,4.3515,4.3515,4.3515,4.3515,4.3515,4.3515,4.3515,4.3515,4.3515,4.3515,4.3515,4.4525,4.6122,4.7737,4.8288,4.8306,4.8306,4.8287,4.8172,4.7733,4.7591,4.7464,4.6999,4.6554,4.6308,4.6747,4.6119,4.5675,4.6654,4.6094,4.5537,4.6062,4.577,4.5397,4.5397,4.5397,4.5397,4.5397,4.5397,4.5397,4.5397,4.5397,4.5397,4.5397,4.5397,4.5397,4.5397,4.5905,4.6607,4.7527,4.8035,4.8306,4.8306,4.8306,4.8306,4.8306,4.8306,4.8306,4.8306,4.8306,4.8306,4.8306,4.8306,4.8306,0.0,0.0,4.0912,4.0912,4.0912,4.0912,4.0912,4.0912,4.0942,4.1088,4.1203,4.1431,4.1842,4.2015,4.2241,4.2639,4.2621,4.2717,0.0,4.3409,4.3843,4.4705,4.5364,4.5859,4.6136,4.564,4.5972,4.7574,4.6581,4.6599,4.8214,4.8306,4.8196,4.7901,4.7094,4.6324,4.5498,4.4709,4.403,4.3515,4.3515,4.3515,4.3515,4.3515,4.3515,4.3515,4.3515,4.3515,4.3515,4.3515,4.3515,4.3515,4.3515,4.3515,4.3515,4.3515,4.3515,4.3515,4.3515,4.4195,4.5204,4.5755,4.6287,4.6819,4.7333,4.7498,4.7589,4.7966,4.8055,4.7955,4.7485,4.7248,4.7093,4.6931,4.6654,4.6394,4.6435,4.6394,4.6242,4.5752,4.5803,4.5829,4.5476,4.5397,4.5397,4.5397,4.5397,4.5397,4.5397,4.5397,4.5397,4.5397,4.5397,4.5537,4.5905,4.666,4.7381,4.8015,4.821,4.8306,4.8306,4.8306,4.8306,4.8306,4.8306,4.8306,4.8306,4.8306,4.8306,4.8306,4.8306,4.8306,3.9945,4.0083,0.0,4.0411,4.0457,0.0,4.0843,4.0912,4.0912,4.0912,4.0959,4.1123,4.1368,4.1485,4.1687,4.2098,4.208,4.2244,0.0,4.316,4.3541,4.4196,4.4596,4.5054,4.5643,4.5165,4.5606,4.7519,4.6563,4.6599,4.8214,4.8306,4.8306,4.8306,4.7516,4.6709,4.5902,4.5112,4.4305,4.3515,4.3515,4.3515,4.3515,4.3515,4.3515,4.3515,4.3515,4.3515,4.3515,4.3515,4.3515,4.3515,4.3515,4.3515,4.3515,4.3515,4.3515,4.3551,4.3828,4.4268,4.4746,4.5039,4.548,4.5993,4.6526,4.6654,4.6764,4.7297,4.7664,4.7789,4.7498,4.7516,4.7569,4.7421,4.7138,4.6863,4.6747,4.6799,4.6654,4.5837,4.5963,4.6013,4.5485,4.5397,4.5397,4.5397,4.5397,4.5397,4.5397,4.5397,4.5397,4.5397,4.5397,4.5675,4.6387,4.7004,4.7611,4.8267,4.8306,4.8306,4.8306,4.8306,4.8306,4.8306,4.8306,4.8306,4.8306,4.8306,4.8306,4.8306,4.8306,4.8306]}]]